GFSGBSN_prec_precacc12_015.txt.gz
Total_Precipitation_Accumulation
0.04 0.04 0.03 0.02 0.01 0.01 0.01 0.00 0.00 0.00 0.00 0.00 0.00 0.00 0.00 0.00 0.00 0.00 0.00 0.00 0.02 0.04 0.04 0.05 0.11 0.18 0.11 0.06 0.01 0.00 0.00 0.00 0.00 0.00 0.01 0.03 0.05 0.03 0.03 0.01 0.02 0.00 0.00 0.00 0.00 0.00 0.00
0.03 0.03 0.03 0.02 0.01 0.01 0.01 0.01 0.00 0.00 0.00 0.00 0.00 0.00 0.00 0.00 0.00 0.00 0.00 0.00 0.01 0.03 0.06 0.06 0.13 0.20 0.05 0.01 0.00 0.00 0.00 0.00 0.00 0.00 0.01 0.05 0.05 0.01 0.02 0.01 0.01 0.00 0.00 0.00 0.00 0.00 0.00
0.03 0.03 0.02 0.02 0.01 0.01 0.01 0.00 0.00 0.00 0.00 0.00 0.01 0.01 0.00 0.00 0.00 0.00 0.00 0.00 0.00 0.02 0.06 0.12 0.22 0.18 0.05 0.00 0.00 0.00 0.00 0.00 0.00 0.00 0.01 0.02 0.05 0.10 0.04 0.03 0.00 0.00 0.00 0.00 0.00 0.00 0.00
0.03 0.03 0.03 0.02 0.01 0.01 0.01 0.00 0.00 0.00 0.00 0.01 0.03 0.03 0.02 0.01 0.01 0.01 0.01 0.00 0.01 0.02 0.04 0.11 0.29 0.21 0.04 0.00 0.00 0.00 0.00 0.00 0.00 0.00 0.01 0.10 0.22 0.14 0.08 0.03 0.02 0.01 0.02 0.01 0.00 0.00 0.00
0.04 0.04 0.02 0.02 0.02 0.02 0.02 0.02 0.01 0.01 0.01 0.01 0.01 0.01 0.02 0.03 0.05 0.04 0.06 0.06 0.05 0.07 0.09 0.22 0.22 0.15 0.03 0.00 0.00 0.00 0.00 0.00 0.00 0.00 0.01 0.13 0.26 0.19 0.10 0.07 0.07 0.04 0.02 0.01 0.00 0.00 0.00
0.04 0.04 0.04 0.03 0.02 0.03 0.03 0.03 0.02 0.01 0.01 0.01 0.00 0.01 0.02 0.03 0.05 0.08 0.12 0.16 0.18 0.13 0.15 0.11 0.09 0.13 0.01 0.00 0.00 0.00 0.00 0.00 0.05 0.11 0.10 0.17 0.21 0.29 0.19 0.17 0.07 0.02 0.01 0.00 0.00 0.00 0.00
0.03 0.04 0.04 0.03 0.02 0.02 0.02 0.02 0.02 0.01 0.00 0.01 0.01 0.01 0.04 0.03 0.08 0.17 0.28 0.54 0.20 0.09 0.06 0.01 0.02 0.01 0.01 0.01 0.00 0.00 0.00 0.00 0.03 0.16 0.14 0.22 0.24 0.27 0.18 0.11 0.02 0.00 0.00 0.00 0.00 0.00 0.00
0.03 0.04 0.03 0.03 0.03 0.02 0.02 0.02 0.01 0.01 0.00 0.00 0.02 0.04 0.10 0.11 0.14 0.21 0.30 0.17 0.04 0.02 0.07 0.01 0.01 0.00 0.03 0.04 0.03 0.02 0.00 0.01 0.04 0.11 0.19 0.36 0.28 0.05 0.09 0.06 0.04 0.01 0.00 0.00 0.00 0.00 0.00
0.03 0.04 0.03 0.03 0.03 0.03 0.03 0.03 0.01 0.01 0.01 0.00 0.01 0.05 0.16 0.22 0.27 0.31 0.28 0.16 0.14 0.16 0.33 0.12 0.01 0.01 0.02 0.05 0.04 0.11 0.00 0.05 0.05 0.09 0.30 0.34 0.23 0.03 0.17 0.13 0.11 0.02 0.00 0.00 0.00 0.00 0.00
0.06 0.05 0.04 0.05 0.06 0.05 0.04 0.03 0.02 0.01 0.01 0.00 0.01 0.09 0.23 0.41 0.42 0.24 0.30 0.45 0.45 0.57 1.00 0.22 0.04 0.02 0.08 0.16 0.09 0.03 0.00 0.09 0.06 0.05 0.20 0.23 0.16 0.08 0.17 0.21 0.10 0.06 0.00 0.00 0.00 0.00 0.01
0.14 0.10 0.07 0.06 0.07 0.06 0.05 0.04 0.04 0.03 0.03 0.01 0.01 0.05 0.25 0.66 0.56 0.37 0.41 0.56 0.58 0.93 0.69 0.03 0.02 0.02 0.04 0.11 0.10 0.08 0.02 0.08 0.07 0.11 0.35 0.32 0.21 0.20 0.17 0.26 0.06 0.08 0.00 0.00 0.00 0.00 0.00
0.33 0.17 0.09 0.06 0.05 0.06 0.06 0.05 0.05 0.06 0.03 0.03 0.01 0.00 0.16 0.55 0.64 0.49 0.51 0.70 0.77 1.04 0.46 0.04 0.10 0.08 0.10 0.08 0.13 0.18 0.15 0.21 0.24 0.12 0.15 0.18 0.10 0.16 0.16 0.12 0.08 0.06 0.02 0.03 0.01 0.00 0.00
0.23 0.15 0.10 0.06 0.06 0.07 0.07 0.05 0.05 0.07 0.04 0.03 0.02 0.02 0.05 0.35 0.69 0.84 0.81 0.83 0.93 0.60 0.23 0.20 0.16 0.16 0.13 0.06 0.17 0.16 0.21 0.38 0.78 0.33 0.34 0.44 0.39 0.21 0.16 0.28 0.30 0.21 0.08 0.14 0.07 0.02 0.00
0.23 0.17 0.11 0.07 0.08 0.07 0.08 0.06 0.05 0.07 0.05 0.03 0.03 0.07 0.06 0.12 0.61 0.74 0.98 0.80 0.59 0.23 0.27 0.26 0.12 0.13 0.15 0.08 0.23 0.20 0.22 0.30 0.43 0.12 0.19 0.47 0.52 0.29 0.17 0.38 0.40 0.15 0.05 0.03 0.02 0.00 0.00
0.25 0.18 0.10 0.07 0.08 0.08 0.10 0.07 0.05 0.04 0.03 0.05 0.11 0.09 0.12 0.03 0.50 0.84 1.04 0.76 0.33 0.16 0.24 0.23 0.15 0.06 0.08 0.15 0.36 0.24 0.27 0.15 0.18 0.06 0.17 0.29 0.36 0.16 0.10 0.16 0.12 0.16 0.04 0.00 0.00 0.00 0.00
0.24 0.21 0.13 0.10 0.09 0.09 0.09 0.07 0.05 0.06 0.08 0.14 0.04 0.04 0.03 0.04 0.46 1.06 1.24 0.64 0.32 0.34 0.31 0.15 0.08 0.03 0.04 0.14 0.40 0.23 0.28 0.12 0.09 0.02 0.11 0.23 0.39 0.22 0.15 0.13 0.14 0.07 0.02 0.01 0.00 0.00 0.00
0.29 0.29 0.22 0.14 0.10 0.07 0.07 0.06 0.05 0.06 0.08 0.10 0.02 0.02 0.02 0.25 0.69 1.13 0.92 0.62 0.26 0.22 0.25 0.12 0.02 0.01 0.01 0.03 0.28 0.16 0.15 0.07 0.03 0.00 0.08 0.24 0.40 0.28 0.10 0.08 0.11 0.10 0.10 0.02 0.00 0.00 0.00
0.31 0.30 0.25 0.15 0.09 0.06 0.07 0.05 0.05 0.06 0.06 0.05 0.01 0.01 0.10 0.34 0.70 0.64 0.69 0.72 0.28 0.14 0.14 0.11 0.01 0.00 0.00 0.01 0.16 0.11 0.05 0.02 0.00 0.00 0.04 0.09 0.17 0.15 0.06 0.00 0.00 0.01 0.02 0.00 0.00 0.00 0.00
0.27 0.23 0.25 0.14 0.10 0.06 0.08 0.05 0.05 0.07 0.05 0.00 0.01 0.06 0.35 0.28 0.46 0.48 0.59 0.52 0.23 0.09 0.09 0.08 0.00 0.00 0.00 0.00 0.03 0.03 0.05 0.00 0.00 0.00 0.01 0.01 0.03 0.05 0.06 0.02 0.02 0.02 0.00 0.00 0.00 0.00 0.00
0.23 0.25 0.22 0.13 0.09 0.07 0.11 0.03 0.03 0.05 0.07 0.04 0.01 0.07 0.25 0.23 0.22 0.55 0.64 0.47 0.24 0.11 0.06 0.07 0.02 0.00 0.00 0.00 0.00 0.00 0.04 0.00 0.00 0.00 0.00 0.00 0.00 0.00 0.02 0.01 0.00 0.00 0.00 0.00 0.00 0.00 0.00
0.22 0.26 0.21 0.14 0.08 0.11 0.17 0.03 0.02 0.03 0.10 0.07 0.02 0.01 0.02 0.08 0.09 0.31 0.60 0.51 0.31 0.26 0.12 0.08 0.04 0.00 0.00 0.00 0.00 0.00 0.02 0.00 0.00 0.00 0.00 0.01 0.00 0.00 0.00 0.00 0.00 0.00 0.00 0.00 0.00 0.00 0.00
0.27 0.26 0.21 0.14 0.09 0.18 0.20 0.04 0.01 0.03 0.11 0.07 0.01 0.00 0.00 0.00 0.00 0.12 0.50 0.65 0.31 0.26 0.16 0.06 0.02 0.00 0.00 0.00 0.00 0.00 0.00 0.00 0.00 0.00 0.00 0.00 0.00 0.00 0.00 0.00 0.00 0.00 0.00 0.00 0.00 0.00 0.00
0.21 0.22 0.21 0.14 0.11 0.20 0.21 0.06 0.02 0.04 0.07 0.01 0.00 0.00 0.00 0.00 0.00 0.06 0.31 0.44 0.30 0.23 0.19 0.04 0.02 0.01 0.00 0.00 0.00 0.00 0.00 0.00 0.00 0.00 0.00 0.00 0.00 0.00 0.00 0.00 0.00 0.00 0.00 0.00 0.00 0.00 0.00
0.21 0.22 0.24 0.20 0.14 0.20 0.17 0.07 0.02 0.04 0.03 0.00 0.00 0.00 0.00 0.00 0.00 0.03 0.13 0.20 0.22 0.15 0.18 0.03 0.02 0.03 0.00 0.00 0.00 0.00 0.00 0.00 0.01 0.00 0.00 0.01 0.01 0.00 0.00 0.00 0.00 0.00 0.00 0.00 0.00 0.00 0.00
0.23 0.20 0.22 0.21 0.14 0.19 0.13 0.05 0.01 0.04 0.04 0.01 0.00 0.00 0.00 0.00 0.00 0.00 0.08 0.12 0.18 0.12 0.15 0.04 0.00 0.00 0.00 0.00 0.00 0.04 0.07 0.08 0.03 0.03 0.00 0.01 0.04 0.04 0.00 0.00 0.00 0.00 0.00 0.00 0.00 0.00 0.00
0.20 0.19 0.18 0.21 0.14 0.18 0.19 0.10 0.01 0.02 0.06 0.03 0.00 0.02 0.01 0.00 0.00 0.00 0.00 0.04 0.15 0.07 0.08 0.04 0.00 0.01 0.04 0.03 0.01 0.05 0.07 0.05 0.01 0.05 0.01 0.00 0.05 0.11 0.01 0.00 0.00 0.00 0.00 0.00 0.00 0.00 0.00
0.18 0.17 0.19 0.20 0.17 0.13 0.15 0.08 0.02 0.01 0.06 0.03 0.00 0.01 0.01 0.00 0.00 0.00 0.00 0.01 0.11 0.11 0.06 0.01 0.02 0.01 0.08 0.05 0.01 0.04 0.02 0.00 0.00 0.00 0.01 0.01 0.03 0.10 0.08 0.03 0.00 0.00 0.00 0.00 0.00 0.00 0.00
0.16 0.17 0.22 0.21 0.16 0.13 0.10 0.06 0.03 0.01 0.05 0.04 0.00 0.01 0.00 0.00 0.00 0.00 0.00 0.00 0.06 0.09 0.07 0.01 0.08 0.04 0.08 0.09 0.03 0.03 0.01 0.01 0.00 0.00 0.00 0.00 0.01 0.01 0.02 0.01 0.00 0.00 0.00 0.00 0.00 0.00 0.00
0.19 0.19 0.23 0.20 0.15 0.15 0.11 0.06 0.02 0.01 0.04 0.06 0.02 0.02 0.00 0.00 0.00 0.00 0.00 0.00 0.01 0.02 0.07 0.03 0.02 0.01 0.03 0.07 0.02 0.02 0.01 0.00 0.00 0.00 0.00 0.00 0.00 0.00 0.00 0.00 0.00 0.00 0.00 0.00 0.00 0.00 0.00

GFSGBSN_prec_precacc12_018.txt.gz
Total_Precipitation_Accumulation
0.03 0.04 0.03 0.02 0.01 0.02 0.01 0.01 0.00 0.00 0.00 0.00 0.00 0.00 0.00 0.00 0.00 0.00 0.00 0.00 0.00 0.00 0.01 0.01 0.05 0.10 0.06 0.05 0.01 0.00 0.00 0.00 0.00 0.00 0.00 0.02 0.05 0.03 0.03 0.01 0.02 0.00 0.00 0.00 0.00 0.00 0.00
0.03 0.04 0.03 0.02 0.02 0.02 0.02 0.01 0.01 0.00 0.00 0.00 0.00 0.00 0.00 0.00 0.00 0.00 0.00 0.00 0.00 0.00 0.00 0.01 0.09 0.10 0.02 0.02 0.00 0.00 0.00 0.00 0.00 0.00 0.00 0.03 0.05 0.01 0.02 0.01 0.01 0.00 0.00 0.00 0.00 0.00 0.00
0.03 0.03 0.02 0.01 0.01 0.02 0.01 0.01 0.00 0.00 0.00 0.00 0.00 0.01 0.00 0.00 0.00 0.00 0.00 0.00 0.00 0.00 0.00 0.03 0.16 0.09 0.03 0.00 0.00 0.00 0.00 0.00 0.00 0.00 0.00 0.01 0.05 0.10 0.04 0.03 0.00 0.00 0.00 0.00 0.00 0.00 0.00
0.03 0.03 0.03 0.02 0.02 0.02 0.01 0.01 0.00 0.00 0.00 0.00 0.00 0.02 0.01 0.01 0.01 0.01 0.00 0.00 0.01 0.01 0.01 0.05 0.16 0.11 0.04 0.00 0.00 0.00 0.00 0.00 0.00 0.00 0.00 0.01 0.15 0.14 0.09 0.05 0.03 0.02 0.04 0.01 0.00 0.00 0.00
0.03 0.03 0.03 0.03 0.03 0.03 0.03 0.03 0.02 0.01 0.00 0.00 0.00 0.01 0.01 0.01 0.02 0.03 0.06 0.04 0.03 0.07 0.05 0.06 0.05 0.08 0.02 0.00 0.00 0.00 0.00 0.00 0.00 0.00 0.00 0.02 0.15 0.19 0.11 0.10 0.10 0.07 0.03 0.01 0.00 0.00 0.00
0.03 0.03 0.04 0.03 0.03 0.03 0.02 0.03 0.04 0.02 0.01 0.01 0.02 0.01 0.01 0.01 0.01 0.02 0.08 0.14 0.14 0.11 0.07 0.02 0.03 0.07 0.01 0.00 0.00 0.00 0.00 0.00 0.05 0.11 0.07 0.07 0.15 0.30 0.19 0.19 0.10 0.02 0.01 0.00 0.00 0.00 0.00
0.05 0.04 0.03 0.03 0.03 0.03 0.02 0.02 0.02 0.02 0.02 0.01 0.01 0.01 0.02 0.02 0.03 0.03 0.14 0.50 0.19 0.09 0.06 0.01 0.01 0.00 0.00 0.00 0.00 0.00 0.00 0.00 0.03 0.16 0.11 0.10 0.20 0.26 0.18 0.10 0.02 0.01 0.02 0.01 0.00 0.00 0.00
0.08 0.10 0.05 0.03 0.03 0.02 0.02 0.02 0.02 0.02 0.02 0.01 0.01 0.02 0.04 0.06 0.08 0.14 0.22 0.18 0.04 0.02 0.07 0.01 0.00 0.00 0.00 0.01 0.02 0.02 0.00 0.01 0.03 0.12 0.16 0.23 0.21 0.05 0.09 0.06 0.07 0.04 0.04 0.04 0.01 0.00 0.00
0.10 0.10 0.07 0.04 0.04 0.04 0.03 0.04 0.03 0.03 0.03 0.01 0.00 0.01 0.03 0.10 0.15 0.21 0.24 0.14 0.11 0.11 0.37 0.16 0.01 0.01 0.01 0.02 0.02 0.10 0.00 0.03 0.04 0.09 0.28 0.30 0.17 0.04 0.18 0.14 0.13 0.13 0.04 0.03 0.03 0.01 0.00
0.16 0.19 0.20 0.18 0.10 0.07 0.06 0.05 0.04 0.03 0.03 0.02 0.00 0.00 0.04 0.17 0.23 0.16 0.24 0.35 0.39 0.49 1.09 0.21 0.01 0.02 0.06 0.16 0.11 0.01 0.00 0.04 0.06 0.05 0.20 0.22 0.14 0.13 0.23 0.23 0.12 0.15 0.07 0.01 0.04 0.05 0.02
0.21 0.31 0.32 0.25 0.14 0.09 0.08 0.07 0.07 0.07 0.06 0.04 0.01 0.00 0.05 0.20 0.24 0.24 0.25 0.44 0.54 0.84 0.78 0.03 0.01 0.01 0.01 0.13 0.13 0.04 0.00 0.08 0.08 0.13 0.36 0.32 0.18 0.22 0.22 0.27 0.08 0.16 0.10 0.03 0.07 0.10 0.03
0.36 0.28 0.21 0.21 0.21 0.16 0.11 0.08 0.09 0.10 0.06 0.04 0.02 0.01 0.05 0.16 0.22 0.29 0.40 0.64 0.69 0.80 0.32 0.04 0.06 0.06 0.08 0.08 0.12 0.18 0.05 0.08 0.25 0.18 0.19 0.21 0.12 0.20 0.17 0.14 0.11 0.17 0.17 0.16 0.07 0.05 0.03
0.26 0.20 0.22 0.25 0.24 0.21 0.12 0.08 0.08 0.11 0.07 0.05 0.03 0.04 0.04 0.06 0.26 0.35 0.53 0.68 0.79 0.43 0.15 0.23 0.16 0.18 0.13 0.06 0.15 0.15 0.10 0.16 0.75 0.35 0.34 0.50 0.44 0.24 0.19 0.38 0.40 0.50 0.49 0.49 0.25 0.09 0.02
0.27 0.27 0.22 0.21 0.21 0.20 0.13 0.09 0.08 0.11 0.08 0.05 0.04 0.10 0.09 0.02 0.23 0.38 0.63 0.63 0.52 0.15 0.23 0.26 0.17 0.18 0.20 0.05 0.17 0.08 0.13 0.15 0.41 0.12 0.28 0.51 0.54 0.32 0.25 0.67 0.72 0.53 0.63 0.30 0.09 0.02 0.00
0.29 0.28 0.27 0.25 0.24 0.20 0.13 0.10 0.09 0.09 0.05 0.07 0.15 0.14 0.19 0.05 0.32 0.48 0.73 0.65 0.26 0.22 0.28 0.26 0.22 0.12 0.09 0.05 0.26 0.09 0.10 0.07 0.18 0.07 0.32 0.44 0.40 0.19 0.13 0.37 0.43 0.40 0.50 0.14 0.02 0.00 0.00
0.30 0.31 0.35 0.39 0.33 0.22 0.14 0.10 0.09 0.09 0.10 0.16 0.13 0.12 0.07 0.09 0.49 0.77 1.01 0.48 0.28 0.40 0.39 0.22 0.13 0.03 0.01 0.07 0.31 0.10 0.08 0.05 0.08 0.02 0.17 0.36 0.48 0.31 0.24 0.35 0.52 0.33 0.21 0.06 0.02 0.00 0.01
0.35 0.35 0.39 0.43 0.38 0.18 0.11 0.11 0.10 0.11 0.12 0.15 0.07 0.10 0.03 0.26 0.72 0.93 0.68 0.42 0.28 0.28 0.33 0.21 0.05 0.01 0.01 0.02 0.22 0.05 0.05 0.03 0.03 0.00 0.11 0.45 0.61 0.42 0.37 0.40 0.36 0.46 0.31 0.07 0.01 0.00 0.01
0.35 0.36 0.37 0.39 0.35 0.16 0.14 0.11 0.11 0.11 0.12 0.10 0.07 0.08 0.11 0.32 0.69 0.51 0.43 0.61 0.36 0.20 0.17 0.19 0.07 0.01 0.00 0.01 0.15 0.05 0.02 0.02 0.00 0.01 0.11 0.36 0.53 0.43 0.21 0.19 0.03 0.18 0.06 0.00 0.00 0.00 0.01
0.29 0.30 0.39 0.37 0.31 0.18 0.16 0.17 0.16 0.11 0.07 0.02 0.05 0.12 0.44 0.30 0.43 0.37 0.50 0.60 0.33 0.11 0.10 0.12 0.02 0.00 0.00 0.00 0.03 0.02 0.02 0.00 0.00 0.00 0.08 0.22 0.46 0.35 0.16 0.26 0.12 0.15 0.05 0.00 0.00 0.00 0.00
0.24 0.29 0.33 0.29 0.22 0.18 0.21 0.21 0.22 0.10 0.08 0.05 0.05 0.14 0.35 0.33 0.21 0.55 0.66 0.51 0.27 0.08 0.06 0.07 0.02 0.00 0.00 0.00 0.00 0.00 0.04 0.00 0.00 0.00 0.03 0.12 0.15 0.30 0.11 0.06 0.05 0.01 0.01 0.00 0.00 0.00 0.00
0.24 0.30 0.27 0.24 0.22 0.24 0.27 0.33 0.26 0.06 0.11 0.11 0.07 0.04 0.04 0.11 0.10 0.33 0.72 0.58 0.39 0.29 0.12 0.08 0.04 0.01 0.00 0.00 0.01 0.01 0.02 0.01 0.00 0.00 0.01 0.07 0.10 0.16 0.06 0.00 0.00 0.00 0.00 0.00 0.00 0.00 0.00
0.28 0.28 0.25 0.24 0.23 0.26 0.31 0.39 0.31 0.07 0.15 0.13 0.06 0.01 0.02 0.01 0.00 0.13 0.64 0.80 0.45 0.34 0.18 0.06 0.03 0.00 0.00 0.00 0.00 0.00 0.00 0.01 0.00 0.00 0.00 0.01 0.01 0.00 0.00 0.00 0.00 0.00 0.00 0.00 0.00 0.00 0.00
0.21 0.25 0.25 0.21 0.23 0.27 0.32 0.39 0.35 0.13 0.13 0.06 0.02 0.00 0.01 0.01 0.01 0.07 0.39 0.61 0.41 0.31 0.22 0.04 0.02 0.03 0.01 0.00 0.00 0.00 0.00 0.00 0.01 0.00 0.00 0.01 0.00 0.00 0.00 0.00 0.00 0.00 0.00 0.00 0.00 0.00 0.00
0.20 0.24 0.27 0.24 0.21 0.23 0.24 0.26 0.16 0.09 0.04 0.00 0.00 0.02 0.07 0.02 0.00 0.03 0.16 0.32 0.34 0.24 0.25 0.04 0.02 0.05 0.02 0.00 0.01 0.01 0.01 0.00 0.01 0.00 0.00 0.01 0.01 0.01 0.00 0.00 0.00 0.00 0.00 0.00 0.00 0.00 0.00
0.21 0.21 0.25 0.25 0.20 0.20 0.20 0.25 0.16 0.07 0.05 0.01 0.00 0.04 0.06 0.02 0.01 0.00 0.10 0.25 0.31 0.23 0.26 0.10 0.02 0.02 0.01 0.00 0.03 0.04 0.08 0.10 0.03 0.03 0.00 0.01 0.04 0.04 0.00 0.00 0.00 0.00 0.00 0.00 0.00 0.00 0.00
0.18 0.20 0.21 0.25 0.18 0.20 0.26 0.27 0.19 0.11 0.08 0.04 0.00 0.06 0.09 0.03 0.01 0.00 0.01 0.10 0.25 0.15 0.17 0.09 0.02 0.01 0.06 0.03 0.02 0.04 0.09 0.07 0.03 0.08 0.02 0.00 0.05 0.12 0.02 0.00 0.00 0.00 0.00 0.00 0.00 0.00 0.00
0.16 0.18 0.22 0.24 0.21 0.15 0.20 0.22 0.10 0.04 0.08 0.06 0.00 0.03 0.11 0.05 0.01 0.00 0.00 0.01 0.18 0.18 0.14 0.06 0.05 0.02 0.09 0.11 0.05 0.06 0.02 0.00 0.00 0.01 0.01 0.01 0.04 0.11 0.08 0.04 0.00 0.00 0.00 0.00 0.00 0.00 0.00
0.14 0.17 0.24 0.23 0.19 0.15 0.14 0.19 0.13 0.04 0.08 0.07 0.01 0.05 0.08 0.04 0.01 0.00 0.00 0.00 0.11 0.18 0.13 0.06 0.10 0.04 0.09 0.18 0.10 0.04 0.01 0.01 0.00 0.00 0.00 0.00 0.01 0.01 0.03 0.03 0.00 0.00 0.00 0.00 0.00 0.00 0.00
0.16 0.20 0.24 0.22 0.17 0.16 0.13 0.15 0.10 0.03 0.06 0.09 0.03 0.07 0.09 0.03 0.01 0.00 0.00 0.00 0.03 0.12 0.16 0.09 0.05 0.02 0.03 0.10 0.04 0.02 0.01 0.00 0.00 0.00 0.00 0.00 0.00 0.00 0.00 0.00 0.00 0.00 0.00 0.00 0.00 0.00 0.00

GFSGBSN_prec_precacc12_021.txt.gz
Total_Precipitation_Accumulation
0.02 0.03 0.03 0.02 0.02 0.02 0.03 0.02 0.01 0.00 0.00 0.00 0.00 0.00 0.00 0.00 0.00 0.00 0.00 0.00 0.00 0.00 0.00 0.00 0.02 0.04 0.03 0.04 0.01 0.00 0.00 0.00 0.00 0.00 0.00 0.00 0.03 0.02 0.03 0.01 0.02 0.00 0.00 0.00 0.00 0.00 0.00
0.02 0.03 0.03 0.02 0.02 0.02 0.02 0.02 0.02 0.01 0.00 0.00 0.00 0.00 0.00 0.00 0.00 0.00 0.00 0.00 0.00 0.00 0.00 0.01 0.05 0.05 0.02 0.02 0.00 0.00 0.00 0.00 0.00 0.00 0.00 0.00 0.02 0.01 0.02 0.01 0.02 0.00 0.00 0.00 0.00 0.00 0.00
0.04 0.04 0.03 0.02 0.01 0.01 0.02 0.02 0.01 0.01 0.00 0.00 0.00 0.00 0.00 0.00 0.00 0.00 0.00 0.00 0.00 0.00 0.00 0.02 0.10 0.04 0.03 0.00 0.00 0.00 0.00 0.00 0.00 0.00 0.00 0.00 0.02 0.11 0.05 0.03 0.00 0.00 0.01 0.00 0.00 0.00 0.00
0.05 0.06 0.05 0.03 0.02 0.02 0.02 0.02 0.01 0.01 0.01 0.01 0.00 0.00 0.01 0.01 0.01 0.01 0.00 0.00 0.01 0.01 0.01 0.02 0.06 0.06 0.04 0.00 0.00 0.00 0.00 0.00 0.00 0.00 0.00 0.00 0.03 0.11 0.09 0.06 0.03 0.03 0.04 0.01 0.00 0.00 0.00
0.05 0.05 0.05 0.05 0.04 0.03 0.03 0.03 0.03 0.01 0.01 0.01 0.00 0.01 0.01 0.01 0.01 0.01 0.04 0.04 0.03 0.05 0.05 0.02 0.00 0.04 0.02 0.00 0.00 0.00 0.00 0.00 0.00 0.00 0.00 0.00 0.03 0.12 0.11 0.10 0.10 0.07 0.03 0.01 0.00 0.00 0.00
0.05 0.05 0.06 0.06 0.05 0.03 0.03 0.04 0.04 0.04 0.03 0.03 0.02 0.01 0.02 0.01 0.02 0.02 0.02 0.10 0.13 0.09 0.06 0.02 0.02 0.04 0.00 0.00 0.00 0.00 0.00 0.00 0.02 0.08 0.07 0.04 0.07 0.23 0.18 0.18 0.08 0.02 0.01 0.00 0.00 0.00 0.00
0.05 0.05 0.05 0.06 0.06 0.05 0.03 0.03 0.03 0.03 0.03 0.04 0.03 0.02 0.01 0.02 0.02 0.03 0.02 0.23 0.16 0.08 0.06 0.01 0.01 0.00 0.00 0.00 0.00 0.00 0.00 0.00 0.00 0.12 0.11 0.06 0.12 0.19 0.17 0.10 0.02 0.01 0.02 0.01 0.00 0.00 0.00
0.07 0.10 0.11 0.10 0.09 0.12 0.07 0.04 0.03 0.03 0.03 0.03 0.03 0.01 0.01 0.02 0.04 0.08 0.11 0.12 0.03 0.02 0.06 0.02 0.00 0.00 0.00 0.00 0.01 0.02 0.00 0.00 0.00 0.09 0.15 0.16 0.15 0.04 0.09 0.06 0.07 0.04 0.04 0.04 0.01 0.00 0.01
0.10 0.10 0.08 0.09 0.11 0.15 0.15 0.09 0.06 0.05 0.05 0.05 0.04 0.02 0.01 0.02 0.05 0.09 0.12 0.11 0.09 0.10 0.35 0.16 0.01 0.01 0.00 0.02 0.01 0.09 0.00 0.00 0.00 0.08 0.28 0.27 0.12 0.04 0.17 0.13 0.13 0.13 0.04 0.03 0.03 0.01 0.01
0.16 0.19 0.20 0.20 0.16 0.14 0.14 0.13 0.10 0.07 0.07 0.06 0.05 0.03 0.02 0.04 0.05 0.07 0.14 0.22 0.25 0.42 1.01 0.20 0.01 0.02 0.06 0.14 0.09 0.00 0.00 0.01 0.03 0.05 0.20 0.18 0.09 0.12 0.22 0.22 0.12 0.15 0.07 0.01 0.04 0.09 0.07
0.21 0.30 0.31 0.25 0.24 0.23 0.19 0.16 0.13 0.12 0.11 0.08 0.06 0.04 0.02 0.01 0.05 0.08 0.13 0.20 0.31 0.65 0.63 0.03 0.01 0.00 0.01 0.11 0.09 0.02 0.00 0.10 0.10 0.13 0.36 0.26 0.13 0.16 0.21 0.27 0.08 0.16 0.10 0.03 0.08 0.15 0.15
0.37 0.30 0.22 0.22 0.25 0.24 0.23 0.23 0.20 0.15 0.12 0.09 0.07 0.03 0.04 0.04 0.02 0.07 0.21 0.38 0.45 0.58 0.24 0.03 0.04 0.05 0.09 0.06 0.07 0.16 0.04 0.07 0.23 0.28 0.27 0.13 0.10 0.15 0.12 0.14 0.11 0.17 0.18 0.17 0.11 0.31 0.30
0.28 0.24 0.25 0.26 0.24 0.25 0.24 0.23 0.25 0.18 0.12 0.11 0.08 0.05 0.06 0.00 0.02 0.07 0.28 0.46 0.60 0.33 0.07 0.18 0.15 0.17 0.13 0.07 0.10 0.15 0.16 0.13 0.60 0.47 0.40 0.42 0.42 0.22 0.13 0.40 0.41 0.51 0.54 0.64 0.42 0.39 0.37
0.30 0.30 0.26 0.25 0.25 0.25 0.24 0.22 0.22 0.21 0.14 0.15 0.13 0.15 0.12 0.02 0.06 0.10 0.34 0.45 0.43 0.08 0.12 0.20 0.17 0.18 0.18 0.05 0.12 0.08 0.20 0.20 0.28 0.15 0.28 0.49 0.49 0.31 0.22 0.66 0.74 0.54 0.71 0.61 0.28 0.14 0.11
0.32 0.32 0.32 0.31 0.32 0.32 0.27 0.22 0.18 0.17 0.11 0.14 0.30 0.23 0.41 0.10 0.14 0.25 0.45 0.48 0.18 0.18 0.19 0.23 0.27 0.17 0.08 0.03 0.17 0.08 0.08 0.09 0.12 0.07 0.33 0.45 0.43 0.20 0.14 0.37 0.47 0.47 0.62 0.36 0.29 0.09 0.07
0.33 0.34 0.41 0.47 0.46 0.42 0.31 0.21 0.18 0.16 0.16 0.24 0.29 0.23 0.23 0.11 0.32 0.71 0.85 0.35 0.13 0.20 0.36 0.28 0.18 0.05 0.02 0.01 0.18 0.05 0.04 0.01 0.03 0.01 0.17 0.37 0.56 0.36 0.37 0.38 0.54 0.53 0.31 0.38 0.52 0.23 0.08
0.35 0.36 0.45 0.59 0.59 0.48 0.37 0.24 0.24 0.21 0.21 0.27 0.18 0.20 0.10 0.17 0.73 0.94 0.59 0.26 0.15 0.17 0.38 0.28 0.08 0.04 0.02 0.01 0.10 0.02 0.02 0.01 0.01 0.00 0.12 0.48 0.69 0.47 0.58 0.49 0.39 0.65 0.62 0.33 0.29 0.14 0.05
0.33 0.35 0.42 0.58 0.60 0.43 0.43 0.30 0.24 0.20 0.30 0.29 0.20 0.14 0.15 0.30 0.76 0.50 0.26 0.33 0.25 0.23 0.23 0.24 0.11 0.02 0.02 0.01 0.06 0.03 0.01 0.02 0.01 0.01 0.11 0.40 0.67 0.54 0.30 0.25 0.03 0.28 0.28 0.21 0.35 0.11 0.04
0.26 0.29 0.43 0.49 0.53 0.42 0.47 0.37 0.24 0.22 0.38 0.23 0.12 0.22 0.53 0.26 0.26 0.19 0.28 0.41 0.32 0.20 0.19 0.19 0.04 0.00 0.00 0.01 0.01 0.01 0.00 0.00 0.00 0.00 0.09 0.33 0.63 0.51 0.23 0.44 0.17 0.28 0.27 0.26 0.39 0.05 0.02
0.21 0.27 0.33 0.34 0.39 0.43 0.51 0.34 0.32 0.34 0.35 0.11 0.08 0.26 0.58 0.46 0.18 0.32 0.48 0.46 0.30 0.12 0.14 0.13 0.04 0.01 0.00 0.00 0.00 0.01 0.00 0.00 0.00 0.00 0.04 0.24 0.33 0.47 0.18 0.14 0.12 0.04 0.14 0.21 0.13 0.02 0.01
0.20 0.26 0.25 0.28 0.35 0.41 0.47 0.44 0.47 0.46 0.21 0.14 0.11 0.10 0.07 0.14 0.09 0.24 0.60 0.50 0.37 0.24 0.15 0.09 0.05 0.01 0.00 0.00 0.01 0.01 0.00 0.00 0.00 0.00 0.02 0.20 0.41 0.50 0.18 0.00 0.03 0.05 0.03 0.02 0.00 0.00 0.01
0.24 0.24 0.23 0.28 0.30 0.37 0.43 0.51 0.55 0.62 0.41 0.18 0.11 0.05 0.05 0.02 0.01 0.12 0.57 0.69 0.46 0.38 0.23 0.08 0.02 0.00 0.00 0.00 0.00 0.00 0.00 0.01 0.00 0.00 0.00 0.04 0.18 0.17 0.05 0.00 0.00 0.01 0.01 0.00 0.00 0.00 0.00
0.16 0.21 0.22 0.22 0.27 0.33 0.37 0.48 0.64 0.76 0.65 0.19 0.05 0.04 0.03 0.04 0.02 0.08 0.38 0.58 0.41 0.37 0.21 0.04 0.02 0.03 0.01 0.00 0.00 0.00 0.00 0.00 0.03 0.00 0.00 0.00 0.03 0.05 0.01 0.01 0.00 0.00 0.00 0.00 0.00 0.00 0.00
0.15 0.21 0.25 0.24 0.24 0.27 0.26 0.31 0.36 0.36 0.26 0.05 0.01 0.03 0.09 0.05 0.02 0.04 0.17 0.34 0.37 0.33 0.28 0.04 0.03 0.05 0.03 0.02 0.01 0.02 0.07 0.01 0.03 0.04 0.00 0.00 0.01 0.01 0.00 0.00 0.00 0.00 0.00 0.00 0.00 0.00 0.00
0.16 0.18 0.22 0.24 0.23 0.23 0.21 0.30 0.40 0.39 0.34 0.09 0.01 0.05 0.09 0.06 0.02 0.01 0.11 0.27 0.39 0.34 0.35 0.14 0.03 0.02 0.02 0.02 0.06 0.06 0.12 0.13 0.04 0.04 0.00 0.01 0.04 0.06 0.00 0.00 0.00 0.00 0.00 0.00 0.00 0.00 0.00
0.15 0.16 0.18 0.24 0.21 0.22 0.28 0.32 0.37 0.35 0.24 0.13 0.01 0.07 0.12 0.07 0.04 0.01 0.02 0.13 0.34 0.27 0.29 0.16 0.05 0.00 0.06 0.03 0.05 0.04 0.08 0.06 0.05 0.08 0.02 0.00 0.05 0.12 0.02 0.00 0.00 0.00 0.00 0.00 0.00 0.00 0.00
0.11 0.14 0.17 0.21 0.22 0.17 0.21 0.25 0.20 0.16 0.17 0.12 0.01 0.04 0.17 0.09 0.02 0.00 0.00 0.03 0.24 0.30 0.28 0.12 0.10 0.02 0.11 0.13 0.07 0.08 0.02 0.00 0.00 0.01 0.01 0.01 0.05 0.11 0.08 0.04 0.00 0.00 0.00 0.00 0.00 0.00 0.00
0.08 0.12 0.18 0.20 0.21 0.17 0.15 0.20 0.22 0.16 0.19 0.16 0.02 0.06 0.12 0.07 0.02 0.00 0.00 0.00 0.13 0.25 0.28 0.19 0.18 0.10 0.12 0.21 0.11 0.06 0.02 0.01 0.00 0.00 0.00 0.00 0.01 0.02 0.03 0.03 0.00 0.00 0.00 0.00 0.00 0.00 0.00
0.11 0.12 0.18 0.19 0.18 0.18 0.14 0.16 0.19 0.14 0.14 0.16 0.04 0.07 0.13 0.08 0.02 0.01 0.00 0.00 0.03 0.15 0.27 0.22 0.15 0.06 0.07 0.11 0.07 0.04 0.01 0.00 0.00 0.00 0.00 0.00 0.00 0.00 0.00 0.00 0.00 0.00 0.00 0.00 0.00 0.00 0.00

GFSGBSN_prec_precacc12_024.txt.gz
Total_Precipitation_Accumulation
0.07 0.07 0.04 0.01 0.01 0.02 0.03 0.03 0.02 0.01 0.01 0.00 0.00 0.00 0.00 0.00 0.00 0.00 0.00 0.00 0.00 0.00 0.00 0.00 0.01 0.02 0.02 0.03 0.01 0.00 0.00 0.00 0.00 0.00 0.00 0.00 0.00 0.01 0.01 0.01 0.02 0.00 0.00 0.00 0.00 0.00 0.00
0.07 0.06 0.06 0.06 0.03 0.02 0.02 0.03 0.02 0.01 0.01 0.01 0.00 0.00 0.00 0.00 0.00 0.00 0.00 0.00 0.00 0.00 0.00 0.00 0.04 0.04 0.02 0.01 0.00 0.00 0.00 0.00 0.00 0.00 0.00 0.00 0.00 0.00 0.01 0.00 0.02 0.00 0.00 0.00 0.00 0.00 0.00
0.05 0.06 0.06 0.07 0.09 0.05 0.02 0.02 0.02 0.02 0.02 0.02 0.01 0.00 0.00 0.00 0.00 0.00 0.00 0.00 0.00 0.00 0.00 0.01 0.05 0.03 0.03 0.00 0.00 0.00 0.00 0.00 0.00 0.00 0.00 0.00 0.00 0.07 0.04 0.01 0.00 0.00 0.01 0.00 0.00 0.00 0.00
0.05 0.06 0.06 0.08 0.10 0.10 0.06 0.03 0.02 0.02 0.02 0.02 0.02 0.01 0.01 0.01 0.00 0.00 0.00 0.00 0.00 0.00 0.00 0.00 0.02 0.04 0.03 0.00 0.00 0.00 0.00 0.00 0.00 0.00 0.00 0.00 0.00 0.03 0.08 0.05 0.02 0.02 0.03 0.01 0.00 0.00 0.00
0.04 0.04 0.05 0.05 0.07 0.08 0.08 0.06 0.03 0.02 0.02 0.03 0.02 0.02 0.01 0.01 0.01 0.01 0.00 0.01 0.02 0.03 0.03 0.01 0.00 0.03 0.01 0.00 0.00 0.00 0.00 0.00 0.00 0.00 0.00 0.00 0.01 0.05 0.08 0.09 0.09 0.06 0.02 0.01 0.00 0.00 0.00
0.04 0.05 0.05 0.05 0.05 0.06 0.06 0.07 0.07 0.05 0.05 0.06 0.06 0.05 0.02 0.01 0.02 0.03 0.02 0.02 0.08 0.07 0.05 0.03 0.02 0.03 0.00 0.00 0.00 0.00 0.00 0.00 0.00 0.01 0.01 0.02 0.04 0.06 0.08 0.15 0.08 0.02 0.01 0.00 0.00 0.00 0.00
0.05 0.04 0.04 0.05 0.05 0.06 0.06 0.09 0.10 0.07 0.06 0.06 0.06 0.06 0.04 0.03 0.04 0.03 0.01 0.03 0.04 0.05 0.06 0.01 0.01 0.00 0.00 0.00 0.00 0.00 0.00 0.00 0.00 0.03 0.04 0.03 0.07 0.04 0.04 0.07 0.02 0.01 0.02 0.01 0.00 0.00 0.00
0.07 0.10 0.10 0.09 0.09 0.12 0.14 0.14 0.13 0.10 0.07 0.06 0.06 0.05 0.04 0.03 0.05 0.08 0.05 0.04 0.00 0.00 0.03 0.01 0.00 0.00 0.00 0.00 0.00 0.00 0.00 0.00 0.00 0.01 0.03 0.13 0.08 0.00 0.02 0.04 0.07 0.04 0.04 0.04 0.01 0.00 0.01
0.10 0.10 0.08 0.09 0.11 0.14 0.17 0.16 0.15 0.15 0.12 0.09 0.07 0.07 0.07 0.05 0.05 0.05 0.04 0.03 0.01 0.06 0.26 0.14 0.01 0.01 0.00 0.02 0.01 0.02 0.00 0.00 0.00 0.01 0.06 0.23 0.08 0.02 0.08 0.10 0.12 0.13 0.04 0.03 0.03 0.01 0.01
0.15 0.18 0.20 0.19 0.15 0.13 0.15 0.18 0.27 0.32 0.23 0.13 0.10 0.09 0.07 0.05 0.02 0.01 0.03 0.03 0.10 0.30 0.70 0.15 0.01 0.02 0.05 0.11 0.09 0.00 0.00 0.01 0.02 0.01 0.08 0.18 0.04 0.09 0.15 0.20 0.12 0.15 0.07 0.01 0.05 0.09 0.07
0.21 0.30 0.31 0.24 0.23 0.22 0.19 0.17 0.17 0.28 0.35 0.21 0.12 0.12 0.05 0.02 0.02 0.03 0.01 0.03 0.12 0.46 0.49 0.02 0.01 0.00 0.01 0.11 0.07 0.02 0.00 0.10 0.08 0.09 0.21 0.23 0.04 0.08 0.18 0.25 0.08 0.16 0.10 0.03 0.08 0.15 0.16
0.37 0.30 0.24 0.24 0.27 0.25 0.24 0.22 0.22 0.22 0.25 0.24 0.17 0.13 0.11 0.04 0.01 0.02 0.01 0.11 0.22 0.38 0.18 0.01 0.01 0.02 0.06 0.06 0.05 0.10 0.03 0.07 0.17 0.36 0.36 0.11 0.04 0.08 0.10 0.13 0.10 0.17 0.19 0.17 0.11 0.33 0.33
0.27 0.25 0.29 0.31 0.28 0.26 0.25 0.26 0.28 0.26 0.23 0.24 0.21 0.14 0.14 0.03 0.01 0.02 0.02 0.16 0.35 0.22 0.03 0.11 0.08 0.12 0.12 0.07 0.06 0.11 0.17 0.16 0.33 0.54 0.51 0.34 0.29 0.08 0.12 0.36 0.37 0.51 0.55 0.63 0.41 0.40 0.38
0.27 0.30 0.29 0.28 0.27 0.27 0.36 0.36 0.31 0.37 0.29 0.35 0.31 0.38 0.19 0.05 0.05 0.04 0.12 0.26 0.30 0.05 0.06 0.14 0.15 0.16 0.18 0.05 0.05 0.06 0.22 0.21 0.11 0.22 0.35 0.26 0.38 0.15 0.20 0.61 0.69 0.51 0.71 0.61 0.28 0.14 0.11
0.29 0.30 0.33 0.33 0.37 0.40 0.39 0.32 0.22 0.25 0.25 0.41 0.55 0.79 0.71 0.16 0.16 0.10 0.22 0.35 0.12 0.11 0.11 0.15 0.25 0.17 0.07 0.03 0.03 0.07 0.09 0.09 0.03 0.08 0.37 0.29 0.35 0.15 0.13 0.33 0.46 0.43 0.63 0.36 0.30 0.10 0.09
0.28 0.32 0.39 0.48 0.52 0.61 0.52 0.30 0.28 0.21 0.24 0.39 0.76 0.93 0.61 0.19 0.28 0.51 0.66 0.26 0.07 0.11 0.19 0.26 0.19 0.06 0.02 0.01 0.05 0.05 0.04 0.00 0.00 0.01 0.16 0.33 0.52 0.33 0.38 0.41 0.55 0.51 0.31 0.39 0.60 0.33 0.14
0.30 0.34 0.42 0.58 0.61 0.72 0.69 0.43 0.35 0.30 0.28 0.42 0.58 0.95 0.36 0.26 0.79 0.95 0.56 0.18 0.10 0.10 0.22 0.30 0.10 0.08 0.04 0.01 0.01 0.01 0.01 0.00 0.00 0.00 0.11 0.47 0.69 0.46 0.63 0.68 0.47 0.69 0.72 0.35 0.32 0.20 0.25
0.23 0.30 0.38 0.55 0.62 0.66 0.76 0.49 0.37 0.40 0.42 0.53 0.61 0.56 0.30 0.36 1.09 0.62 0.19 0.21 0.15 0.15 0.23 0.28 0.15 0.05 0.04 0.02 0.00 0.01 0.00 0.00 0.00 0.01 0.11 0.40 0.71 0.57 0.31 0.29 0.08 0.31 0.32 0.24 0.36 0.19 0.20
0.16 0.23 0.38 0.45 0.55 0.64 0.75 0.59 0.39 0.39 0.62 0.68 0.45 0.55 0.60 0.33 0.42 0.20 0.17 0.23 0.23 0.19 0.24 0.24 0.09 0.02 0.01 0.02 0.01 0.00 0.00 0.00 0.00 0.01 0.11 0.38 0.75 0.57 0.25 0.54 0.23 0.32 0.29 0.38 0.51 0.28 0.25
0.10 0.18 0.28 0.30 0.38 0.52 0.69 0.50 0.43 0.45 0.60 0.60 0.44 0.51 0.71 0.62 0.22 0.14 0.23 0.26 0.26 0.14 0.20 0.20 0.10 0.02 0.01 0.01 0.00 0.00 0.00 0.00 0.00 0.00 0.06 0.31 0.39 0.50 0.24 0.30 0.17 0.04 0.14 0.38 0.61 0.41 0.15
0.09 0.18 0.21 0.24 0.33 0.44 0.55 0.56 0.56 0.52 0.51 0.52 0.34 0.21 0.14 0.19 0.08 0.10 0.35 0.30 0.33 0.24 0.18 0.16 0.10 0.03 0.00 0.00 0.00 0.00 0.00 0.00 0.00 0.00 0.04 0.29 0.54 0.70 0.28 0.06 0.13 0.10 0.10 0.25 0.41 0.33 0.22
0.08 0.14 0.19 0.23 0.27 0.38 0.47 0.59 0.64 0.83 1.10 0.59 0.25 0.07 0.06 0.02 0.01 0.07 0.39 0.41 0.35 0.31 0.22 0.14 0.05 0.01 0.00 0.00 0.00 0.00 0.00 0.01 0.01 0.01 0.01 0.13 0.53 0.61 0.28 0.02 0.02 0.14 0.21 0.25 0.30 0.26 0.27
0.07 0.12 0.18 0.19 0.22 0.31 0.41 0.54 0.77 0.98 1.31 0.68 0.15 0.04 0.04 0.04 0.02 0.06 0.26 0.38 0.30 0.28 0.14 0.06 0.03 0.03 0.01 0.00 0.00 0.00 0.00 0.00 0.03 0.00 0.01 0.02 0.24 0.29 0.11 0.05 0.03 0.07 0.09 0.10 0.09 0.07 0.11
0.06 0.13 0.20 0.20 0.17 0.25 0.29 0.36 0.46 0.58 0.67 0.50 0.07 0.04 0.13 0.07 0.02 0.04 0.18 0.31 0.30 0.30 0.25 0.05 0.06 0.05 0.03 0.02 0.02 0.02 0.07 0.01 0.03 0.06 0.01 0.00 0.02 0.05 0.02 0.05 0.01 0.00 0.00 0.00 0.00 0.00 0.00
0.07 0.09 0.16 0.17 0.14 0.19 0.23 0.33 0.47 0.53 0.62 0.32 0.09 0.05 0.11 0.07 0.02 0.03 0.13 0.25 0.34 0.37 0.40 0.17 0.04 0.02 0.02 0.04 0.09 0.08 0.15 0.16 0.07 0.04 0.01 0.00 0.01 0.03 0.00 0.00 0.00 0.00 0.00 0.00 0.00 0.00 0.00
0.07 0.06 0.10 0.14 0.11 0.17 0.29 0.35 0.42 0.48 0.41 0.23 0.12 0.08 0.12 0.10 0.05 0.02 0.04 0.12 0.30 0.32 0.38 0.21 0.05 0.00 0.06 0.14 0.09 0.07 0.09 0.07 0.06 0.08 0.01 0.00 0.03 0.08 0.01 0.00 0.00 0.00 0.00 0.00 0.00 0.00 0.00
0.07 0.06 0.08 0.12 0.12 0.11 0.22 0.27 0.24 0.29 0.33 0.23 0.11 0.04 0.18 0.11 0.02 0.01 0.02 0.04 0.24 0.35 0.36 0.22 0.14 0.02 0.06 0.17 0.13 0.08 0.01 0.00 0.00 0.01 0.01 0.01 0.04 0.10 0.06 0.00 0.00 0.00 0.00 0.00 0.00 0.00 0.00
0.06 0.06 0.07 0.11 0.11 0.13 0.16 0.21 0.24 0.22 0.39 0.29 0.12 0.07 0.13 0.09 0.03 0.00 0.00 0.00 0.14 0.31 0.37 0.30 0.28 0.14 0.10 0.19 0.12 0.04 0.01 0.00 0.00 0.00 0.00 0.00 0.01 0.02 0.03 0.02 0.00 0.00 0.00 0.00 0.00 0.00 0.00
0.07 0.05 0.06 0.11 0.10 0.13 0.14 0.16 0.20 0.17 0.26 0.33 0.10 0.09 0.16 0.09 0.02 0.01 0.00 0.00 0.03 0.17 0.36 0.30 0.23 0.07 0.08 0.09 0.07 0.04 0.01 0.00 0.00 0.00 0.00 0.00 0.00 0.00 0.00 0.00 0.00 0.00 0.00 0.00 0.00 0.00 0.00

GFSGBSN_prec_precacc12_027.txt.gz
Total_Precipitation_Accumulation
0.07 0.08 0.08 0.09 0.08 0.07 0.05 0.04 0.03 0.02 0.02 0.03 0.02 0.00 0.00 0.00 0.00 0.00 0.00 0.00 0.00 0.00 0.00 0.00 0.00 0.00 0.00 0.01 0.00 0.00 0.00 0.00 0.00 0.00 0.00 0.00 0.00 0.00 0.00 0.00 0.00 0.00 0.00 0.00 0.00 0.00 0.00
0.06 0.06 0.05 0.07 0.09 0.10 0.10 0.07 0.04 0.03 0.02 0.02 0.02 0.01 0.00 0.00 0.00 0.00 0.00 0.00 0.00 0.00 0.00 0.00 0.01 0.02 0.01 0.01 0.00 0.00 0.00 0.00 0.00 0.00 0.00 0.01 0.00 0.00 0.00 0.00 0.00 0.00 0.00 0.00 0.00 0.00 0.00
0.05 0.06 0.05 0.06 0.09 0.12 0.12 0.12 0.09 0.04 0.03 0.03 0.04 0.03 0.01 0.00 0.00 0.00 0.00 0.00 0.00 0.00 0.00 0.00 0.01 0.01 0.02 0.00 0.00 0.00 0.00 0.00 0.00 0.00 0.00 0.00 0.00 0.04 0.02 0.01 0.00 0.00 0.01 0.00 0.00 0.00 0.00
0.05 0.06 0.06 0.07 0.09 0.10 0.10 0.11 0.12 0.07 0.03 0.04 0.03 0.03 0.02 0.01 0.00 0.00 0.01 0.01 0.01 0.00 0.00 0.00 0.00 0.02 0.02 0.00 0.00 0.00 0.00 0.00 0.00 0.00 0.00 0.00 0.00 0.00 0.01 0.02 0.01 0.02 0.02 0.00 0.00 0.00 0.00
0.04 0.04 0.05 0.05 0.06 0.07 0.08 0.08 0.07 0.08 0.08 0.05 0.05 0.05 0.04 0.02 0.01 0.02 0.01 0.01 0.02 0.02 0.02 0.01 0.00 0.01 0.01 0.00 0.00 0.00 0.00 0.00 0.00 0.00 0.00 0.00 0.00 0.01 0.01 0.03 0.04 0.03 0.01 0.00 0.00 0.00 0.00
0.04 0.04 0.05 0.05 0.05 0.05 0.06 0.06 0.08 0.10 0.13 0.13 0.10 0.09 0.07 0.03 0.02 0.03 0.04 0.02 0.02 0.04 0.04 0.05 0.01 0.02 0.00 0.00 0.00 0.00 0.00 0.00 0.00 0.00 0.00 0.00 0.01 0.02 0.02 0.04 0.05 0.00 0.00 0.00 0.00 0.00 0.00
0.04 0.04 0.04 0.05 0.05 0.06 0.06 0.08 0.09 0.09 0.10 0.13 0.11 0.10 0.11 0.08 0.04 0.04 0.02 0.01 0.00 0.01 0.05 0.01 0.01 0.00 0.00 0.00 0.00 0.00 0.00 0.00 0.00 0.00 0.00 0.00 0.02 0.01 0.00 0.00 0.01 0.01 0.02 0.01 0.00 0.00 0.00
0.07 0.10 0.10 0.09 0.09 0.12 0.14 0.13 0.12 0.11 0.12 0.11 0.12 0.10 0.09 0.08 0.06 0.07 0.02 0.01 0.00 0.00 0.01 0.00 0.00 0.00 0.00 0.00 0.00 0.00 0.00 0.00 0.00 0.00 0.00 0.03 0.03 0.00 0.00 0.00 0.03 0.02 0.04 0.04 0.01 0.00 0.01
0.09 0.09 0.09 0.09 0.12 0.15 0.17 0.16 0.15 0.15 0.16 0.17 0.18 0.16 0.15 0.14 0.10 0.06 0.02 0.00 0.00 0.02 0.13 0.06 0.00 0.00 0.00 0.01 0.01 0.00 0.00 0.00 0.00 0.00 0.01 0.02 0.01 0.01 0.01 0.00 0.03 0.11 0.04 0.03 0.03 0.01 0.01
0.12 0.17 0.20 0.19 0.15 0.14 0.16 0.19 0.27 0.32 0.31 0.35 0.31 0.26 0.16 0.16 0.08 0.00 0.01 0.00 0.02 0.12 0.29 0.05 0.00 0.01 0.01 0.05 0.05 0.00 0.00 0.00 0.02 0.01 0.02 0.05 0.01 0.07 0.06 0.02 0.02 0.10 0.07 0.01 0.05 0.09 0.07
0.10 0.25 0.29 0.25 0.26 0.27 0.23 0.19 0.18 0.28 0.39 0.41 0.46 0.41 0.20 0.10 0.03 0.02 0.00 0.00 0.02 0.19 0.20 0.01 0.00 0.00 0.01 0.05 0.05 0.01 0.00 0.10 0.08 0.03 0.08 0.09 0.00 0.04 0.08 0.02 0.02 0.08 0.10 0.03 0.08 0.15 0.16
0.06 0.16 0.20 0.25 0.30 0.31 0.28 0.23 0.22 0.21 0.27 0.38 0.46 0.50 0.37 0.15 0.03 0.01 0.00 0.02 0.05 0.12 0.08 0.00 0.00 0.01 0.04 0.03 0.04 0.04 0.01 0.07 0.16 0.30 0.29 0.06 0.02 0.06 0.02 0.02 0.03 0.11 0.18 0.17 0.12 0.34 0.34
0.07 0.12 0.22 0.30 0.29 0.29 0.28 0.28 0.28 0.26 0.23 0.30 0.46 0.51 0.64 0.16 0.03 0.00 0.00 0.03 0.11 0.09 0.01 0.04 0.02 0.03 0.03 0.04 0.04 0.07 0.13 0.14 0.32 0.39 0.40 0.27 0.10 0.03 0.04 0.15 0.13 0.34 0.52 0.63 0.43 0.42 0.38
0.10 0.18 0.21 0.25 0.26 0.28 0.39 0.38 0.37 0.42 0.30 0.36 0.49 0.72 0.78 0.31 0.08 0.02 0.01 0.06 0.12 0.01 0.02 0.05 0.06 0.06 0.08 0.03 0.05 0.04 0.18 0.18 0.09 0.19 0.31 0.21 0.14 0.06 0.09 0.31 0.38 0.43 0.70 0.65 0.28 0.14 0.12
0.13 0.19 0.27 0.31 0.34 0.39 0.45 0.46 0.33 0.31 0.28 0.42 0.62 1.02 1.49 0.37 0.25 0.09 0.08 0.16 0.06 0.07 0.07 0.08 0.16 0.13 0.05 0.02 0.02 0.03 0.07 0.07 0.01 0.03 0.25 0.21 0.09 0.04 0.04 0.22 0.40 0.41 0.69 0.39 0.31 0.11 0.10
0.14 0.19 0.32 0.44 0.48 0.58 0.62 0.49 0.49 0.38 0.26 0.39 0.92 1.22 1.47 0.40 0.34 0.43 0.44 0.14 0.04 0.07 0.12 0.15 0.13 0.06 0.02 0.00 0.03 0.03 0.01 0.00 0.00 0.00 0.06 0.15 0.18 0.13 0.24 0.36 0.47 0.48 0.32 0.42 0.69 0.36 0.15
0.13 0.14 0.27 0.49 0.57 0.70 0.76 0.62 0.64 0.63 0.37 0.48 0.82 1.52 1.00 0.56 0.81 0.91 0.48 0.10 0.07 0.08 0.16 0.20 0.09 0.09 0.04 0.00 0.00 0.00 0.01 0.00 0.00 0.00 0.03 0.24 0.30 0.20 0.53 0.64 0.41 0.61 0.70 0.39 0.34 0.21 0.25
0.08 0.12 0.22 0.47 0.59 0.62 0.78 0.62 0.47 0.65 0.56 0.63 0.95 1.02 0.85 0.94 1.39 0.74 0.17 0.13 0.12 0.11 0.16 0.22 0.15 0.05 0.04 0.02 0.00 0.00 0.00 0.00 0.00 0.00 0.07 0.31 0.56 0.44 0.25 0.29 0.08 0.32 0.33 0.26 0.39 0.19 0.20
0.05 0.11 0.22 0.37 0.51 0.61 0.74 0.69 0.47 0.53 0.78 1.06 1.04 0.99 1.12 0.62 0.60 0.23 0.10 0.14 0.17 0.16 0.22 0.26 0.10 0.02 0.01 0.03 0.02 0.00 0.00 0.00 0.00 0.00 0.10 0.41 0.82 0.58 0.25 0.65 0.30 0.41 0.33 0.44 0.54 0.31 0.26
0.04 0.07 0.15 0.22 0.33 0.47 0.63 0.53 0.46 0.52 0.70 0.92 0.91 0.94 1.41 0.95 0.25 0.05 0.13 0.16 0.18 0.14 0.21 0.22 0.11 0.04 0.03 0.02 0.01 0.00 0.00 0.00 0.00 0.00 0.06 0.38 0.47 0.53 0.30 0.50 0.36 0.09 0.15 0.40 0.65 0.48 0.17
0.05 0.07 0.10 0.16 0.29 0.36 0.43 0.56 0.59 0.60 0.59 0.79 0.58 0.37 0.34 0.31 0.12 0.04 0.16 0.17 0.23 0.22 0.18 0.17 0.10 0.05 0.02 0.01 0.00 0.00 0.00 0.00 0.00 0.00 0.07 0.38 0.62 0.75 0.33 0.09 0.27 0.20 0.13 0.25 0.42 0.36 0.27
0.06 0.06 0.07 0.15 0.23 0.23 0.30 0.58 0.67 0.89 1.14 0.73 0.47 0.13 0.06 0.02 0.01 0.03 0.18 0.20 0.28 0.27 0.23 0.13 0.05 0.01 0.01 0.00 0.00 0.00 0.00 0.00 0.00 0.00 0.05 0.27 0.72 0.83 0.49 0.10 0.05 0.23 0.37 0.34 0.34 0.35 0.40
0.05 0.06 0.07 0.10 0.18 0.16 0.22 0.51 0.80 1.06 1.42 0.82 0.37 0.07 0.04 0.05 0.02 0.03 0.10 0.21 0.21 0.22 0.10 0.05 0.06 0.04 0.03 0.01 0.00 0.00 0.00 0.00 0.03 0.01 0.06 0.14 0.39 0.56 0.37 0.18 0.12 0.35 0.38 0.40 0.28 0.25 0.32
0.04 0.07 0.07 0.07 0.11 0.09 0.13 0.31 0.48 0.64 0.87 0.72 0.26 0.12 0.14 0.08 0.02 0.02 0.07 0.18 0.19 0.22 0.17 0.05 0.08 0.04 0.04 0.02 0.02 0.02 0.07 0.02 0.03 0.06 0.02 0.05 0.10 0.21 0.26 0.21 0.20 0.17 0.20 0.22 0.25 0.23 0.26
0.05 0.07 0.07 0.06 0.10 0.05 0.11 0.31 0.47 0.55 0.75 0.48 0.21 0.12 0.12 0.08 0.03 0.02 0.07 0.20 0.26 0.30 0.33 0.17 0.05 0.02 0.02 0.04 0.11 0.09 0.10 0.11 0.06 0.01 0.01 0.00 0.01 0.03 0.02 0.00 0.01 0.00 0.01 0.04 0.03 0.04 0.04
0.06 0.06 0.06 0.06 0.07 0.05 0.11 0.27 0.42 0.49 0.45 0.32 0.32 0.12 0.11 0.10 0.06 0.02 0.04 0.11 0.24 0.31 0.36 0.24 0.09 0.01 0.06 0.14 0.12 0.08 0.06 0.04 0.05 0.03 0.00 0.00 0.01 0.03 0.01 0.00 0.00 0.00 0.00 0.00 0.00 0.00 0.00
0.07 0.06 0.04 0.05 0.06 0.05 0.09 0.21 0.24 0.31 0.37 0.29 0.34 0.12 0.17 0.11 0.03 0.01 0.02 0.04 0.18 0.33 0.40 0.29 0.20 0.03 0.06 0.25 0.18 0.09 0.01 0.00 0.00 0.01 0.00 0.00 0.02 0.01 0.00 0.00 0.00 0.00 0.00 0.00 0.00 0.00 0.00
0.07 0.06 0.04 0.04 0.05 0.05 0.07 0.18 0.24 0.24 0.42 0.33 0.25 0.15 0.16 0.12 0.03 0.00 0.00 0.01 0.10 0.26 0.39 0.36 0.33 0.14 0.09 0.22 0.19 0.06 0.01 0.00 0.00 0.00 0.00 0.00 0.01 0.01 0.02 0.02 0.00 0.00 0.00 0.00 0.00 0.00 0.00
0.06 0.04 0.02 0.03 0.04 0.05 0.05 0.13 0.20 0.17 0.31 0.40 0.22 0.16 0.17 0.12 0.03 0.01 0.01 0.01 0.03 0.18 0.34 0.33 0.28 0.07 0.06 0.06 0.06 0.02 0.00 0.00 0.00 0.00 0.00 0.00 0.00 0.00 0.00 0.00 0.00 0.00 0.00 0.00 0.00 0.00 0.00

GFSGBSN_prec_precacc12_030.txt.gz
Total_Precipitation_Accumulation
0.07 0.07 0.08 0.09 0.08 0.07 0.08 0.08 0.08 0.06 0.05 0.05 0.06 0.04 0.01 0.00 0.00 0.00 0.00 0.00 0.00 0.00 0.00 0.00 0.00 0.00 0.00 0.01 0.00 0.00 0.00 0.00 0.00 0.01 0.01 0.00 0.00 0.00 0.00 0.00 0.00 0.00 0.00 0.00 0.00 0.00 0.00
0.06 0.05 0.05 0.07 0.08 0.10 0.10 0.09 0.10 0.11 0.10 0.05 0.05 0.05 0.03 0.01 0.00 0.00 0.00 0.00 0.00 0.00 0.00 0.00 0.00 0.02 0.01 0.00 0.00 0.00 0.00 0.00 0.00 0.00 0.01 0.02 0.01 0.00 0.00 0.00 0.00 0.00 0.00 0.00 0.00 0.00 0.00
0.05 0.06 0.05 0.06 0.09 0.11 0.12 0.12 0.13 0.15 0.12 0.10 0.07 0.06 0.05 0.03 0.00 0.00 0.00 0.00 0.00 0.00 0.00 0.00 0.01 0.01 0.01 0.00 0.00 0.00 0.00 0.00 0.00 0.00 0.00 0.01 0.02 0.04 0.02 0.00 0.00 0.00 0.00 0.00 0.00 0.00 0.00
0.05 0.06 0.06 0.07 0.09 0.10 0.09 0.11 0.12 0.11 0.11 0.15 0.13 0.07 0.06 0.05 0.02 0.00 0.01 0.01 0.01 0.01 0.00 0.00 0.00 0.01 0.01 0.00 0.00 0.00 0.00 0.00 0.00 0.00 0.00 0.00 0.00 0.01 0.00 0.00 0.00 0.01 0.00 0.00 0.00 0.00 0.00
0.04 0.04 0.04 0.05 0.05 0.06 0.08 0.07 0.07 0.08 0.12 0.16 0.17 0.12 0.09 0.09 0.05 0.03 0.01 0.03 0.02 0.00 0.02 0.02 0.00 0.01 0.00 0.00 0.00 0.00 0.00 0.00 0.00 0.00 0.00 0.00 0.00 0.00 0.00 0.02 0.01 0.01 0.00 0.00 0.00 0.00 0.00
0.03 0.04 0.04 0.04 0.04 0.05 0.06 0.07 0.07 0.09 0.14 0.17 0.19 0.17 0.12 0.10 0.07 0.05 0.06 0.05 0.02 0.00 0.03 0.07 0.01 0.01 0.00 0.00 0.00 0.00 0.00 0.00 0.00 0.00 0.00 0.00 0.00 0.00 0.00 0.02 0.01 0.00 0.00 0.00 0.00 0.00 0.00
0.01 0.03 0.04 0.04 0.04 0.05 0.06 0.09 0.10 0.09 0.09 0.12 0.15 0.17 0.17 0.15 0.11 0.06 0.03 0.01 0.00 0.00 0.03 0.01 0.01 0.00 0.00 0.00 0.00 0.00 0.00 0.00 0.00 0.00 0.00 0.00 0.00 0.00 0.00 0.00 0.00 0.00 0.00 0.00 0.00 0.00 0.00
0.01 0.03 0.07 0.09 0.09 0.12 0.14 0.14 0.14 0.12 0.11 0.11 0.13 0.18 0.18 0.18 0.13 0.09 0.01 0.00 0.00 0.00 0.00 0.00 0.00 0.00 0.00 0.00 0.00 0.00 0.00 0.00 0.00 0.00 0.00 0.00 0.01 0.00 0.00 0.00 0.00 0.00 0.00 0.00 0.00 0.00 0.01
0.02 0.03 0.05 0.08 0.12 0.15 0.18 0.18 0.17 0.16 0.17 0.17 0.18 0.20 0.26 0.31 0.25 0.18 0.02 0.00 0.00 0.00 0.02 0.02 0.00 0.00 0.00 0.01 0.01 0.00 0.00 0.00 0.00 0.00 0.00 0.00 0.00 0.00 0.00 0.00 0.00 0.00 0.00 0.00 0.00 0.00 0.01
0.01 0.03 0.04 0.06 0.12 0.13 0.16 0.21 0.28 0.34 0.33 0.35 0.31 0.33 0.33 0.37 0.48 0.17 0.08 0.00 0.00 0.01 0.05 0.01 0.00 0.01 0.01 0.02 0.02 0.00 0.00 0.00 0.02 0.00 0.01 0.03 0.00 0.00 0.00 0.00 0.00 0.00 0.00 0.00 0.01 0.05 0.06
0.02 0.04 0.04 0.06 0.18 0.24 0.23 0.21 0.21 0.31 0.40 0.41 0.46 0.47 0.49 0.49 0.48 0.13 0.03 0.01 0.00 0.03 0.03 0.00 0.00 0.00 0.02 0.02 0.01 0.00 0.00 0.06 0.07 0.01 0.04 0.06 0.00 0.00 0.00 0.00 0.00 0.00 0.00 0.00 0.01 0.06 0.13
0.03 0.06 0.08 0.10 0.15 0.23 0.27 0.27 0.24 0.20 0.25 0.38 0.46 0.55 0.69 0.72 0.43 0.08 0.00 0.00 0.00 0.02 0.01 0.00 0.00 0.01 0.02 0.02 0.01 0.01 0.01 0.05 0.13 0.26 0.25 0.03 0.00 0.01 0.00 0.00 0.00 0.01 0.03 0.04 0.06 0.31 0.33
0.05 0.10 0.11 0.12 0.12 0.16 0.25 0.29 0.30 0.31 0.26 0.30 0.45 0.52 0.93 0.79 0.36 0.06 0.04 0.00 0.03 0.03 0.00 0.00 0.00 0.01 0.00 0.01 0.02 0.02 0.08 0.12 0.29 0.38 0.39 0.22 0.05 0.00 0.01 0.04 0.02 0.05 0.18 0.35 0.31 0.41 0.38
0.07 0.10 0.12 0.12 0.14 0.15 0.33 0.37 0.49 0.50 0.38 0.42 0.52 0.76 0.99 0.93 0.41 0.08 0.04 0.01 0.02 0.00 0.00 0.00 0.00 0.01 0.01 0.01 0.03 0.03 0.14 0.14 0.06 0.19 0.24 0.17 0.10 0.03 0.01 0.02 0.05 0.04 0.15 0.48 0.25 0.13 0.11
0.10 0.11 0.13 0.15 0.20 0.27 0.41 0.49 0.44 0.42 0.33 0.51 0.66 1.15 1.79 1.09 0.69 0.19 0.08 0.09 0.00 0.00 0.01 0.02 0.06 0.06 0.02 0.01 0.02 0.03 0.05 0.05 0.00 0.03 0.11 0.07 0.04 0.01 0.00 0.00 0.09 0.20 0.32 0.33 0.38 0.18 0.16
0.10 0.11 0.12 0.17 0.26 0.45 0.56 0.51 0.61 0.51 0.36 0.46 0.91 1.22 1.76 1.08 0.56 0.48 0.37 0.07 0.00 0.01 0.03 0.08 0.06 0.04 0.01 0.00 0.01 0.02 0.00 0.00 0.00 0.00 0.00 0.02 0.09 0.05 0.14 0.14 0.10 0.25 0.15 0.42 0.86 0.46 0.17
0.08 0.09 0.12 0.21 0.29 0.58 0.71 0.60 0.65 0.83 0.69 0.58 0.83 1.52 1.11 1.14 0.97 0.98 0.45 0.03 0.00 0.02 0.07 0.11 0.05 0.08 0.03 0.00 0.00 0.00 0.00 0.00 0.00 0.00 0.00 0.03 0.09 0.06 0.27 0.33 0.16 0.26 0.53 0.38 0.35 0.21 0.24
0.05 0.08 0.11 0.24 0.33 0.52 0.71 0.59 0.46 0.80 0.77 0.73 0.92 1.01 1.02 1.38 1.80 0.95 0.17 0.00 0.01 0.05 0.10 0.12 0.09 0.05 0.04 0.02 0.00 0.00 0.00 0.00 0.00 0.00 0.00 0.04 0.23 0.17 0.11 0.11 0.06 0.16 0.29 0.26 0.39 0.19 0.19
0.05 0.07 0.09 0.16 0.30 0.49 0.66 0.58 0.38 0.61 1.08 1.34 1.02 0.98 1.42 0.85 0.79 0.33 0.05 0.00 0.05 0.10 0.17 0.20 0.08 0.03 0.02 0.04 0.03 0.00 0.00 0.00 0.00 0.00 0.03 0.20 0.42 0.30 0.16 0.44 0.28 0.39 0.31 0.46 0.57 0.36 0.29
0.06 0.06 0.06 0.08 0.21 0.36 0.52 0.35 0.28 0.53 0.82 1.04 0.96 1.08 2.01 1.36 0.36 0.03 0.03 0.04 0.08 0.11 0.19 0.22 0.11 0.05 0.05 0.04 0.01 0.00 0.00 0.00 0.00 0.00 0.03 0.26 0.34 0.24 0.24 0.51 0.52 0.23 0.20 0.47 0.78 0.64 0.21
0.06 0.06 0.06 0.08 0.17 0.23 0.32 0.26 0.35 0.63 0.64 0.80 0.74 0.48 0.50 0.49 0.25 0.01 0.02 0.06 0.11 0.17 0.18 0.18 0.11 0.05 0.04 0.03 0.01 0.00 0.00 0.00 0.00 0.00 0.06 0.34 0.57 0.62 0.30 0.11 0.40 0.36 0.22 0.34 0.52 0.41 0.34
0.06 0.06 0.06 0.08 0.11 0.16 0.19 0.22 0.38 0.91 1.18 0.74 0.61 0.26 0.08 0.02 0.02 0.03 0.04 0.04 0.14 0.18 0.22 0.13 0.06 0.03 0.05 0.02 0.00 0.00 0.00 0.00 0.00 0.01 0.06 0.31 0.81 0.91 0.56 0.19 0.14 0.30 0.40 0.39 0.39 0.36 0.43
0.06 0.05 0.07 0.06 0.07 0.09 0.11 0.18 0.47 1.05 1.49 1.00 0.63 0.16 0.08 0.08 0.03 0.04 0.03 0.04 0.09 0.14 0.07 0.05 0.06 0.08 0.06 0.01 0.00 0.00 0.00 0.00 0.03 0.04 0.16 0.25 0.46 0.68 0.42 0.32 0.24 0.50 0.47 0.43 0.29 0.26 0.33
0.05 0.07 0.08 0.03 0.04 0.05 0.05 0.11 0.34 0.62 0.94 0.85 0.48 0.25 0.14 0.09 0.03 0.03 0.04 0.08 0.08 0.13 0.11 0.05 0.08 0.05 0.03 0.02 0.02 0.02 0.06 0.02 0.03 0.07 0.07 0.09 0.19 0.41 0.36 0.40 0.46 0.36 0.41 0.32 0.34 0.32 0.29
0.07 0.08 0.08 0.03 0.03 0.03 0.03 0.09 0.32 0.54 0.79 0.51 0.26 0.17 0.13 0.07 0.02 0.03 0.06 0.08 0.14 0.22 0.25 0.12 0.04 0.02 0.03 0.05 0.09 0.07 0.09 0.09 0.05 0.01 0.01 0.00 0.08 0.14 0.10 0.06 0.09 0.01 0.04 0.16 0.17 0.19 0.10
0.07 0.08 0.06 0.02 0.03 0.03 0.03 0.09 0.24 0.42 0.45 0.32 0.33 0.11 0.04 0.07 0.05 0.02 0.03 0.05 0.17 0.27 0.32 0.23 0.10 0.04 0.06 0.15 0.13 0.08 0.03 0.02 0.04 0.01 0.00 0.00 0.03 0.10 0.02 0.01 0.00 0.00 0.00 0.00 0.00 0.00 0.00
0.08 0.08 0.05 0.02 0.02 0.03 0.03 0.06 0.16 0.30 0.37 0.28 0.39 0.20 0.10 0.06 0.02 0.01 0.02 0.04 0.12 0.30 0.38 0.29 0.23 0.08 0.06 0.20 0.16 0.09 0.01 0.00 0.00 0.00 0.00 0.00 0.01 0.03 0.01 0.00 0.00 0.00 0.00 0.00 0.00 0.00 0.00
0.08 0.07 0.04 0.02 0.02 0.03 0.02 0.03 0.13 0.22 0.41 0.31 0.28 0.16 0.13 0.09 0.02 0.00 0.00 0.01 0.06 0.21 0.40 0.38 0.40 0.23 0.11 0.15 0.15 0.06 0.01 0.00 0.00 0.00 0.00 0.00 0.00 0.00 0.00 0.00 0.00 0.00 0.00 0.00 0.00 0.00 0.00
0.07 0.05 0.02 0.02 0.02 0.02 0.02 0.03 0.12 0.16 0.30 0.39 0.23 0.20 0.15 0.15 0.04 0.01 0.01 0.01 0.02 0.14 0.33 0.34 0.31 0.12 0.07 0.04 0.05 0.03 0.00 0.00 0.00 0.00 0.00 0.00 0.00 0.00 0.00 0.00 0.00 0.00 0.00 0.00 0.00 0.00 0.00

GFSGBSN_prec_precacc12_033.txt.gz
Total_Precipitation_Accumulation
0.07 0.07 0.08 0.09 0.07 0.06 0.07 0.08 0.07 0.07 0.09 0.10 0.10 0.09 0.07 0.06 0.02 0.00 0.00 0.00 0.00 0.00 0.00 0.00 0.00 0.00 0.00 0.00 0.00 0.00 0.00 0.00 0.00 0.02 0.02 0.00 0.00 0.00 0.00 0.00 0.00 0.00 0.00 0.00 0.00 0.00 0.00
0.06 0.05 0.05 0.06 0.08 0.10 0.09 0.08 0.09 0.11 0.13 0.10 0.11 0.09 0.07 0.06 0.05 0.01 0.00 0.00 0.00 0.00 0.00 0.00 0.00 0.01 0.00 0.00 0.00 0.00 0.00 0.00 0.00 0.00 0.01 0.02 0.00 0.00 0.00 0.00 0.00 0.00 0.00 0.00 0.00 0.00 0.00
0.02 0.05 0.05 0.06 0.08 0.11 0.11 0.11 0.12 0.14 0.12 0.12 0.12 0.12 0.09 0.07 0.06 0.02 0.00 0.00 0.00 0.00 0.00 0.00 0.00 0.00 0.00 0.00 0.00 0.00 0.00 0.00 0.00 0.00 0.00 0.01 0.02 0.04 0.02 0.00 0.00 0.00 0.00 0.00 0.00 0.00 0.00
0.01 0.01 0.03 0.06 0.09 0.09 0.09 0.10 0.11 0.10 0.11 0.15 0.16 0.14 0.11 0.10 0.08 0.06 0.02 0.01 0.02 0.01 0.00 0.00 0.00 0.00 0.00 0.00 0.00 0.00 0.00 0.00 0.00 0.00 0.00 0.00 0.01 0.01 0.00 0.00 0.00 0.00 0.00 0.00 0.00 0.00 0.00
0.00 0.01 0.01 0.02 0.05 0.06 0.07 0.07 0.07 0.08 0.12 0.16 0.18 0.17 0.17 0.16 0.13 0.11 0.06 0.04 0.04 0.03 0.01 0.03 0.00 0.00 0.00 0.00 0.00 0.00 0.00 0.00 0.00 0.00 0.00 0.00 0.00 0.00 0.00 0.01 0.01 0.00 0.00 0.00 0.00 0.00 0.00
0.00 0.00 0.00 0.01 0.03 0.05 0.06 0.06 0.07 0.09 0.13 0.16 0.18 0.18 0.17 0.16 0.15 0.12 0.12 0.08 0.04 0.00 0.02 0.08 0.02 0.00 0.00 0.00 0.00 0.00 0.00 0.00 0.00 0.00 0.00 0.00 0.00 0.00 0.00 0.01 0.01 0.00 0.00 0.00 0.00 0.00 0.00
0.01 0.01 0.01 0.01 0.02 0.02 0.05 0.08 0.10 0.10 0.09 0.11 0.15 0.17 0.21 0.21 0.23 0.20 0.16 0.03 0.00 0.00 0.02 0.01 0.01 0.00 0.00 0.00 0.00 0.00 0.00 0.00 0.00 0.00 0.00 0.00 0.00 0.00 0.00 0.00 0.00 0.00 0.00 0.00 0.00 0.00 0.00
0.01 0.02 0.02 0.02 0.02 0.03 0.09 0.12 0.13 0.13 0.12 0.11 0.13 0.20 0.20 0.22 0.23 0.42 0.14 0.01 0.00 0.00 0.00 0.00 0.00 0.00 0.00 0.00 0.00 0.00 0.00 0.00 0.00 0.00 0.00 0.00 0.00 0.00 0.00 0.00 0.00 0.00 0.00 0.00 0.00 0.00 0.00
0.01 0.02 0.04 0.03 0.03 0.03 0.06 0.13 0.16 0.18 0.18 0.18 0.16 0.19 0.26 0.33 0.40 0.72 0.18 0.01 0.00 0.00 0.00 0.00 0.00 0.00 0.00 0.01 0.01 0.00 0.00 0.00 0.00 0.00 0.00 0.00 0.00 0.00 0.00 0.00 0.00 0.00 0.00 0.00 0.00 0.00 0.00
0.01 0.02 0.03 0.03 0.04 0.05 0.09 0.15 0.27 0.37 0.36 0.34 0.28 0.31 0.32 0.44 0.78 0.62 0.33 0.03 0.00 0.00 0.00 0.00 0.00 0.00 0.01 0.03 0.01 0.00 0.00 0.00 0.01 0.00 0.01 0.03 0.00 0.00 0.00 0.00 0.00 0.00 0.00 0.00 0.01 0.01 0.00
0.02 0.03 0.03 0.04 0.08 0.10 0.13 0.15 0.20 0.31 0.36 0.37 0.41 0.44 0.49 0.58 0.92 0.51 0.32 0.08 0.00 0.00 0.00 0.00 0.00 0.01 0.02 0.02 0.00 0.00 0.00 0.01 0.02 0.00 0.03 0.05 0.00 0.00 0.00 0.00 0.00 0.00 0.00 0.00 0.01 0.01 0.02
0.03 0.05 0.07 0.08 0.10 0.15 0.13 0.14 0.15 0.18 0.31 0.42 0.45 0.53 0.68 0.75 0.78 0.55 0.18 0.07 0.01 0.00 0.00 0.00 0.00 0.01 0.03 0.02 0.02 0.01 0.01 0.03 0.07 0.16 0.17 0.02 0.00 0.00 0.00 0.00 0.00 0.01 0.02 0.02 0.04 0.08 0.10
0.04 0.07 0.09 0.10 0.11 0.13 0.12 0.13 0.14 0.38 0.46 0.39 0.47 0.51 0.90 0.81 0.61 0.55 0.30 0.17 0.04 0.01 0.00 0.00 0.00 0.01 0.01 0.01 0.01 0.01 0.03 0.09 0.16 0.22 0.31 0.21 0.05 0.00 0.00 0.01 0.00 0.04 0.16 0.18 0.17 0.17 0.04
0.05 0.08 0.09 0.09 0.11 0.10 0.20 0.23 0.39 0.52 0.48 0.47 0.60 0.75 0.96 0.94 0.71 0.54 0.40 0.12 0.02 0.00 0.00 0.00 0.00 0.00 0.00 0.00 0.01 0.01 0.04 0.05 0.05 0.17 0.24 0.16 0.10 0.03 0.01 0.00 0.01 0.01 0.07 0.21 0.07 0.00 0.00
0.07 0.09 0.08 0.09 0.13 0.14 0.24 0.34 0.35 0.39 0.38 0.54 0.59 1.13 1.62 1.07 0.98 0.77 0.43 0.19 0.00 0.00 0.00 0.00 0.00 0.01 0.01 0.00 0.01 0.02 0.03 0.01 0.00 0.03 0.11 0.06 0.02 0.00 0.00 0.00 0.04 0.11 0.21 0.13 0.17 0.15 0.16
0.07 0.07 0.07 0.10 0.13 0.24 0.37 0.37 0.52 0.50 0.59 0.62 0.79 1.18 1.65 1.10 0.79 1.03 0.51 0.10 0.00 0.00 0.00 0.01 0.01 0.01 0.00 0.00 0.01 0.01 0.00 0.00 0.00 0.00 0.00 0.00 0.01 0.00 0.01 0.12 0.09 0.05 0.06 0.11 0.43 0.30 0.13
0.05 0.07 0.07 0.08 0.08 0.28 0.44 0.44 0.51 0.77 0.82 0.60 0.75 1.46 1.09 1.35 1.06 1.36 0.62 0.05 0.00 0.00 0.00 0.02 0.02 0.04 0.02 0.00 0.00 0.00 0.00 0.00 0.00 0.00 0.00 0.00 0.02 0.01 0.06 0.23 0.13 0.07 0.23 0.15 0.10 0.08 0.21
0.05 0.08 0.08 0.06 0.08 0.26 0.42 0.38 0.33 0.74 0.69 0.68 0.84 0.98 1.06 1.58 1.96 1.18 0.25 0.00 0.00 0.00 0.02 0.05 0.04 0.03 0.02 0.01 0.00 0.00 0.00 0.00 0.00 0.00 0.00 0.00 0.10 0.07 0.02 0.04 0.06 0.07 0.07 0.08 0.11 0.10 0.18
0.07 0.07 0.07 0.06 0.08 0.25 0.35 0.37 0.30 0.52 0.93 1.43 1.00 0.94 1.40 0.93 0.79 0.40 0.08 0.00 0.00 0.01 0.06 0.11 0.06 0.02 0.01 0.03 0.03 0.00 0.00 0.00 0.00 0.00 0.02 0.10 0.26 0.15 0.09 0.26 0.23 0.28 0.11 0.25 0.27 0.45 0.40
0.08 0.07 0.07 0.05 0.06 0.13 0.23 0.21 0.18 0.31 0.58 1.08 0.94 1.03 2.27 1.40 0.33 0.04 0.02 0.02 0.00 0.03 0.08 0.15 0.10 0.05 0.05 0.04 0.02 0.00 0.00 0.00 0.00 0.00 0.02 0.14 0.16 0.07 0.16 0.43 0.50 0.34 0.11 0.31 0.85 0.86 0.26
0.08 0.07 0.07 0.07 0.06 0.06 0.11 0.15 0.16 0.29 0.56 0.84 0.72 0.43 0.56 0.52 0.25 0.00 0.01 0.03 0.01 0.04 0.10 0.16 0.10 0.05 0.05 0.05 0.02 0.01 0.00 0.00 0.00 0.00 0.04 0.21 0.27 0.29 0.17 0.12 0.44 0.43 0.29 0.43 0.73 0.51 0.50
0.07 0.07 0.07 0.07 0.05 0.05 0.07 0.10 0.15 0.41 1.01 0.75 0.58 0.25 0.06 0.01 0.02 0.02 0.02 0.01 0.01 0.05 0.13 0.11 0.06 0.03 0.06 0.03 0.01 0.00 0.00 0.00 0.00 0.01 0.06 0.29 0.67 0.75 0.52 0.20 0.23 0.49 0.49 0.57 0.54 0.46 0.55
0.07 0.06 0.09 0.07 0.03 0.03 0.04 0.08 0.18 0.44 1.09 0.92 0.65 0.26 0.10 0.07 0.03 0.04 0.03 0.01 0.01 0.04 0.03 0.04 0.06 0.08 0.07 0.01 0.00 0.00 0.00 0.00 0.00 0.04 0.16 0.28 0.48 0.72 0.44 0.34 0.35 0.69 0.61 0.51 0.33 0.32 0.40
0.06 0.08 0.10 0.05 0.01 0.01 0.03 0.06 0.14 0.35 0.80 0.91 0.63 0.40 0.20 0.12 0.04 0.02 0.03 0.05 0.03 0.03 0.05 0.05 0.08 0.05 0.02 0.00 0.01 0.01 0.01 0.01 0.00 0.03 0.07 0.10 0.26 0.51 0.41 0.49 0.71 0.51 0.47 0.35 0.35 0.33 0.30
0.08 0.09 0.09 0.04 0.01 0.01 0.02 0.04 0.09 0.22 0.53 0.47 0.39 0.31 0.16 0.06 0.02 0.03 0.05 0.08 0.09 0.12 0.15 0.11 0.05 0.04 0.05 0.06 0.07 0.05 0.04 0.06 0.04 0.00 0.01 0.00 0.10 0.20 0.16 0.14 0.15 0.01 0.04 0.17 0.17 0.19 0.10
0.08 0.08 0.08 0.04 0.01 0.01 0.01 0.03 0.06 0.17 0.30 0.23 0.34 0.23 0.26 0.05 0.03 0.02 0.03 0.03 0.10 0.17 0.22 0.21 0.13 0.08 0.10 0.18 0.12 0.07 0.03 0.02 0.02 0.00 0.00 0.00 0.03 0.13 0.04 0.05 0.01 0.00 0.00 0.00 0.00 0.00 0.00
0.08 0.08 0.06 0.04 0.01 0.01 0.02 0.03 0.05 0.17 0.28 0.22 0.41 0.29 0.10 0.02 0.01 0.00 0.02 0.02 0.06 0.20 0.27 0.26 0.24 0.11 0.07 0.21 0.15 0.07 0.00 0.00 0.00 0.00 0.00 0.00 0.01 0.04 0.03 0.02 0.00 0.00 0.00 0.00 0.00 0.00 0.02
0.08 0.07 0.04 0.03 0.01 0.01 0.02 0.01 0.03 0.10 0.30 0.23 0.31 0.23 0.13 0.06 0.01 0.00 0.00 0.01 0.04 0.14 0.28 0.31 0.39 0.23 0.15 0.15 0.14 0.05 0.00 0.00 0.00 0.00 0.00 0.00 0.00 0.00 0.00 0.00 0.00 0.00 0.00 0.00 0.00 0.00 0.00
0.07 0.05 0.04 0.03 0.01 0.01 0.01 0.01 0.03 0.05 0.25 0.31 0.27 0.21 0.12 0.09 0.03 0.00 0.01 0.01 0.02 0.11 0.28 0.31 0.30 0.19 0.09 0.04 0.03 0.01 0.01 0.00 0.00 0.00 0.00 0.00 0.00 0.00 0.00 0.00 0.00 0.00 0.00 0.00 0.00 0.00 0.00

GFSGBSN_prec_precacc12_036.txt.gz
Total_Precipitation_Accumulation
0.01 0.02 0.06 0.08 0.07 0.06 0.06 0.07 0.07 0.06 0.08 0.09 0.11 0.11 0.11 0.09 0.08 0.07 0.01 0.00 0.00 0.00 0.00 0.00 0.00 0.00 0.00 0.00 0.00 0.00 0.00 0.00 0.00 0.03 0.02 0.00 0.00 0.00 0.00 0.00 0.00 0.00 0.00 0.00 0.00 0.00 0.00
0.00 0.00 0.00 0.02 0.06 0.09 0.09 0.08 0.09 0.11 0.12 0.10 0.11 0.10 0.09 0.09 0.08 0.08 0.03 0.00 0.00 0.00 0.00 0.00 0.00 0.00 0.00 0.00 0.00 0.00 0.00 0.00 0.00 0.01 0.02 0.02 0.00 0.00 0.00 0.00 0.00 0.00 0.00 0.00 0.00 0.00 0.00
0.00 0.01 0.00 0.00 0.01 0.07 0.10 0.10 0.12 0.14 0.11 0.11 0.11 0.12 0.11 0.11 0.11 0.10 0.07 0.01 0.00 0.00 0.00 0.00 0.00 0.00 0.00 0.00 0.00 0.00 0.00 0.00 0.00 0.00 0.01 0.02 0.02 0.03 0.02 0.00 0.00 0.00 0.00 0.00 0.00 0.00 0.00
0.00 0.01 0.01 0.01 0.01 0.01 0.05 0.09 0.10 0.09 0.10 0.14 0.15 0.13 0.12 0.13 0.14 0.14 0.11 0.04 0.02 0.01 0.00 0.00 0.00 0.00 0.00 0.00 0.00 0.00 0.00 0.00 0.00 0.00 0.01 0.00 0.01 0.02 0.00 0.00 0.00 0.00 0.00 0.00 0.00 0.00 0.00
0.01 0.01 0.01 0.01 0.01 0.01 0.02 0.03 0.06 0.07 0.11 0.15 0.17 0.16 0.17 0.16 0.17 0.18 0.15 0.12 0.06 0.05 0.02 0.03 0.00 0.00 0.00 0.00 0.00 0.00 0.00 0.00 0.00 0.00 0.00 0.00 0.00 0.00 0.00 0.01 0.00 0.00 0.00 0.00 0.00 0.00 0.00
0.01 0.01 0.00 0.01 0.01 0.02 0.03 0.03 0.04 0.07 0.12 0.15 0.16 0.16 0.16 0.16 0.18 0.20 0.29 0.27 0.09 0.03 0.03 0.08 0.02 0.00 0.00 0.00 0.00 0.00 0.00 0.00 0.00 0.00 0.00 0.00 0.00 0.00 0.00 0.01 0.00 0.00 0.00 0.00 0.00 0.00 0.00
0.01 0.00 0.01 0.02 0.02 0.02 0.03 0.03 0.03 0.06 0.08 0.11 0.14 0.15 0.19 0.20 0.23 0.31 0.69 0.52 0.05 0.00 0.01 0.01 0.01 0.00 0.00 0.00 0.00 0.00 0.00 0.00 0.00 0.00 0.00 0.00 0.00 0.00 0.00 0.00 0.00 0.00 0.00 0.00 0.00 0.00 0.00
0.01 0.01 0.02 0.03 0.02 0.02 0.03 0.03 0.05 0.07 0.11 0.14 0.15 0.17 0.17 0.21 0.23 0.53 0.74 0.36 0.02 0.00 0.00 0.00 0.00 0.00 0.00 0.00 0.00 0.00 0.00 0.00 0.00 0.00 0.00 0.00 0.00 0.00 0.00 0.00 0.00 0.00 0.00 0.00 0.00 0.00 0.00
0.01 0.01 0.03 0.03 0.03 0.03 0.03 0.05 0.09 0.11 0.17 0.19 0.16 0.15 0.21 0.30 0.38 0.80 0.59 0.25 0.01 0.00 0.00 0.00 0.00 0.00 0.00 0.00 0.00 0.00 0.00 0.00 0.00 0.00 0.00 0.00 0.00 0.00 0.00 0.00 0.00 0.00 0.00 0.00 0.00 0.00 0.00
0.02 0.02 0.03 0.03 0.05 0.06 0.08 0.10 0.12 0.16 0.22 0.30 0.24 0.25 0.27 0.42 0.79 0.68 0.61 0.23 0.08 0.01 0.00 0.00 0.00 0.00 0.00 0.02 0.01 0.00 0.00 0.00 0.00 0.00 0.00 0.01 0.00 0.00 0.00 0.00 0.00 0.00 0.00 0.00 0.00 0.01 0.00
0.02 0.03 0.03 0.04 0.07 0.09 0.11 0.12 0.16 0.15 0.14 0.32 0.48 0.44 0.49 0.62 0.93 0.59 0.52 0.30 0.18 0.02 0.00 0.00 0.01 0.01 0.03 0.01 0.00 0.00 0.00 0.00 0.01 0.00 0.01 0.02 0.00 0.00 0.00 0.00 0.00 0.00 0.00 0.00 0.01 0.01 0.01
0.03 0.05 0.06 0.06 0.07 0.12 0.11 0.14 0.13 0.09 0.23 0.46 0.50 0.50 0.66 0.76 0.80 0.62 0.40 0.46 0.36 0.05 0.00 0.01 0.00 0.03 0.05 0.02 0.02 0.00 0.01 0.03 0.04 0.06 0.06 0.01 0.00 0.00 0.00 0.00 0.00 0.01 0.01 0.02 0.04 0.06 0.09
0.04 0.07 0.07 0.06 0.07 0.10 0.10 0.10 0.09 0.28 0.40 0.35 0.43 0.53 0.86 0.80 0.62 0.60 0.79 0.68 0.43 0.07 0.00 0.01 0.01 0.02 0.01 0.01 0.01 0.01 0.02 0.04 0.07 0.08 0.11 0.09 0.03 0.00 0.00 0.00 0.00 0.04 0.16 0.18 0.17 0.18 0.04
0.05 0.08 0.07 0.07 0.09 0.09 0.08 0.08 0.27 0.33 0.36 0.32 0.56 0.54 0.93 0.92 0.73 0.71 0.97 0.57 0.13 0.01 0.00 0.00 0.00 0.01 0.01 0.00 0.00 0.01 0.02 0.03 0.03 0.09 0.15 0.09 0.05 0.02 0.01 0.00 0.01 0.02 0.07 0.21 0.07 0.00 0.00
0.07 0.09 0.08 0.08 0.09 0.06 0.12 0.23 0.29 0.30 0.29 0.45 0.34 0.56 1.35 1.02 0.98 1.09 0.92 0.43 0.03 0.00 0.00 0.00 0.00 0.01 0.00 0.00 0.00 0.01 0.02 0.00 0.00 0.01 0.05 0.03 0.01 0.00 0.00 0.00 0.04 0.11 0.19 0.13 0.17 0.14 0.16
0.08 0.08 0.09 0.10 0.06 0.06 0.16 0.28 0.39 0.42 0.56 0.62 0.37 0.49 1.35 1.08 0.82 1.38 0.81 0.26 0.00 0.00 0.00 0.00 0.00 0.00 0.00 0.00 0.00 0.01 0.00 0.00 0.00 0.00 0.00 0.00 0.01 0.00 0.00 0.01 0.03 0.05 0.04 0.12 0.38 0.20 0.07
0.06 0.08 0.09 0.09 0.04 0.05 0.12 0.26 0.37 0.66 0.79 0.56 0.41 0.74 0.89 1.30 0.94 1.47 0.91 0.15 0.00 0.00 0.00 0.00 0.00 0.00 0.00 0.00 0.00 0.00 0.00 0.00 0.00 0.00 0.00 0.00 0.01 0.00 0.01 0.01 0.01 0.02 0.11 0.13 0.10 0.03 0.02
0.06 0.10 0.10 0.07 0.03 0.04 0.09 0.19 0.17 0.54 0.61 0.53 0.49 0.70 0.92 1.49 1.54 1.11 0.46 0.03 0.00 0.00 0.00 0.00 0.00 0.01 0.01 0.00 0.00 0.00 0.00 0.00 0.00 0.00 0.00 0.00 0.06 0.03 0.00 0.00 0.01 0.03 0.03 0.06 0.19 0.05 0.10
0.08 0.08 0.09 0.07 0.05 0.03 0.08 0.14 0.12 0.36 0.87 1.18 0.77 0.85 1.33 0.83 0.62 0.35 0.20 0.03 0.00 0.00 0.00 0.02 0.01 0.01 0.01 0.02 0.02 0.00 0.00 0.00 0.00 0.00 0.00 0.04 0.15 0.10 0.06 0.16 0.17 0.25 0.08 0.14 0.21 0.39 0.35
0.09 0.08 0.08 0.07 0.06 0.03 0.05 0.06 0.05 0.21 0.39 0.65 0.72 0.86 2.11 1.27 0.25 0.02 0.03 0.03 0.01 0.00 0.01 0.03 0.03 0.03 0.04 0.04 0.02 0.00 0.00 0.00 0.00 0.00 0.00 0.07 0.10 0.04 0.10 0.27 0.47 0.39 0.14 0.20 0.58 0.75 0.19
0.08 0.07 0.08 0.08 0.07 0.03 0.03 0.03 0.06 0.24 0.23 0.47 0.50 0.32 0.51 0.47 0.22 0.00 0.00 0.03 0.01 0.00 0.01 0.06 0.05 0.03 0.04 0.05 0.02 0.02 0.00 0.00 0.00 0.00 0.03 0.12 0.14 0.09 0.08 0.06 0.34 0.40 0.29 0.29 0.59 0.31 0.42
0.08 0.07 0.07 0.09 0.06 0.02 0.02 0.02 0.05 0.21 0.34 0.48 0.46 0.23 0.07 0.04 0.02 0.01 0.01 0.01 0.01 0.00 0.02 0.03 0.03 0.02 0.06 0.03 0.01 0.00 0.00 0.00 0.00 0.00 0.05 0.20 0.33 0.32 0.29 0.18 0.23 0.44 0.35 0.42 0.33 0.27 0.34
0.07 0.07 0.09 0.08 0.04 0.02 0.01 0.01 0.04 0.21 0.46 0.47 0.55 0.29 0.11 0.08 0.03 0.04 0.02 0.00 0.01 0.02 0.00 0.01 0.04 0.08 0.07 0.01 0.00 0.00 0.00 0.00 0.00 0.04 0.16 0.27 0.31 0.53 0.36 0.32 0.34 0.70 0.64 0.47 0.26 0.26 0.31
0.06 0.09 0.10 0.06 0.03 0.01 0.01 0.01 0.03 0.12 0.42 0.50 0.62 0.48 0.23 0.11 0.04 0.01 0.01 0.03 0.02 0.01 0.01 0.03 0.05 0.05 0.02 0.00 0.01 0.00 0.01 0.01 0.00 0.02 0.06 0.11 0.27 0.51 0.41 0.46 0.77 0.56 0.50 0.35 0.35 0.33 0.30
0.06 0.09 0.09 0.05 0.03 0.00 0.00 0.01 0.02 0.06 0.23 0.25 0.44 0.43 0.22 0.06 0.03 0.02 0.03 0.07 0.08 0.06 0.06 0.08 0.05 0.04 0.06 0.06 0.06 0.03 0.01 0.01 0.00 0.00 0.00 0.00 0.11 0.25 0.18 0.15 0.17 0.02 0.05 0.17 0.20 0.25 0.13
0.06 0.08 0.08 0.04 0.02 0.01 0.00 0.00 0.01 0.03 0.09 0.13 0.31 0.35 0.32 0.05 0.02 0.01 0.01 0.03 0.09 0.09 0.12 0.17 0.17 0.10 0.09 0.11 0.10 0.04 0.01 0.01 0.00 0.01 0.01 0.00 0.05 0.17 0.07 0.08 0.01 0.00 0.00 0.00 0.01 0.10 0.16
0.06 0.07 0.06 0.05 0.02 0.01 0.01 0.00 0.01 0.04 0.09 0.10 0.33 0.40 0.14 0.02 0.01 0.00 0.00 0.01 0.03 0.11 0.16 0.18 0.21 0.13 0.12 0.20 0.10 0.04 0.00 0.00 0.00 0.00 0.00 0.00 0.02 0.06 0.04 0.06 0.00 0.00 0.00 0.00 0.00 0.09 0.10
0.05 0.06 0.05 0.04 0.01 0.01 0.01 0.00 0.01 0.03 0.08 0.08 0.23 0.27 0.16 0.05 0.01 0.00 0.00 0.01 0.03 0.08 0.17 0.21 0.30 0.20 0.17 0.17 0.13 0.04 0.01 0.00 0.00 0.00 0.00 0.00 0.00 0.00 0.00 0.00 0.00 0.00 0.00 0.00 0.00 0.00 0.00
0.05 0.04 0.04 0.04 0.02 0.01 0.00 0.00 0.01 0.02 0.10 0.12 0.22 0.21 0.13 0.09 0.03 0.00 0.00 0.01 0.02 0.08 0.19 0.25 0.26 0.21 0.12 0.07 0.02 0.01 0.01 0.00 0.00 0.00 0.00 0.00 0.00 0.00 0.00 0.00 0.00 0.00 0.00 0.00 0.00 0.00 0.00

GFSGBSN_prec_precacc12_039.txt.gz
Total_Precipitation_Accumulation
0.00 0.00 0.00 0.00 0.00 0.01 0.03 0.06 0.06 0.05 0.06 0.06 0.09 0.11 0.11 0.10 0.09 0.10 0.09 0.06 0.00 0.00 0.00 0.00 0.00 0.00 0.00 0.00 0.00 0.00 0.00 0.00 0.00 0.09 0.06 0.01 0.00 0.00 0.00 0.00 0.00 0.00 0.00 0.00 0.00 0.00 0.00
0.00 0.00 0.00 0.00 0.00 0.00 0.00 0.03 0.07 0.09 0.11 0.08 0.09 0.10 0.09 0.09 0.09 0.10 0.09 0.05 0.01 0.00 0.00 0.00 0.00 0.00 0.00 0.00 0.00 0.00 0.00 0.00 0.00 0.03 0.07 0.03 0.00 0.00 0.00 0.00 0.00 0.00 0.00 0.00 0.00 0.00 0.00
0.00 0.01 0.01 0.00 0.00 0.00 0.00 0.00 0.05 0.11 0.09 0.10 0.09 0.10 0.11 0.11 0.12 0.12 0.14 0.13 0.07 0.00 0.00 0.00 0.00 0.00 0.00 0.00 0.00 0.00 0.00 0.00 0.00 0.00 0.03 0.03 0.03 0.01 0.01 0.00 0.00 0.00 0.00 0.00 0.00 0.00 0.00
0.00 0.01 0.00 0.00 0.00 0.01 0.00 0.01 0.01 0.04 0.08 0.12 0.14 0.12 0.11 0.13 0.14 0.16 0.18 0.15 0.14 0.02 0.00 0.00 0.00 0.00 0.00 0.00 0.00 0.00 0.00 0.00 0.00 0.00 0.02 0.01 0.01 0.02 0.00 0.00 0.00 0.00 0.00 0.00 0.00 0.00 0.00
0.01 0.01 0.00 0.01 0.01 0.02 0.02 0.02 0.02 0.01 0.05 0.13 0.16 0.13 0.14 0.16 0.18 0.19 0.23 0.28 0.32 0.06 0.02 0.02 0.00 0.00 0.00 0.00 0.00 0.00 0.00 0.00 0.00 0.00 0.00 0.01 0.01 0.00 0.00 0.00 0.00 0.00 0.00 0.00 0.00 0.00 0.00
0.01 0.00 0.00 0.01 0.02 0.03 0.03 0.03 0.03 0.02 0.04 0.08 0.13 0.12 0.14 0.16 0.20 0.22 0.33 0.49 0.65 0.15 0.06 0.07 0.01 0.00 0.00 0.00 0.00 0.00 0.00 0.00 0.00 0.00 0.00 0.00 0.00 0.00 0.00 0.00 0.00 0.00 0.00 0.00 0.00 0.00 0.00
0.01 0.01 0.01 0.02 0.02 0.02 0.04 0.04 0.04 0.05 0.05 0.05 0.11 0.17 0.16 0.17 0.24 0.32 0.73 1.01 0.86 0.28 0.04 0.01 0.01 0.00 0.00 0.00 0.00 0.00 0.00 0.00 0.00 0.00 0.00 0.00 0.00 0.00 0.00 0.00 0.00 0.00 0.00 0.00 0.00 0.00 0.00
0.01 0.01 0.03 0.03 0.02 0.04 0.04 0.04 0.05 0.07 0.10 0.11 0.13 0.15 0.13 0.15 0.20 0.52 0.83 0.93 0.37 0.06 0.01 0.00 0.00 0.00 0.00 0.00 0.00 0.00 0.00 0.00 0.00 0.00 0.00 0.00 0.00 0.00 0.00 0.00 0.00 0.00 0.00 0.00 0.00 0.00 0.00
0.01 0.02 0.04 0.03 0.04 0.05 0.05 0.05 0.09 0.13 0.15 0.13 0.09 0.10 0.14 0.24 0.35 0.78 0.62 0.41 0.22 0.16 0.05 0.00 0.00 0.00 0.00 0.00 0.00 0.00 0.00 0.00 0.00 0.00 0.00 0.00 0.00 0.00 0.00 0.00 0.00 0.00 0.00 0.00 0.00 0.00 0.00
0.03 0.02 0.03 0.04 0.05 0.07 0.06 0.08 0.13 0.17 0.14 0.09 0.09 0.16 0.26 0.37 0.77 0.68 0.62 0.24 0.36 0.24 0.08 0.00 0.00 0.00 0.00 0.01 0.00 0.00 0.00 0.00 0.00 0.00 0.00 0.00 0.00 0.00 0.00 0.00 0.00 0.00 0.00 0.00 0.00 0.00 0.00
0.02 0.03 0.04 0.04 0.06 0.06 0.08 0.12 0.16 0.14 0.07 0.13 0.23 0.37 0.49 0.66 1.00 0.61 0.57 0.34 0.47 0.43 0.16 0.00 0.01 0.01 0.02 0.01 0.00 0.00 0.00 0.00 0.00 0.00 0.00 0.00 0.00 0.00 0.00 0.00 0.00 0.00 0.00 0.00 0.00 0.00 0.01
0.02 0.04 0.06 0.05 0.06 0.08 0.08 0.14 0.12 0.08 0.19 0.31 0.22 0.17 0.45 0.70 0.82 0.62 0.49 0.60 0.80 0.50 0.11 0.02 0.01 0.04 0.05 0.02 0.02 0.01 0.01 0.02 0.01 0.02 0.02 0.00 0.00 0.00 0.00 0.00 0.00 0.00 0.01 0.01 0.03 0.06 0.09
0.03 0.07 0.08 0.07 0.07 0.08 0.09 0.08 0.08 0.27 0.39 0.28 0.18 0.18 0.40 0.72 0.60 0.60 1.08 0.93 0.93 0.27 0.02 0.01 0.01 0.04 0.02 0.01 0.02 0.02 0.03 0.03 0.03 0.03 0.03 0.02 0.00 0.00 0.00 0.00 0.00 0.03 0.14 0.14 0.14 0.16 0.04
0.05 0.08 0.09 0.09 0.09 0.08 0.07 0.05 0.20 0.27 0.32 0.30 0.39 0.17 0.36 0.67 0.71 0.73 1.42 0.85 0.37 0.06 0.00 0.00 0.01 0.02 0.02 0.01 0.01 0.01 0.02 0.02 0.02 0.02 0.03 0.02 0.00 0.00 0.00 0.00 0.00 0.01 0.06 0.16 0.06 0.00 0.00
0.06 0.09 0.10 0.10 0.09 0.07 0.06 0.07 0.16 0.22 0.25 0.44 0.25 0.29 0.58 0.81 0.93 1.15 1.12 0.67 0.12 0.00 0.00 0.00 0.01 0.02 0.02 0.00 0.00 0.01 0.01 0.00 0.00 0.01 0.02 0.01 0.00 0.00 0.00 0.00 0.01 0.06 0.13 0.09 0.17 0.14 0.15
0.07 0.07 0.10 0.11 0.08 0.07 0.04 0.07 0.17 0.24 0.50 0.61 0.23 0.22 0.54 0.91 0.80 1.43 0.94 0.42 0.01 0.00 0.00 0.00 0.00 0.00 0.00 0.00 0.00 0.00 0.00 0.00 0.00 0.00 0.00 0.00 0.00 0.00 0.00 0.00 0.01 0.04 0.03 0.09 0.30 0.18 0.07
0.06 0.07 0.10 0.10 0.05 0.07 0.02 0.05 0.07 0.31 0.64 0.49 0.17 0.34 0.37 1.07 0.87 1.38 0.99 0.22 0.00 0.00 0.00 0.00 0.00 0.00 0.00 0.00 0.00 0.00 0.00 0.00 0.00 0.00 0.00 0.00 0.01 0.00 0.00 0.00 0.00 0.01 0.08 0.10 0.08 0.03 0.01
0.07 0.09 0.09 0.08 0.05 0.04 0.02 0.04 0.05 0.25 0.46 0.44 0.20 0.48 0.42 0.92 1.18 1.04 0.55 0.06 0.00 0.00 0.00 0.00 0.00 0.00 0.00 0.00 0.00 0.00 0.00 0.00 0.00 0.00 0.00 0.00 0.04 0.02 0.00 0.00 0.00 0.00 0.00 0.04 0.18 0.05 0.12
0.08 0.09 0.08 0.08 0.06 0.02 0.03 0.01 0.03 0.20 0.80 0.90 0.38 0.58 0.80 0.56 0.43 0.37 0.29 0.05 0.00 0.00 0.00 0.00 0.00 0.00 0.00 0.01 0.01 0.00 0.00 0.00 0.00 0.00 0.00 0.00 0.05 0.03 0.01 0.04 0.08 0.13 0.04 0.07 0.20 0.46 0.43
0.08 0.08 0.08 0.07 0.07 0.02 0.02 0.01 0.02 0.13 0.29 0.46 0.43 0.51 1.36 0.86 0.20 0.03 0.07 0.04 0.01 0.00 0.00 0.00 0.00 0.01 0.02 0.02 0.01 0.00 0.00 0.00 0.00 0.00 0.00 0.00 0.02 0.01 0.02 0.06 0.27 0.34 0.13 0.20 0.70 0.88 0.20
0.08 0.07 0.07 0.08 0.07 0.02 0.01 0.01 0.03 0.16 0.14 0.20 0.28 0.18 0.30 0.32 0.18 0.01 0.01 0.02 0.03 0.00 0.00 0.01 0.02 0.01 0.03 0.04 0.02 0.02 0.00 0.00 0.00 0.00 0.00 0.03 0.07 0.04 0.03 0.04 0.21 0.30 0.26 0.30 0.66 0.41 0.51
0.06 0.06 0.06 0.08 0.06 0.02 0.00 0.00 0.02 0.15 0.27 0.29 0.25 0.19 0.07 0.04 0.02 0.02 0.01 0.01 0.02 0.00 0.00 0.01 0.01 0.02 0.05 0.03 0.01 0.00 0.00 0.00 0.00 0.00 0.01 0.06 0.15 0.11 0.09 0.11 0.20 0.35 0.19 0.36 0.34 0.23 0.27
0.05 0.04 0.07 0.07 0.04 0.02 0.00 0.00 0.01 0.12 0.32 0.32 0.33 0.26 0.12 0.08 0.03 0.04 0.02 0.00 0.01 0.01 0.00 0.00 0.00 0.06 0.06 0.01 0.00 0.00 0.00 0.00 0.01 0.04 0.11 0.16 0.16 0.26 0.11 0.20 0.25 0.44 0.37 0.19 0.09 0.10 0.10
0.05 0.05 0.07 0.06 0.03 0.01 0.01 0.00 0.00 0.05 0.22 0.30 0.45 0.44 0.24 0.11 0.04 0.01 0.00 0.02 0.01 0.01 0.01 0.01 0.00 0.03 0.01 0.00 0.01 0.00 0.00 0.00 0.01 0.02 0.06 0.06 0.19 0.36 0.17 0.30 0.59 0.41 0.31 0.14 0.11 0.12 0.05
0.05 0.05 0.06 0.05 0.03 0.00 0.00 0.00 0.00 0.03 0.10 0.10 0.35 0.40 0.24 0.07 0.03 0.02 0.01 0.03 0.05 0.04 0.04 0.04 0.04 0.04 0.06 0.06 0.04 0.02 0.01 0.01 0.00 0.00 0.00 0.00 0.12 0.28 0.17 0.16 0.17 0.02 0.04 0.13 0.20 0.29 0.13
0.03 0.04 0.06 0.04 0.02 0.01 0.01 0.00 0.00 0.02 0.04 0.03 0.16 0.34 0.36 0.07 0.02 0.01 0.01 0.02 0.06 0.07 0.07 0.11 0.14 0.11 0.11 0.11 0.08 0.04 0.01 0.00 0.00 0.01 0.01 0.00 0.05 0.24 0.09 0.12 0.01 0.00 0.00 0.00 0.03 0.19 0.25
0.03 0.04 0.05 0.04 0.02 0.01 0.01 0.00 0.00 0.02 0.03 0.03 0.12 0.35 0.15 0.03 0.01 0.01 0.00 0.01 0.01 0.07 0.11 0.13 0.15 0.13 0.15 0.14 0.06 0.04 0.01 0.00 0.00 0.00 0.00 0.01 0.03 0.10 0.07 0.12 0.00 0.00 0.00 0.00 0.00 0.10 0.11
0.02 0.02 0.04 0.04 0.01 0.01 0.01 0.00 0.00 0.01 0.04 0.03 0.10 0.20 0.15 0.03 0.01 0.00 0.00 0.01 0.01 0.05 0.11 0.14 0.18 0.18 0.18 0.15 0.08 0.02 0.01 0.00 0.00 0.00 0.00 0.00 0.00 0.01 0.02 0.03 0.00 0.00 0.00 0.00 0.00 0.00 0.00
0.02 0.02 0.04 0.03 0.01 0.01 0.00 0.00 0.00 0.02 0.04 0.02 0.09 0.12 0.14 0.08 0.03 0.00 0.00 0.00 0.01 0.06 0.15 0.19 0.19 0.19 0.12 0.07 0.03 0.01 0.01 0.01 0.00 0.00 0.00 0.00 0.00 0.00 0.00 0.00 0.00 0.00 0.00 0.00 0.00 0.00 0.00

GFSGBSN_prec_precacc12_042.txt.gz
Total_Precipitation_Accumulation
0.00 0.00 0.00 0.00 0.00 0.00 0.00 0.00 0.00 0.01 0.04 0.04 0.05 0.07 0.10 0.10 0.09 0.10 0.09 0.11 0.10 0.05 0.00 0.00 0.00 0.00 0.00 0.00 0.00 0.00 0.00 0.00 0.03 0.16 0.09 0.01 0.00 0.00 0.00 0.00 0.00 0.00 0.00 0.00 0.00 0.00 0.00
0.00 0.00 0.01 0.00 0.00 0.00 0.00 0.00 0.00 0.00 0.03 0.05 0.06 0.06 0.07 0.09 0.09 0.10 0.09 0.08 0.14 0.11 0.02 0.00 0.00 0.00 0.00 0.00 0.00 0.00 0.00 0.00 0.00 0.06 0.13 0.04 0.00 0.00 0.00 0.00 0.00 0.00 0.00 0.00 0.00 0.00 0.00
0.00 0.01 0.01 0.00 0.00 0.00 0.00 0.00 0.01 0.00 0.01 0.03 0.06 0.06 0.07 0.08 0.12 0.13 0.14 0.16 0.16 0.14 0.04 0.00 0.00 0.00 0.00 0.00 0.00 0.00 0.00 0.00 0.00 0.01 0.12 0.07 0.02 0.00 0.00 0.00 0.00 0.00 0.00 0.00 0.00 0.00 0.00
0.01 0.02 0.00 0.00 0.01 0.01 0.01 0.02 0.01 0.01 0.01 0.01 0.05 0.08 0.07 0.09 0.13 0.16 0.18 0.16 0.26 0.23 0.08 0.00 0.00 0.00 0.00 0.00 0.00 0.00 0.00 0.00 0.00 0.00 0.05 0.05 0.01 0.01 0.00 0.00 0.00 0.00 0.00 0.00 0.00 0.00 0.00
0.02 0.01 0.01 0.01 0.01 0.02 0.02 0.03 0.03 0.02 0.02 0.03 0.03 0.06 0.09 0.10 0.16 0.19 0.23 0.28 0.42 0.41 0.20 0.04 0.00 0.00 0.00 0.00 0.00 0.00 0.00 0.00 0.00 0.00 0.01 0.01 0.01 0.01 0.00 0.00 0.00 0.00 0.00 0.00 0.00 0.00 0.00
0.02 0.01 0.01 0.03 0.03 0.03 0.04 0.05 0.05 0.03 0.04 0.05 0.05 0.05 0.13 0.13 0.19 0.25 0.34 0.47 0.76 0.74 0.39 0.11 0.02 0.00 0.00 0.00 0.00 0.00 0.00 0.00 0.00 0.00 0.01 0.03 0.01 0.00 0.00 0.00 0.00 0.00 0.00 0.00 0.00 0.00 0.00
0.02 0.01 0.03 0.04 0.04 0.05 0.07 0.07 0.04 0.04 0.07 0.08 0.09 0.12 0.16 0.12 0.17 0.33 0.74 1.01 1.10 1.16 0.47 0.06 0.01 0.00 0.00 0.00 0.00 0.00 0.00 0.00 0.00 0.00 0.00 0.00 0.00 0.00 0.00 0.00 0.00 0.00 0.00 0.00 0.00 0.00 0.00
0.02 0.03 0.03 0.03 0.04 0.06 0.07 0.06 0.05 0.07 0.14 0.14 0.13 0.08 0.07 0.07 0.13 0.50 0.84 0.95 0.63 0.52 0.30 0.07 0.00 0.00 0.00 0.00 0.00 0.00 0.00 0.00 0.00 0.00 0.00 0.00 0.00 0.00 0.00 0.00 0.00 0.00 0.00 0.00 0.00 0.00 0.00
0.02 0.03 0.02 0.04 0.05 0.06 0.07 0.05 0.08 0.14 0.16 0.13 0.09 0.09 0.10 0.17 0.21 0.67 0.62 0.42 0.37 0.57 0.34 0.08 0.00 0.00 0.00 0.00 0.00 0.00 0.00 0.00 0.00 0.00 0.00 0.00 0.00 0.00 0.00 0.00 0.00 0.00 0.00 0.00 0.00 0.00 0.00
0.03 0.02 0.03 0.05 0.07 0.07 0.06 0.06 0.11 0.17 0.11 0.06 0.09 0.12 0.22 0.31 0.51 0.55 0.55 0.24 0.47 0.75 0.41 0.11 0.02 0.00 0.00 0.00 0.00 0.00 0.00 0.00 0.00 0.00 0.00 0.00 0.00 0.00 0.00 0.00 0.00 0.00 0.00 0.00 0.00 0.00 0.00
0.04 0.02 0.05 0.06 0.08 0.07 0.07 0.10 0.13 0.09 0.05 0.12 0.23 0.31 0.23 0.35 0.73 0.55 0.58 0.36 0.60 0.84 0.39 0.07 0.01 0.01 0.01 0.00 0.00 0.00 0.00 0.00 0.00 0.00 0.00 0.00 0.00 0.00 0.00 0.00 0.00 0.00 0.00 0.00 0.00 0.00 0.01
0.02 0.04 0.08 0.08 0.07 0.07 0.07 0.09 0.09 0.06 0.19 0.30 0.22 0.11 0.13 0.16 0.47 0.56 0.59 0.71 0.97 0.88 0.34 0.10 0.02 0.04 0.04 0.02 0.01 0.01 0.01 0.01 0.01 0.01 0.00 0.00 0.00 0.00 0.00 0.00 0.00 0.00 0.00 0.01 0.01 0.04 0.07
0.03 0.06 0.08 0.08 0.07 0.08 0.07 0.07 0.06 0.19 0.33 0.26 0.18 0.15 0.11 0.13 0.33 0.59 1.15 1.01 1.07 0.45 0.13 0.03 0.02 0.04 0.02 0.01 0.02 0.02 0.03 0.03 0.01 0.01 0.01 0.01 0.00 0.00 0.00 0.00 0.00 0.02 0.07 0.06 0.07 0.10 0.03
0.04 0.08 0.08 0.09 0.07 0.08 0.08 0.04 0.07 0.14 0.21 0.23 0.36 0.11 0.15 0.10 0.45 0.68 1.61 0.97 0.44 0.10 0.05 0.00 0.01 0.03 0.02 0.01 0.02 0.01 0.02 0.02 0.01 0.01 0.01 0.00 0.00 0.00 0.00 0.00 0.00 0.01 0.03 0.06 0.02 0.00 0.00
0.05 0.08 0.09 0.09 0.07 0.08 0.08 0.02 0.03 0.08 0.18 0.35 0.20 0.13 0.31 0.13 0.49 1.03 1.24 0.72 0.25 0.03 0.00 0.01 0.02 0.03 0.03 0.01 0.01 0.01 0.02 0.00 0.00 0.01 0.01 0.00 0.00 0.00 0.00 0.00 0.00 0.02 0.03 0.02 0.08 0.06 0.09
0.05 0.07 0.09 0.09 0.07 0.09 0.04 0.02 0.01 0.07 0.38 0.54 0.19 0.18 0.31 0.25 0.46 1.26 0.96 0.50 0.13 0.01 0.00 0.00 0.01 0.00 0.01 0.01 0.01 0.01 0.00 0.00 0.00 0.00 0.00 0.00 0.00 0.00 0.00 0.00 0.00 0.01 0.01 0.04 0.13 0.07 0.04
0.05 0.07 0.09 0.08 0.05 0.08 0.02 0.03 0.01 0.06 0.30 0.36 0.14 0.47 0.35 0.52 0.57 1.16 0.95 0.42 0.05 0.00 0.00 0.00 0.00 0.00 0.00 0.00 0.00 0.00 0.00 0.00 0.00 0.00 0.00 0.00 0.00 0.00 0.00 0.00 0.00 0.01 0.03 0.05 0.07 0.02 0.02
0.05 0.08 0.08 0.08 0.05 0.05 0.02 0.02 0.01 0.06 0.22 0.31 0.19 0.49 0.33 0.48 0.61 0.77 0.58 0.18 0.01 0.00 0.00 0.00 0.00 0.00 0.00 0.00 0.00 0.00 0.00 0.00 0.00 0.00 0.00 0.00 0.01 0.01 0.00 0.00 0.00 0.00 0.00 0.04 0.18 0.05 0.13
0.05 0.07 0.07 0.06 0.06 0.03 0.02 0.01 0.01 0.07 0.52 0.65 0.39 0.56 0.46 0.32 0.19 0.34 0.40 0.10 0.01 0.00 0.00 0.00 0.00 0.00 0.00 0.00 0.00 0.00 0.00 0.00 0.00 0.00 0.00 0.00 0.02 0.01 0.00 0.00 0.00 0.02 0.01 0.05 0.18 0.47 0.44
0.06 0.05 0.06 0.06 0.06 0.03 0.02 0.00 0.01 0.06 0.21 0.46 0.35 0.35 0.70 0.39 0.13 0.21 0.14 0.07 0.02 0.00 0.00 0.00 0.00 0.00 0.00 0.01 0.00 0.00 0.00 0.00 0.00 0.00 0.00 0.00 0.01 0.00 0.00 0.00 0.07 0.20 0.06 0.12 0.65 0.82 0.18
0.05 0.04 0.04 0.06 0.06 0.03 0.01 0.00 0.02 0.09 0.08 0.17 0.09 0.04 0.13 0.11 0.06 0.10 0.06 0.03 0.03 0.00 0.00 0.00 0.00 0.00 0.01 0.01 0.01 0.01 0.00 0.00 0.00 0.00 0.00 0.00 0.02 0.00 0.00 0.01 0.07 0.14 0.17 0.21 0.61 0.39 0.53
0.04 0.03 0.03 0.06 0.05 0.02 0.01 0.00 0.01 0.08 0.20 0.22 0.07 0.06 0.04 0.03 0.01 0.03 0.03 0.01 0.02 0.00 0.00 0.00 0.00 0.00 0.01 0.01 0.01 0.00 0.00 0.00 0.00 0.00 0.00 0.01 0.05 0.02 0.01 0.02 0.11 0.28 0.16 0.31 0.30 0.23 0.27
0.04 0.03 0.03 0.05 0.04 0.02 0.01 0.00 0.00 0.04 0.19 0.10 0.05 0.17 0.08 0.04 0.01 0.02 0.01 0.01 0.01 0.01 0.00 0.00 0.00 0.01 0.01 0.00 0.00 0.00 0.00 0.00 0.00 0.01 0.01 0.05 0.09 0.14 0.05 0.05 0.13 0.30 0.27 0.16 0.07 0.10 0.10
0.03 0.02 0.03 0.04 0.03 0.01 0.01 0.00 0.00 0.02 0.14 0.17 0.23 0.29 0.18 0.08 0.03 0.01 0.00 0.00 0.01 0.01 0.01 0.00 0.00 0.00 0.00 0.00 0.00 0.00 0.00 0.00 0.01 0.01 0.01 0.03 0.10 0.17 0.09 0.11 0.33 0.22 0.10 0.03 0.02 0.03 0.03
0.03 0.02 0.02 0.04 0.03 0.01 0.01 0.00 0.00 0.00 0.05 0.06 0.31 0.32 0.18 0.07 0.03 0.01 0.01 0.02 0.04 0.00 0.00 0.03 0.03 0.02 0.04 0.05 0.04 0.02 0.01 0.01 0.00 0.00 0.00 0.00 0.05 0.17 0.11 0.11 0.09 0.01 0.01 0.01 0.05 0.14 0.08
0.02 0.02 0.02 0.03 0.02 0.01 0.01 0.00 0.00 0.00 0.02 0.02 0.15 0.32 0.37 0.08 0.02 0.01 0.01 0.01 0.03 0.02 0.03 0.07 0.11 0.08 0.09 0.10 0.06 0.03 0.01 0.00 0.00 0.02 0.01 0.00 0.03 0.19 0.08 0.12 0.01 0.00 0.00 0.00 0.03 0.19 0.25
0.01 0.01 0.02 0.03 0.01 0.01 0.01 0.00 0.00 0.00 0.02 0.01 0.06 0.25 0.14 0.05 0.03 0.01 0.01 0.01 0.01 0.03 0.05 0.07 0.10 0.08 0.13 0.14 0.04 0.03 0.01 0.00 0.01 0.01 0.01 0.01 0.04 0.10 0.08 0.14 0.01 0.00 0.00 0.00 0.00 0.10 0.11
0.01 0.01 0.01 0.03 0.01 0.01 0.01 0.00 0.00 0.00 0.02 0.01 0.06 0.15 0.10 0.04 0.04 0.01 0.01 0.02 0.00 0.01 0.04 0.07 0.09 0.09 0.16 0.13 0.05 0.02 0.01 0.01 0.00 0.00 0.00 0.00 0.01 0.01 0.02 0.04 0.00 0.00 0.00 0.00 0.00 0.00 0.00
0.01 0.01 0.02 0.02 0.01 0.01 0.00 0.00 0.00 0.01 0.03 0.01 0.06 0.04 0.07 0.02 0.03 0.01 0.00 0.00 0.00 0.01 0.06 0.12 0.13 0.14 0.11 0.07 0.02 0.02 0.02 0.01 0.00 0.00 0.00 0.00 0.00 0.01 0.00 0.00 0.00 0.00 0.00 0.00 0.00 0.00 0.00

GFSGBSN_prec_precacc12_045.txt.gz
Total_Precipitation_Accumulation
0.00 0.00 0.00 0.01 0.00 0.00 0.00 0.00 0.00 0.00 0.00 0.00 0.01 0.03 0.04 0.04 0.07 0.11 0.10 0.11 0.11 0.10 0.08 0.03 0.00 0.00 0.00 0.01 0.01 0.00 0.00 0.01 0.07 0.22 0.11 0.01 0.00 0.00 0.00 0.00 0.00 0.00 0.00 0.00 0.00 0.00 0.00
0.00 0.01 0.02 0.00 0.00 0.00 0.00 0.01 0.01 0.01 0.01 0.01 0.01 0.02 0.03 0.03 0.05 0.10 0.09 0.08 0.14 0.15 0.11 0.06 0.00 0.00 0.00 0.00 0.00 0.00 0.00 0.00 0.01 0.12 0.17 0.07 0.01 0.00 0.00 0.00 0.00 0.00 0.00 0.00 0.00 0.00 0.00
0.02 0.02 0.01 0.00 0.01 0.02 0.02 0.01 0.02 0.01 0.02 0.02 0.01 0.02 0.03 0.04 0.06 0.11 0.15 0.17 0.16 0.16 0.16 0.10 0.01 0.00 0.00 0.00 0.00 0.00 0.00 0.00 0.00 0.02 0.18 0.13 0.04 0.00 0.00 0.00 0.00 0.00 0.00 0.00 0.00 0.00 0.00
0.02 0.02 0.01 0.01 0.02 0.03 0.02 0.03 0.03 0.04 0.04 0.02 0.03 0.02 0.02 0.04 0.07 0.11 0.18 0.17 0.26 0.27 0.31 0.21 0.02 0.00 0.00 0.00 0.00 0.00 0.00 0.00 0.00 0.00 0.08 0.13 0.06 0.01 0.00 0.00 0.00 0.00 0.00 0.00 0.00 0.00 0.00
0.02 0.02 0.02 0.03 0.03 0.03 0.04 0.05 0.06 0.05 0.03 0.04 0.05 0.03 0.03 0.05 0.11 0.16 0.23 0.28 0.40 0.41 0.47 0.43 0.03 0.01 0.00 0.00 0.00 0.00 0.00 0.00 0.00 0.01 0.03 0.04 0.11 0.04 0.01 0.00 0.00 0.00 0.00 0.00 0.00 0.00 0.00
0.02 0.02 0.02 0.04 0.03 0.04 0.07 0.07 0.07 0.04 0.04 0.07 0.08 0.06 0.09 0.11 0.16 0.20 0.32 0.46 0.74 0.76 0.63 0.61 0.07 0.01 0.00 0.00 0.00 0.00 0.00 0.00 0.00 0.01 0.04 0.05 0.02 0.02 0.02 0.00 0.00 0.00 0.00 0.00 0.00 0.00 0.00
0.03 0.02 0.03 0.03 0.04 0.07 0.09 0.09 0.06 0.05 0.09 0.12 0.11 0.11 0.12 0.09 0.08 0.22 0.63 0.99 1.12 1.25 0.85 0.32 0.05 0.00 0.00 0.00 0.00 0.00 0.00 0.00 0.00 0.02 0.00 0.01 0.00 0.00 0.00 0.00 0.00 0.00 0.00 0.00 0.00 0.00 0.00
0.02 0.03 0.03 0.02 0.06 0.09 0.09 0.08 0.05 0.09 0.15 0.14 0.11 0.06 0.07 0.07 0.10 0.21 0.74 0.95 0.66 0.70 0.69 0.19 0.04 0.00 0.00 0.00 0.00 0.00 0.00 0.00 0.00 0.01 0.00 0.00 0.00 0.00 0.00 0.00 0.00 0.00 0.00 0.00 0.00 0.00 0.00
0.02 0.04 0.02 0.05 0.08 0.09 0.09 0.05 0.07 0.13 0.14 0.09 0.08 0.08 0.10 0.18 0.13 0.26 0.49 0.41 0.38 0.75 0.62 0.31 0.08 0.00 0.00 0.00 0.00 0.00 0.00 0.00 0.00 0.00 0.00 0.00 0.00 0.00 0.00 0.00 0.00 0.00 0.00 0.00 0.00 0.00 0.00
0.04 0.02 0.03 0.08 0.08 0.09 0.06 0.05 0.09 0.14 0.07 0.04 0.08 0.13 0.22 0.26 0.35 0.19 0.31 0.22 0.48 0.90 0.61 0.34 0.14 0.03 0.00 0.00 0.00 0.00 0.00 0.00 0.00 0.00 0.00 0.00 0.00 0.00 0.00 0.00 0.00 0.00 0.00 0.00 0.00 0.00 0.00
0.04 0.01 0.06 0.07 0.08 0.07 0.06 0.08 0.10 0.06 0.04 0.11 0.23 0.32 0.23 0.30 0.34 0.20 0.34 0.34 0.61 0.97 0.59 0.24 0.10 0.02 0.00 0.00 0.00 0.00 0.00 0.00 0.00 0.00 0.00 0.00 0.00 0.00 0.00 0.00 0.00 0.00 0.00 0.00 0.00 0.00 0.00
0.02 0.03 0.07 0.07 0.08 0.06 0.08 0.08 0.07 0.04 0.08 0.21 0.18 0.11 0.14 0.13 0.14 0.10 0.47 0.68 0.98 0.99 0.57 0.35 0.07 0.04 0.04 0.02 0.01 0.00 0.01 0.01 0.00 0.00 0.00 0.00 0.00 0.00 0.00 0.00 0.00 0.00 0.00 0.00 0.00 0.02 0.03
0.02 0.05 0.08 0.07 0.07 0.07 0.09 0.07 0.05 0.04 0.08 0.11 0.12 0.16 0.14 0.14 0.10 0.14 0.92 0.85 1.06 0.50 0.37 0.12 0.04 0.04 0.03 0.02 0.02 0.01 0.02 0.02 0.01 0.00 0.01 0.00 0.00 0.00 0.00 0.00 0.00 0.01 0.02 0.01 0.01 0.05 0.01
0.03 0.06 0.08 0.08 0.08 0.08 0.09 0.05 0.03 0.02 0.05 0.08 0.19 0.07 0.16 0.13 0.20 0.23 1.28 0.86 0.44 0.12 0.18 0.03 0.02 0.03 0.03 0.02 0.02 0.02 0.02 0.02 0.00 0.00 0.00 0.00 0.00 0.00 0.00 0.00 0.00 0.01 0.01 0.01 0.00 0.00 0.00
0.03 0.06 0.09 0.08 0.07 0.08 0.08 0.03 0.02 0.01 0.06 0.26 0.14 0.08 0.33 0.17 0.23 0.41 0.86 0.61 0.29 0.15 0.04 0.04 0.06 0.04 0.04 0.01 0.01 0.02 0.02 0.00 0.00 0.00 0.00 0.00 0.00 0.00 0.00 0.00 0.00 0.01 0.02 0.01 0.03 0.01 0.01
0.04 0.06 0.09 0.08 0.06 0.09 0.04 0.02 0.00 0.00 0.09 0.34 0.16 0.12 0.31 0.23 0.17 0.57 0.67 0.48 0.22 0.09 0.01 0.00 0.04 0.02 0.02 0.01 0.01 0.01 0.01 0.00 0.00 0.00 0.00 0.00 0.00 0.00 0.00 0.00 0.00 0.00 0.00 0.02 0.06 0.01 0.00
0.04 0.06 0.08 0.07 0.05 0.08 0.02 0.02 0.00 0.01 0.09 0.25 0.11 0.44 0.33 0.25 0.23 0.50 0.75 0.49 0.19 0.03 0.00 0.00 0.00 0.00 0.00 0.00 0.00 0.00 0.00 0.00 0.00 0.00 0.00 0.00 0.00 0.00 0.00 0.00 0.00 0.00 0.02 0.02 0.04 0.01 0.01
0.04 0.06 0.06 0.06 0.04 0.05 0.02 0.01 0.00 0.03 0.16 0.18 0.14 0.46 0.26 0.15 0.14 0.37 0.61 0.44 0.14 0.03 0.00 0.00 0.00 0.00 0.00 0.00 0.00 0.00 0.00 0.00 0.00 0.00 0.00 0.00 0.01 0.00 0.00 0.00 0.00 0.00 0.00 0.01 0.11 0.03 0.10
0.04 0.06 0.05 0.04 0.05 0.03 0.02 0.01 0.00 0.05 0.41 0.35 0.34 0.49 0.33 0.21 0.10 0.26 0.50 0.22 0.04 0.02 0.01 0.00 0.00 0.00 0.00 0.00 0.00 0.00 0.00 0.00 0.00 0.00 0.00 0.00 0.01 0.00 0.00 0.00 0.00 0.00 0.00 0.00 0.09 0.34 0.31
0.04 0.04 0.05 0.04 0.05 0.03 0.01 0.00 0.00 0.03 0.17 0.36 0.34 0.30 0.18 0.20 0.16 0.29 0.20 0.10 0.05 0.01 0.00 0.00 0.00 0.00 0.00 0.00 0.00 0.00 0.00 0.00 0.00 0.00 0.00 0.00 0.01 0.00 0.00 0.00 0.01 0.06 0.04 0.08 0.45 0.61 0.13
0.03 0.03 0.03 0.04 0.05 0.02 0.01 0.00 0.00 0.02 0.01 0.11 0.08 0.03 0.03 0.07 0.16 0.16 0.11 0.05 0.04 0.00 0.00 0.00 0.00 0.00 0.00 0.00 0.00 0.00 0.00 0.00 0.00 0.00 0.00 0.00 0.01 0.00 0.00 0.00 0.00 0.02 0.06 0.10 0.41 0.30 0.42
0.03 0.03 0.02 0.03 0.04 0.01 0.00 0.00 0.00 0.02 0.08 0.16 0.05 0.03 0.03 0.03 0.03 0.06 0.06 0.03 0.02 0.00 0.00 0.00 0.00 0.00 0.00 0.00 0.00 0.00 0.00 0.00 0.00 0.00 0.00 0.00 0.02 0.01 0.00 0.00 0.03 0.09 0.06 0.13 0.15 0.13 0.15
0.03 0.02 0.02 0.02 0.03 0.01 0.01 0.00 0.00 0.00 0.05 0.05 0.01 0.03 0.04 0.02 0.01 0.01 0.01 0.01 0.01 0.00 0.00 0.00 0.00 0.00 0.00 0.00 0.00 0.00 0.00 0.00 0.00 0.00 0.01 0.02 0.03 0.06 0.02 0.02 0.01 0.10 0.13 0.08 0.03 0.03 0.03
0.02 0.02 0.01 0.02 0.03 0.01 0.01 0.00 0.00 0.00 0.05 0.07 0.08 0.13 0.09 0.02 0.01 0.00 0.00 0.00 0.01 0.01 0.01 0.00 0.00 0.00 0.00 0.00 0.00 0.00 0.00 0.00 0.01 0.01 0.01 0.02 0.03 0.07 0.04 0.02 0.08 0.07 0.04 0.01 0.01 0.02 0.02
0.02 0.01 0.01 0.02 0.02 0.01 0.01 0.00 0.00 0.00 0.01 0.03 0.18 0.18 0.12 0.04 0.02 0.00 0.00 0.00 0.00 0.00 0.00 0.00 0.00 0.00 0.01 0.02 0.03 0.01 0.01 0.01 0.00 0.00 0.01 0.01 0.03 0.10 0.06 0.03 0.03 0.00 0.00 0.00 0.05 0.14 0.08
0.01 0.01 0.00 0.01 0.02 0.01 0.01 0.00 0.00 0.00 0.01 0.01 0.14 0.20 0.13 0.06 0.02 0.00 0.00 0.00 0.01 0.00 0.01 0.03 0.06 0.04 0.04 0.06 0.04 0.02 0.01 0.00 0.00 0.02 0.01 0.01 0.03 0.15 0.06 0.07 0.01 0.00 0.00 0.00 0.03 0.18 0.25
0.01 0.01 0.01 0.01 0.01 0.00 0.00 0.00 0.00 0.00 0.01 0.01 0.04 0.17 0.08 0.07 0.03 0.01 0.01 0.01 0.00 0.01 0.03 0.05 0.04 0.04 0.09 0.10 0.03 0.02 0.01 0.00 0.01 0.02 0.01 0.02 0.05 0.11 0.07 0.14 0.01 0.00 0.00 0.00 0.00 0.09 0.09
0.01 0.01 0.01 0.02 0.01 0.01 0.00 0.00 0.00 0.00 0.01 0.00 0.02 0.09 0.07 0.06 0.05 0.01 0.02 0.02 0.01 0.02 0.01 0.01 0.03 0.02 0.08 0.09 0.04 0.01 0.01 0.01 0.00 0.01 0.00 0.01 0.01 0.02 0.03 0.05 0.00 0.00 0.00 0.00 0.00 0.00 0.00
0.01 0.01 0.01 0.01 0.01 0.01 0.00 0.00 0.00 0.00 0.00 0.00 0.02 0.04 0.07 0.05 0.05 0.02 0.00 0.00 0.00 0.01 0.01 0.01 0.04 0.03 0.05 0.05 0.02 0.02 0.02 0.01 0.00 0.00 0.00 0.00 0.00 0.01 0.00 0.00 0.00 0.00 0.00 0.00 0.00 0.00 0.00

GFSGBSN_prec_precacc12_048.txt.gz
Total_Precipitation_Accumulation
0.00 0.01 0.01 0.01 0.00 0.00 0.01 0.01 0.01 0.01 0.02 0.03 0.03 0.03 0.02 0.02 0.01 0.04 0.09 0.12 0.11 0.10 0.09 0.11 0.13 0.01 0.01 0.01 0.01 0.00 0.02 0.01 0.10 0.26 0.10 0.01 0.00 0.00 0.00 0.00 0.00 0.00 0.00 0.00 0.00 0.00 0.00
0.01 0.02 0.02 0.01 0.00 0.02 0.02 0.02 0.02 0.03 0.04 0.04 0.04 0.03 0.02 0.01 0.02 0.03 0.07 0.09 0.15 0.16 0.12 0.13 0.20 0.04 0.01 0.00 0.00 0.00 0.04 0.02 0.03 0.15 0.17 0.07 0.01 0.00 0.00 0.00 0.00 0.00 0.00 0.00 0.00 0.00 0.00
0.03 0.02 0.02 0.01 0.02 0.03 0.02 0.02 0.04 0.03 0.05 0.04 0.04 0.04 0.02 0.02 0.02 0.05 0.09 0.17 0.17 0.16 0.16 0.22 0.33 0.05 0.00 0.00 0.00 0.00 0.01 0.02 0.03 0.05 0.19 0.13 0.05 0.00 0.00 0.00 0.00 0.00 0.00 0.00 0.00 0.00 0.00
0.02 0.02 0.02 0.02 0.03 0.03 0.03 0.04 0.04 0.06 0.05 0.03 0.06 0.04 0.03 0.05 0.05 0.04 0.10 0.17 0.26 0.27 0.31 0.30 0.38 0.11 0.01 0.00 0.00 0.00 0.00 0.00 0.00 0.01 0.10 0.17 0.11 0.00 0.00 0.00 0.00 0.00 0.00 0.00 0.00 0.00 0.00
0.02 0.02 0.02 0.03 0.03 0.04 0.05 0.06 0.07 0.06 0.04 0.05 0.07 0.05 0.05 0.08 0.11 0.10 0.16 0.22 0.39 0.39 0.47 0.57 0.44 0.08 0.00 0.00 0.00 0.00 0.00 0.00 0.01 0.04 0.06 0.10 0.22 0.07 0.01 0.00 0.00 0.00 0.00 0.00 0.00 0.00 0.00
0.02 0.02 0.03 0.04 0.03 0.06 0.08 0.09 0.08 0.05 0.05 0.10 0.11 0.07 0.10 0.13 0.17 0.13 0.15 0.26 0.68 0.73 0.63 1.05 0.44 0.11 0.01 0.00 0.00 0.00 0.00 0.00 0.03 0.05 0.08 0.10 0.23 0.22 0.05 0.01 0.00 0.00 0.00 0.00 0.00 0.00 0.00
0.02 0.03 0.04 0.03 0.04 0.08 0.09 0.09 0.06 0.06 0.11 0.13 0.11 0.10 0.12 0.09 0.11 0.18 0.13 0.50 1.07 1.26 0.92 0.62 0.21 0.04 0.00 0.00 0.00 0.00 0.00 0.01 0.03 0.04 0.01 0.02 0.02 0.06 0.07 0.00 0.00 0.00 0.00 0.00 0.00 0.00 0.00
0.03 0.04 0.04 0.03 0.07 0.09 0.09 0.08 0.05 0.09 0.15 0.10 0.07 0.06 0.07 0.08 0.12 0.15 0.18 0.60 0.64 0.71 0.71 0.28 0.15 0.05 0.00 0.00 0.00 0.00 0.00 0.00 0.02 0.01 0.00 0.01 0.00 0.00 0.01 0.00 0.00 0.00 0.00 0.00 0.00 0.00 0.00
0.03 0.04 0.02 0.06 0.08 0.09 0.09 0.05 0.06 0.12 0.11 0.04 0.06 0.08 0.10 0.19 0.13 0.18 0.13 0.17 0.38 0.75 0.65 0.35 0.24 0.06 0.00 0.00 0.00 0.00 0.00 0.00 0.00 0.00 0.00 0.00 0.00 0.00 0.00 0.00 0.00 0.00 0.00 0.00 0.00 0.00 0.00
0.04 0.02 0.03 0.07 0.08 0.08 0.06 0.06 0.08 0.12 0.05 0.03 0.07 0.12 0.22 0.26 0.35 0.14 0.04 0.02 0.40 0.89 0.67 0.42 0.31 0.08 0.01 0.00 0.00 0.00 0.00 0.00 0.00 0.00 0.00 0.00 0.00 0.00 0.00 0.00 0.00 0.00 0.00 0.00 0.00 0.00 0.00
0.03 0.01 0.06 0.06 0.08 0.07 0.07 0.08 0.09 0.06 0.03 0.03 0.10 0.24 0.20 0.29 0.34 0.13 0.16 0.13 0.43 0.97 0.70 0.36 0.20 0.06 0.00 0.00 0.00 0.01 0.00 0.00 0.00 0.00 0.00 0.00 0.00 0.00 0.00 0.00 0.00 0.00 0.00 0.00 0.00 0.00 0.00
0.02 0.02 0.07 0.06 0.07 0.06 0.08 0.08 0.06 0.04 0.02 0.03 0.04 0.06 0.13 0.12 0.13 0.04 0.25 0.29 0.64 0.97 0.82 0.62 0.15 0.06 0.04 0.02 0.00 0.01 0.00 0.00 0.00 0.00 0.00 0.00 0.00 0.00 0.00 0.00 0.00 0.00 0.00 0.00 0.00 0.00 0.01
0.01 0.04 0.06 0.07 0.07 0.07 0.08 0.07 0.05 0.03 0.02 0.02 0.03 0.07 0.14 0.16 0.11 0.10 0.45 0.35 0.67 0.50 0.59 0.32 0.09 0.04 0.03 0.02 0.02 0.01 0.01 0.01 0.00 0.00 0.00 0.00 0.00 0.00 0.00 0.00 0.00 0.00 0.01 0.00 0.00 0.02 0.00
0.01 0.05 0.07 0.07 0.06 0.07 0.08 0.05 0.03 0.01 0.01 0.03 0.08 0.04 0.13 0.16 0.19 0.07 0.71 0.42 0.35 0.15 0.31 0.13 0.02 0.04 0.03 0.02 0.03 0.02 0.01 0.01 0.00 0.00 0.00 0.00 0.00 0.00 0.00 0.00 0.00 0.00 0.01 0.00 0.00 0.00 0.00
0.02 0.05 0.07 0.06 0.05 0.06 0.07 0.02 0.02 0.00 0.01 0.08 0.08 0.07 0.30 0.17 0.19 0.08 0.37 0.37 0.30 0.25 0.18 0.10 0.09 0.05 0.07 0.02 0.02 0.02 0.02 0.00 0.00 0.00 0.00 0.00 0.00 0.00 0.00 0.00 0.00 0.00 0.00 0.00 0.01 0.00 0.00
0.02 0.04 0.06 0.05 0.04 0.06 0.03 0.02 0.01 0.00 0.03 0.17 0.09 0.09 0.25 0.18 0.10 0.14 0.33 0.36 0.27 0.14 0.02 0.01 0.08 0.03 0.03 0.02 0.02 0.01 0.01 0.00 0.00 0.00 0.00 0.00 0.00 0.00 0.00 0.00 0.00 0.00 0.00 0.01 0.02 0.00 0.00
0.02 0.04 0.06 0.05 0.04 0.04 0.01 0.01 0.00 0.01 0.05 0.13 0.05 0.41 0.29 0.16 0.11 0.17 0.41 0.48 0.34 0.06 0.01 0.00 0.00 0.00 0.00 0.00 0.00 0.00 0.00 0.00 0.00 0.00 0.00 0.00 0.00 0.00 0.00 0.00 0.00 0.00 0.01 0.00 0.01 0.00 0.00
0.02 0.04 0.04 0.04 0.03 0.03 0.01 0.01 0.00 0.03 0.13 0.09 0.08 0.32 0.20 0.10 0.08 0.22 0.50 0.59 0.26 0.07 0.01 0.00 0.00 0.00 0.00 0.00 0.00 0.00 0.00 0.00 0.00 0.00 0.00 0.00 0.00 0.00 0.00 0.00 0.00 0.00 0.00 0.00 0.02 0.00 0.03
0.02 0.04 0.03 0.03 0.02 0.02 0.00 0.00 0.00 0.04 0.22 0.15 0.24 0.23 0.18 0.16 0.09 0.29 0.54 0.30 0.10 0.04 0.02 0.01 0.00 0.00 0.00 0.00 0.00 0.00 0.00 0.00 0.00 0.00 0.00 0.00 0.00 0.00 0.00 0.00 0.00 0.00 0.00 0.00 0.03 0.17 0.14
0.02 0.04 0.03 0.02 0.03 0.02 0.00 0.00 0.00 0.01 0.08 0.29 0.20 0.18 0.09 0.10 0.14 0.31 0.29 0.23 0.11 0.02 0.01 0.00 0.00 0.00 0.00 0.00 0.00 0.00 0.00 0.00 0.00 0.00 0.00 0.00 0.00 0.00 0.00 0.00 0.00 0.00 0.00 0.02 0.25 0.34 0.06
0.02 0.03 0.02 0.02 0.02 0.02 0.00 0.00 0.00 0.00 0.00 0.09 0.06 0.03 0.01 0.05 0.15 0.16 0.11 0.05 0.04 0.00 0.00 0.00 0.00 0.00 0.00 0.00 0.00 0.00 0.00 0.00 0.00 0.00 0.00 0.00 0.01 0.00 0.00 0.00 0.00 0.00 0.00 0.01 0.15 0.17 0.31
0.02 0.02 0.01 0.01 0.02 0.02 0.00 0.00 0.00 0.00 0.00 0.01 0.02 0.02 0.01 0.00 0.02 0.06 0.05 0.03 0.02 0.00 0.00 0.00 0.00 0.00 0.00 0.00 0.00 0.00 0.00 0.00 0.00 0.00 0.00 0.00 0.01 0.01 0.00 0.00 0.00 0.00 0.00 0.03 0.05 0.06 0.09
0.02 0.01 0.01 0.01 0.02 0.01 0.00 0.00 0.00 0.00 0.01 0.01 0.01 0.00 0.02 0.01 0.00 0.01 0.00 0.01 0.01 0.00 0.00 0.00 0.00 0.00 0.00 0.00 0.00 0.00 0.00 0.00 0.00 0.00 0.00 0.02 0.01 0.01 0.01 0.00 0.00 0.02 0.01 0.02 0.02 0.02 0.03
0.01 0.01 0.01 0.01 0.01 0.01 0.01 0.00 0.00 0.00 0.01 0.03 0.03 0.05 0.03 0.01 0.00 0.00 0.00 0.00 0.01 0.01 0.00 0.00 0.00 0.00 0.00 0.00 0.00 0.00 0.00 0.00 0.01 0.01 0.01 0.01 0.01 0.03 0.02 0.00 0.01 0.01 0.00 0.00 0.01 0.02 0.02
0.01 0.01 0.01 0.01 0.01 0.01 0.00 0.00 0.00 0.00 0.00 0.02 0.05 0.06 0.04 0.02 0.01 0.00 0.00 0.00 0.00 0.00 0.00 0.00 0.00 0.00 0.00 0.00 0.01 0.01 0.01 0.01 0.00 0.00 0.01 0.01 0.01 0.05 0.03 0.01 0.01 0.00 0.00 0.00 0.03 0.08 0.05
0.01 0.01 0.01 0.01 0.01 0.00 0.00 0.00 0.00 0.00 0.00 0.01 0.07 0.07 0.06 0.04 0.01 0.00 0.00 0.00 0.00 0.00 0.00 0.01 0.01 0.01 0.02 0.02 0.03 0.02 0.00 0.00 0.00 0.01 0.00 0.01 0.02 0.11 0.04 0.05 0.00 0.00 0.00 0.00 0.02 0.09 0.10
0.01 0.01 0.01 0.00 0.00 0.00 0.00 0.00 0.00 0.00 0.00 0.00 0.03 0.05 0.04 0.07 0.03 0.01 0.01 0.00 0.00 0.01 0.01 0.03 0.02 0.02 0.04 0.05 0.02 0.01 0.01 0.00 0.01 0.02 0.02 0.03 0.05 0.10 0.06 0.11 0.00 0.00 0.00 0.00 0.00 0.00 0.01
0.01 0.01 0.01 0.00 0.00 0.00 0.00 0.00 0.00 0.00 0.00 0.00 0.01 0.03 0.03 0.05 0.05 0.02 0.02 0.03 0.01 0.02 0.01 0.00 0.00 0.01 0.04 0.04 0.02 0.01 0.00 0.00 0.00 0.01 0.00 0.01 0.01 0.02 0.04 0.05 0.00 0.00 0.00 0.00 0.00 0.00 0.00
0.01 0.02 0.01 0.01 0.01 0.00 0.00 0.00 0.00 0.00 0.00 0.00 0.01 0.02 0.04 0.05 0.06 0.02 0.00 0.00 0.00 0.01 0.01 0.00 0.00 0.00 0.00 0.02 0.01 0.02 0.01 0.01 0.00 0.01 0.00 0.00 0.00 0.01 0.00 0.00 0.00 0.00 0.00 0.00 0.00 0.00 0.00

GFSGBSN_prec_precacc12_051.txt.gz
Total_Precipitation_Accumulation
0.01 0.02 0.01 0.01 0.01 0.01 0.02 0.02 0.02 0.02 0.03 0.05 0.04 0.05 0.06 0.03 0.02 0.01 0.02 0.06 0.11 0.11 0.10 0.11 0.17 0.36 0.21 0.02 0.01 0.00 0.03 0.01 0.10 0.22 0.07 0.01 0.00 0.00 0.00 0.00 0.00 0.00 0.00 0.00 0.00 0.00 0.00
0.02 0.02 0.02 0.02 0.01 0.02 0.03 0.03 0.03 0.03 0.05 0.05 0.05 0.06 0.04 0.04 0.02 0.02 0.02 0.05 0.15 0.17 0.13 0.13 0.21 0.38 0.20 0.01 0.00 0.00 0.05 0.03 0.04 0.17 0.13 0.07 0.01 0.00 0.00 0.00 0.00 0.00 0.00 0.00 0.00 0.00 0.00
0.03 0.02 0.03 0.03 0.02 0.03 0.03 0.04 0.05 0.04 0.06 0.05 0.06 0.06 0.03 0.06 0.04 0.05 0.06 0.07 0.12 0.16 0.17 0.22 0.36 0.41 0.16 0.00 0.00 0.00 0.03 0.08 0.10 0.10 0.18 0.12 0.05 0.00 0.00 0.00 0.00 0.00 0.00 0.00 0.00 0.00 0.00
0.02 0.03 0.03 0.03 0.03 0.03 0.05 0.06 0.06 0.07 0.06 0.05 0.08 0.05 0.04 0.07 0.07 0.05 0.06 0.07 0.15 0.28 0.34 0.30 0.41 0.44 0.15 0.00 0.00 0.00 0.00 0.03 0.06 0.12 0.16 0.20 0.14 0.01 0.00 0.00 0.00 0.00 0.00 0.00 0.00 0.00 0.00
0.02 0.02 0.03 0.04 0.03 0.04 0.07 0.06 0.08 0.07 0.05 0.07 0.10 0.05 0.07 0.09 0.13 0.10 0.08 0.06 0.13 0.38 0.48 0.57 0.49 0.25 0.04 0.00 0.00 0.00 0.00 0.00 0.02 0.07 0.14 0.21 0.30 0.09 0.01 0.00 0.00 0.00 0.00 0.00 0.00 0.00 0.00
0.03 0.03 0.04 0.04 0.03 0.06 0.08 0.09 0.08 0.05 0.06 0.12 0.11 0.07 0.08 0.12 0.17 0.13 0.09 0.03 0.13 0.61 0.61 1.05 0.56 0.35 0.06 0.00 0.00 0.00 0.00 0.01 0.10 0.14 0.14 0.18 0.48 0.31 0.06 0.01 0.00 0.00 0.00 0.00 0.00 0.00 0.00
0.03 0.03 0.05 0.03 0.05 0.08 0.09 0.09 0.06 0.07 0.11 0.14 0.10 0.05 0.08 0.07 0.08 0.20 0.09 0.01 0.27 0.99 0.90 0.63 0.27 0.17 0.02 0.00 0.00 0.00 0.00 0.02 0.16 0.13 0.04 0.07 0.17 0.31 0.10 0.00 0.00 0.00 0.00 0.00 0.00 0.00 0.00
0.03 0.04 0.03 0.03 0.08 0.08 0.08 0.08 0.06 0.09 0.13 0.09 0.05 0.03 0.07 0.08 0.12 0.16 0.10 0.03 0.29 0.65 0.70 0.31 0.21 0.15 0.02 0.00 0.00 0.00 0.00 0.02 0.07 0.04 0.01 0.01 0.03 0.05 0.12 0.09 0.00 0.00 0.00 0.00 0.00 0.00 0.00
0.03 0.04 0.01 0.06 0.07 0.08 0.07 0.06 0.07 0.11 0.10 0.04 0.02 0.05 0.09 0.16 0.11 0.17 0.10 0.01 0.17 0.60 0.60 0.40 0.28 0.16 0.02 0.00 0.00 0.00 0.00 0.02 0.03 0.01 0.00 0.00 0.00 0.02 0.02 0.11 0.03 0.00 0.00 0.00 0.00 0.00 0.00
0.03 0.02 0.02 0.07 0.07 0.07 0.06 0.06 0.08 0.11 0.06 0.02 0.02 0.06 0.17 0.21 0.30 0.14 0.04 0.02 0.12 0.66 0.60 0.53 0.37 0.18 0.02 0.00 0.00 0.00 0.00 0.01 0.01 0.01 0.00 0.00 0.00 0.00 0.00 0.00 0.00 0.00 0.00 0.00 0.00 0.00 0.00
0.04 0.01 0.05 0.06 0.07 0.06 0.06 0.07 0.08 0.05 0.03 0.02 0.03 0.06 0.12 0.27 0.31 0.12 0.13 0.11 0.15 0.58 0.59 0.40 0.31 0.14 0.01 0.00 0.00 0.03 0.01 0.00 0.00 0.00 0.00 0.00 0.00 0.00 0.00 0.00 0.00 0.00 0.00 0.00 0.00 0.00 0.00
0.02 0.02 0.06 0.06 0.06 0.05 0.06 0.07 0.06 0.04 0.03 0.03 0.04 0.06 0.14 0.15 0.15 0.05 0.17 0.16 0.20 0.57 0.85 0.80 0.35 0.12 0.05 0.01 0.00 0.02 0.00 0.00 0.00 0.00 0.00 0.00 0.00 0.00 0.00 0.00 0.00 0.00 0.00 0.00 0.00 0.00 0.00
0.01 0.02 0.05 0.05 0.05 0.04 0.06 0.07 0.04 0.03 0.03 0.03 0.06 0.06 0.11 0.13 0.11 0.10 0.19 0.11 0.17 0.35 0.68 0.52 0.19 0.04 0.03 0.02 0.02 0.02 0.01 0.00 0.00 0.01 0.01 0.00 0.00 0.00 0.00 0.00 0.00 0.00 0.00 0.00 0.00 0.00 0.00
0.00 0.02 0.05 0.05 0.04 0.04 0.06 0.04 0.03 0.01 0.01 0.04 0.08 0.03 0.10 0.17 0.16 0.05 0.27 0.14 0.14 0.14 0.44 0.23 0.02 0.03 0.03 0.02 0.05 0.02 0.01 0.00 0.00 0.00 0.00 0.00 0.00 0.00 0.00 0.00 0.00 0.00 0.00 0.00 0.00 0.00 0.00
0.00 0.02 0.04 0.04 0.04 0.03 0.05 0.02 0.01 0.01 0.03 0.09 0.06 0.04 0.21 0.16 0.13 0.01 0.17 0.17 0.28 0.41 0.38 0.14 0.09 0.05 0.08 0.02 0.03 0.02 0.01 0.00 0.00 0.00 0.00 0.00 0.00 0.00 0.00 0.00 0.00 0.00 0.00 0.00 0.00 0.00 0.00
0.01 0.02 0.05 0.04 0.03 0.03 0.02 0.01 0.00 0.01 0.05 0.11 0.04 0.04 0.17 0.13 0.05 0.03 0.19 0.28 0.39 0.25 0.05 0.01 0.11 0.05 0.04 0.02 0.02 0.01 0.01 0.00 0.00 0.00 0.00 0.00 0.00 0.00 0.00 0.00 0.00 0.00 0.00 0.00 0.01 0.00 0.00
0.01 0.02 0.04 0.03 0.03 0.02 0.01 0.01 0.00 0.02 0.05 0.07 0.03 0.21 0.16 0.09 0.06 0.09 0.25 0.48 0.39 0.07 0.01 0.00 0.00 0.00 0.00 0.00 0.00 0.00 0.00 0.00 0.00 0.00 0.00 0.00 0.00 0.00 0.00 0.00 0.00 0.00 0.00 0.00 0.00 0.00 0.00
0.01 0.03 0.03 0.02 0.02 0.02 0.01 0.01 0.00 0.03 0.10 0.05 0.02 0.07 0.14 0.05 0.03 0.09 0.40 0.62 0.31 0.09 0.01 0.00 0.00 0.00 0.00 0.00 0.00 0.00 0.00 0.00 0.00 0.00 0.00 0.00 0.00 0.00 0.00 0.00 0.00 0.00 0.00 0.00 0.00 0.00 0.00
0.01 0.03 0.02 0.02 0.01 0.02 0.00 0.00 0.00 0.02 0.11 0.05 0.03 0.04 0.08 0.08 0.05 0.23 0.49 0.29 0.10 0.04 0.02 0.01 0.00 0.00 0.00 0.00 0.00 0.00 0.00 0.00 0.00 0.00 0.00 0.00 0.00 0.00 0.00 0.00 0.00 0.00 0.00 0.00 0.01 0.07 0.05
0.01 0.02 0.02 0.02 0.02 0.02 0.00 0.00 0.00 0.00 0.06 0.14 0.01 0.06 0.06 0.09 0.13 0.33 0.31 0.21 0.11 0.02 0.01 0.00 0.00 0.00 0.00 0.00 0.00 0.00 0.00 0.00 0.00 0.00 0.00 0.00 0.00 0.00 0.00 0.00 0.00 0.00 0.00 0.00 0.08 0.15 0.03
0.01 0.02 0.01 0.01 0.02 0.02 0.00 0.00 0.00 0.00 0.00 0.01 0.02 0.01 0.01 0.05 0.15 0.16 0.10 0.04 0.02 0.00 0.00 0.00 0.00 0.00 0.00 0.00 0.00 0.00 0.00 0.00 0.00 0.00 0.00 0.00 0.00 0.00 0.00 0.00 0.00 0.00 0.00 0.00 0.06 0.05 0.16
0.01 0.02 0.01 0.01 0.01 0.01 0.00 0.00 0.00 0.00 0.00 0.00 0.00 0.00 0.00 0.00 0.02 0.05 0.05 0.03 0.01 0.00 0.00 0.00 0.00 0.00 0.00 0.00 0.00 0.00 0.00 0.00 0.00 0.00 0.00 0.00 0.00 0.00 0.00 0.00 0.00 0.00 0.00 0.00 0.00 0.01 0.02
0.01 0.01 0.01 0.00 0.01 0.01 0.00 0.00 0.00 0.00 0.00 0.00 0.00 0.00 0.01 0.00 0.00 0.00 0.00 0.01 0.01 0.00 0.00 0.00 0.00 0.00 0.00 0.00 0.00 0.00 0.00 0.00 0.00 0.00 0.00 0.01 0.00 0.01 0.00 0.00 0.00 0.01 0.00 0.00 0.00 0.01 0.01
0.01 0.01 0.01 0.00 0.01 0.01 0.00 0.00 0.00 0.00 0.01 0.01 0.01 0.02 0.01 0.01 0.00 0.00 0.00 0.00 0.01 0.01 0.00 0.00 0.00 0.00 0.00 0.00 0.00 0.00 0.00 0.00 0.00 0.00 0.00 0.01 0.00 0.01 0.01 0.00 0.00 0.00 0.00 0.00 0.00 0.01 0.01
0.01 0.01 0.00 0.00 0.00 0.01 0.00 0.00 0.00 0.00 0.00 0.01 0.01 0.02 0.02 0.01 0.00 0.00 0.00 0.00 0.00 0.00 0.00 0.00 0.00 0.00 0.00 0.00 0.00 0.00 0.00 0.00 0.00 0.00 0.00 0.00 0.00 0.01 0.01 0.00 0.00 0.00 0.00 0.00 0.00 0.00 0.01
0.01 0.01 0.01 0.00 0.00 0.00 0.00 0.00 0.00 0.00 0.00 0.00 0.02 0.02 0.02 0.02 0.01 0.00 0.00 0.00 0.00 0.00 0.00 0.00 0.00 0.00 0.00 0.00 0.00 0.00 0.00 0.00 0.00 0.01 0.00 0.01 0.01 0.04 0.03 0.02 0.00 0.00 0.00 0.00 0.00 0.00 0.00
0.01 0.01 0.01 0.00 0.00 0.00 0.00 0.00 0.00 0.00 0.00 0.00 0.01 0.00 0.02 0.05 0.02 0.00 0.00 0.00 0.00 0.00 0.01 0.02 0.00 0.01 0.00 0.01 0.00 0.00 0.00 0.00 0.01 0.01 0.02 0.03 0.05 0.06 0.04 0.06 0.00 0.00 0.00 0.00 0.00 0.00 0.00
0.01 0.01 0.01 0.00 0.00 0.00 0.00 0.00 0.00 0.00 0.00 0.00 0.00 0.01 0.02 0.04 0.04 0.02 0.02 0.02 0.01 0.01 0.01 0.00 0.00 0.01 0.01 0.01 0.00 0.00 0.00 0.00 0.00 0.01 0.00 0.01 0.01 0.01 0.03 0.03 0.00 0.00 0.00 0.00 0.00 0.00 0.00
0.01 0.02 0.01 0.01 0.01 0.01 0.00 0.00 0.00 0.00 0.00 0.00 0.00 0.02 0.02 0.04 0.04 0.02 0.00 0.00 0.00 0.01 0.01 0.00 0.00 0.00 0.00 0.01 0.00 0.01 0.01 0.00 0.00 0.01 0.00 0.00 0.00 0.00 0.00 0.00 0.00 0.00 0.00 0.00 0.00 0.00 0.00

GFSGBSN_prec_precacc12_054.txt.gz
Total_Precipitation_Accumulation
0.02 0.02 0.02 0.02 0.03 0.01 0.02 0.03 0.04 0.04 0.04 0.06 0.06 0.07 0.07 0.05 0.04 0.03 0.05 0.03 0.01 0.07 0.10 0.12 0.18 0.37 0.46 0.19 0.02 0.01 0.03 0.02 0.07 0.13 0.03 0.03 0.00 0.00 0.00 0.00 0.00 0.00 0.00 0.00 0.00 0.00 0.00
0.03 0.02 0.03 0.02 0.02 0.03 0.03 0.04 0.05 0.05 0.06 0.07 0.07 0.07 0.04 0.05 0.03 0.04 0.05 0.04 0.04 0.07 0.11 0.14 0.22 0.40 0.37 0.10 0.01 0.00 0.05 0.05 0.05 0.14 0.06 0.06 0.01 0.00 0.00 0.00 0.00 0.00 0.00 0.00 0.00 0.00 0.00
0.03 0.02 0.03 0.03 0.03 0.03 0.04 0.06 0.06 0.05 0.08 0.08 0.07 0.06 0.03 0.06 0.05 0.06 0.09 0.06 0.03 0.04 0.13 0.23 0.38 0.44 0.29 0.04 0.01 0.00 0.03 0.15 0.11 0.09 0.10 0.08 0.05 0.00 0.00 0.00 0.00 0.00 0.00 0.00 0.00 0.00 0.00
0.01 0.02 0.03 0.03 0.03 0.03 0.06 0.06 0.06 0.08 0.08 0.06 0.10 0.05 0.04 0.08 0.07 0.06 0.08 0.06 0.02 0.10 0.29 0.35 0.43 0.48 0.21 0.01 0.01 0.00 0.03 0.10 0.11 0.22 0.22 0.22 0.14 0.02 0.00 0.00 0.00 0.00 0.00 0.00 0.00 0.00 0.00
0.02 0.03 0.03 0.04 0.03 0.05 0.07 0.06 0.08 0.07 0.05 0.09 0.11 0.06 0.08 0.08 0.11 0.10 0.09 0.07 0.02 0.05 0.30 0.60 0.52 0.28 0.07 0.01 0.03 0.00 0.02 0.06 0.04 0.16 0.27 0.34 0.40 0.11 0.01 0.00 0.00 0.00 0.00 0.00 0.00 0.00 0.00
0.02 0.03 0.03 0.02 0.03 0.07 0.08 0.07 0.07 0.05 0.07 0.11 0.11 0.08 0.05 0.08 0.11 0.08 0.08 0.03 0.00 0.02 0.28 1.03 0.58 0.41 0.07 0.02 0.02 0.00 0.00 0.02 0.13 0.18 0.27 0.27 0.55 0.35 0.06 0.01 0.00 0.00 0.00 0.00 0.00 0.00 0.00
0.03 0.03 0.03 0.01 0.05 0.08 0.07 0.07 0.05 0.07 0.10 0.12 0.09 0.04 0.02 0.05 0.08 0.18 0.08 0.00 0.03 0.14 0.49 0.59 0.29 0.23 0.03 0.05 0.03 0.01 0.00 0.04 0.29 0.24 0.21 0.29 0.29 0.37 0.10 0.00 0.00 0.00 0.00 0.00 0.00 0.00 0.00
0.02 0.03 0.02 0.03 0.06 0.08 0.06 0.06 0.05 0.09 0.10 0.08 0.04 0.01 0.03 0.07 0.12 0.15 0.08 0.01 0.03 0.19 0.41 0.26 0.27 0.24 0.05 0.09 0.03 0.00 0.00 0.04 0.15 0.14 0.14 0.25 0.25 0.13 0.17 0.10 0.01 0.00 0.00 0.00 0.00 0.00 0.00
0.02 0.03 0.01 0.05 0.07 0.08 0.06 0.05 0.07 0.09 0.07 0.04 0.02 0.03 0.06 0.12 0.13 0.16 0.08 0.01 0.02 0.18 0.31 0.34 0.36 0.22 0.09 0.06 0.01 0.00 0.00 0.05 0.09 0.05 0.07 0.09 0.07 0.13 0.10 0.22 0.07 0.00 0.00 0.00 0.00 0.00 0.00
0.03 0.02 0.02 0.06 0.06 0.06 0.05 0.05 0.08 0.07 0.06 0.03 0.05 0.08 0.13 0.30 0.31 0.13 0.04 0.02 0.01 0.16 0.27 0.48 0.39 0.22 0.14 0.04 0.00 0.00 0.01 0.04 0.05 0.06 0.03 0.02 0.00 0.06 0.05 0.08 0.11 0.02 0.00 0.00 0.00 0.00 0.00
0.02 0.00 0.03 0.04 0.05 0.05 0.04 0.06 0.06 0.04 0.04 0.04 0.08 0.09 0.14 0.31 0.23 0.14 0.10 0.08 0.01 0.16 0.36 0.37 0.35 0.21 0.15 0.02 0.00 0.03 0.02 0.01 0.01 0.06 0.01 0.01 0.00 0.00 0.01 0.01 0.03 0.00 0.00 0.00 0.00 0.00 0.00
0.01 0.01 0.03 0.04 0.04 0.04 0.04 0.07 0.03 0.03 0.04 0.05 0.08 0.08 0.13 0.13 0.13 0.06 0.07 0.05 0.03 0.20 0.72 0.77 0.43 0.20 0.10 0.03 0.00 0.02 0.02 0.00 0.01 0.00 0.00 0.00 0.00 0.00 0.00 0.00 0.00 0.00 0.00 0.00 0.00 0.00 0.00
0.00 0.00 0.03 0.04 0.04 0.03 0.04 0.05 0.02 0.02 0.05 0.06 0.08 0.08 0.10 0.09 0.05 0.04 0.08 0.03 0.04 0.24 0.65 0.62 0.32 0.07 0.03 0.03 0.03 0.04 0.02 0.00 0.00 0.02 0.02 0.00 0.00 0.00 0.00 0.00 0.00 0.00 0.00 0.00 0.00 0.00 0.00
0.00 0.01 0.03 0.04 0.04 0.03 0.04 0.02 0.02 0.01 0.03 0.06 0.08 0.02 0.05 0.12 0.07 0.02 0.04 0.02 0.12 0.15 0.51 0.40 0.04 0.02 0.04 0.03 0.07 0.05 0.01 0.00 0.00 0.00 0.00 0.00 0.00 0.00 0.00 0.00 0.00 0.00 0.00 0.00 0.00 0.00 0.00
0.00 0.01 0.03 0.03 0.03 0.02 0.03 0.01 0.00 0.01 0.04 0.08 0.04 0.04 0.10 0.09 0.06 0.00 0.02 0.12 0.20 0.49 0.60 0.22 0.09 0.04 0.08 0.04 0.07 0.02 0.01 0.00 0.00 0.00 0.00 0.00 0.00 0.00 0.00 0.00 0.00 0.00 0.00 0.00 0.00 0.00 0.00
0.00 0.01 0.03 0.03 0.02 0.02 0.02 0.01 0.00 0.01 0.05 0.08 0.01 0.01 0.06 0.06 0.01 0.01 0.12 0.28 0.37 0.29 0.08 0.01 0.12 0.06 0.03 0.02 0.02 0.01 0.01 0.00 0.00 0.00 0.00 0.00 0.00 0.00 0.00 0.00 0.00 0.00 0.00 0.00 0.00 0.00 0.00
0.00 0.01 0.03 0.02 0.02 0.01 0.01 0.00 0.00 0.02 0.04 0.05 0.00 0.01 0.06 0.01 0.00 0.02 0.21 0.33 0.38 0.07 0.01 0.00 0.00 0.00 0.00 0.00 0.00 0.00 0.00 0.00 0.00 0.00 0.00 0.00 0.00 0.00 0.00 0.00 0.00 0.00 0.00 0.00 0.00 0.00 0.00
0.00 0.01 0.02 0.01 0.01 0.01 0.00 0.00 0.00 0.03 0.08 0.02 0.00 0.01 0.04 0.02 0.01 0.06 0.34 0.50 0.31 0.09 0.01 0.00 0.00 0.00 0.00 0.00 0.00 0.00 0.00 0.00 0.00 0.00 0.00 0.00 0.00 0.00 0.00 0.00 0.00 0.00 0.00 0.00 0.00 0.00 0.00
0.01 0.01 0.01 0.01 0.01 0.01 0.00 0.00 0.00 0.02 0.08 0.01 0.00 0.01 0.02 0.02 0.02 0.13 0.35 0.24 0.10 0.04 0.02 0.01 0.00 0.00 0.00 0.00 0.00 0.00 0.00 0.00 0.00 0.00 0.00 0.00 0.00 0.00 0.00 0.00 0.00 0.00 0.00 0.00 0.00 0.01 0.01
0.00 0.01 0.01 0.01 0.01 0.01 0.00 0.00 0.00 0.00 0.01 0.00 0.00 0.01 0.01 0.03 0.07 0.15 0.23 0.18 0.10 0.01 0.01 0.00 0.00 0.00 0.00 0.00 0.00 0.00 0.00 0.00 0.00 0.00 0.00 0.00 0.00 0.00 0.00 0.00 0.00 0.00 0.00 0.00 0.00 0.04 0.01
0.01 0.01 0.01 0.01 0.01 0.01 0.00 0.00 0.00 0.00 0.00 0.00 0.00 0.00 0.00 0.04 0.13 0.06 0.05 0.02 0.01 0.00 0.00 0.00 0.00 0.00 0.00 0.00 0.00 0.00 0.00 0.00 0.00 0.00 0.00 0.00 0.00 0.00 0.00 0.00 0.00 0.00 0.00 0.00 0.01 0.01 0.08
0.00 0.01 0.00 0.00 0.01 0.01 0.00 0.00 0.00 0.00 0.00 0.00 0.00 0.00 0.00 0.00 0.02 0.04 0.03 0.02 0.01 0.00 0.00 0.00 0.00 0.00 0.00 0.00 0.00 0.00 0.00 0.00 0.00 0.00 0.00 0.00 0.00 0.00 0.00 0.00 0.00 0.00 0.00 0.00 0.00 0.00 0.00
0.00 0.01 0.01 0.00 0.01 0.01 0.00 0.00 0.00 0.00 0.00 0.00 0.00 0.00 0.00 0.00 0.00 0.00 0.00 0.00 0.00 0.00 0.00 0.00 0.00 0.00 0.00 0.00 0.00 0.00 0.00 0.00 0.00 0.00 0.00 0.00 0.00 0.00 0.00 0.00 0.00 0.00 0.00 0.00 0.00 0.00 0.00
0.00 0.01 0.01 0.00 0.00 0.00 0.00 0.00 0.00 0.00 0.00 0.01 0.01 0.02 0.00 0.00 0.00 0.00 0.00 0.00 0.00 0.00 0.00 0.00 0.00 0.00 0.00 0.00 0.00 0.00 0.00 0.00 0.00 0.00 0.00 0.00 0.00 0.00 0.00 0.00 0.00 0.00 0.00 0.00 0.00 0.00 0.00
0.00 0.01 0.01 0.00 0.00 0.00 0.00 0.00 0.00 0.00 0.00 0.00 0.01 0.02 0.01 0.00 0.00 0.00 0.00 0.00 0.00 0.00 0.00 0.00 0.00 0.00 0.00 0.00 0.00 0.00 0.00 0.00 0.00 0.00 0.00 0.00 0.00 0.00 0.00 0.00 0.00 0.00 0.00 0.00 0.00 0.00 0.00
0.01 0.01 0.01 0.01 0.00 0.00 0.00 0.00 0.00 0.00 0.00 0.00 0.01 0.01 0.01 0.01 0.00 0.00 0.00 0.00 0.00 0.00 0.00 0.00 0.00 0.00 0.00 0.00 0.00 0.00 0.00 0.00 0.00 0.00 0.00 0.01 0.01 0.01 0.03 0.01 0.00 0.00 0.00 0.00 0.00 0.00 0.00
0.01 0.01 0.01 0.01 0.01 0.00 0.00 0.00 0.00 0.00 0.00 0.00 0.00 0.00 0.01 0.03 0.00 0.00 0.00 0.00 0.00 0.00 0.00 0.01 0.00 0.00 0.00 0.00 0.00 0.00 0.00 0.00 0.00 0.01 0.01 0.03 0.04 0.04 0.03 0.03 0.00 0.00 0.00 0.00 0.00 0.00 0.00
0.01 0.01 0.01 0.01 0.01 0.01 0.00 0.00 0.00 0.00 0.00 0.00 0.00 0.01 0.01 0.03 0.01 0.01 0.01 0.01 0.00 0.00 0.00 0.00 0.00 0.00 0.01 0.00 0.00 0.00 0.00 0.00 0.00 0.00 0.00 0.01 0.01 0.02 0.02 0.02 0.00 0.00 0.00 0.00 0.00 0.00 0.00
0.01 0.02 0.01 0.01 0.02 0.01 0.00 0.01 0.00 0.00 0.00 0.00 0.00 0.02 0.02 0.05 0.03 0.01 0.00 0.00 0.00 0.00 0.00 0.00 0.00 0.00 0.00 0.00 0.00 0.00 0.00 0.00 0.00 0.01 0.00 0.00 0.00 0.00 0.00 0.00 0.00 0.00 0.00 0.00 0.00 0.00 0.00

GFSGBSN_prec_precacc12_057.txt.gz
Total_Precipitation_Accumulation
0.03 0.02 0.02 0.02 0.03 0.03 0.03 0.03 0.05 0.05 0.05 0.06 0.08 0.09 0.08 0.05 0.04 0.02 0.05 0.04 0.01 0.04 0.04 0.10 0.19 0.38 0.50 0.23 0.06 0.06 0.05 0.01 0.03 0.06 0.01 0.03 0.01 0.01 0.00 0.00 0.00 0.00 0.00 0.00 0.00 0.00 0.00
0.03 0.02 0.02 0.02 0.03 0.03 0.03 0.05 0.06 0.05 0.06 0.08 0.10 0.10 0.05 0.05 0.04 0.04 0.06 0.05 0.06 0.07 0.04 0.09 0.25 0.44 0.44 0.16 0.01 0.02 0.06 0.06 0.04 0.07 0.01 0.03 0.01 0.00 0.00 0.00 0.00 0.00 0.00 0.00 0.00 0.00 0.00
0.01 0.02 0.02 0.03 0.03 0.02 0.04 0.06 0.06 0.04 0.07 0.08 0.09 0.07 0.03 0.07 0.06 0.07 0.09 0.06 0.03 0.02 0.02 0.15 0.41 0.50 0.33 0.07 0.01 0.02 0.03 0.17 0.13 0.08 0.02 0.02 0.03 0.00 0.00 0.00 0.00 0.00 0.00 0.00 0.00 0.00 0.00
0.01 0.02 0.03 0.03 0.02 0.02 0.06 0.06 0.06 0.05 0.07 0.06 0.11 0.06 0.06 0.10 0.08 0.06 0.07 0.05 0.02 0.08 0.14 0.22 0.50 0.52 0.22 0.01 0.01 0.02 0.04 0.17 0.14 0.22 0.19 0.19 0.13 0.02 0.00 0.00 0.00 0.00 0.00 0.00 0.00 0.00 0.00
0.02 0.02 0.02 0.03 0.01 0.04 0.08 0.06 0.06 0.05 0.05 0.09 0.12 0.08 0.09 0.07 0.08 0.05 0.05 0.06 0.02 0.02 0.04 0.28 0.57 0.30 0.08 0.02 0.04 0.02 0.05 0.14 0.09 0.20 0.33 0.48 0.46 0.13 0.00 0.00 0.00 0.00 0.00 0.00 0.00 0.00 0.00
0.02 0.02 0.03 0.02 0.02 0.07 0.09 0.07 0.05 0.05 0.08 0.10 0.11 0.07 0.04 0.04 0.06 0.06 0.05 0.01 0.00 0.00 0.04 0.55 0.56 0.41 0.08 0.02 0.06 0.03 0.02 0.13 0.20 0.23 0.36 0.41 0.65 0.37 0.05 0.01 0.00 0.00 0.00 0.00 0.00 0.00 0.00
0.01 0.02 0.03 0.01 0.04 0.08 0.07 0.06 0.04 0.08 0.08 0.08 0.07 0.04 0.01 0.03 0.08 0.15 0.06 0.00 0.01 0.05 0.12 0.34 0.26 0.25 0.05 0.06 0.10 0.04 0.03 0.13 0.41 0.30 0.34 0.37 0.31 0.38 0.10 0.00 0.00 0.00 0.00 0.00 0.00 0.00 0.00
0.01 0.03 0.02 0.02 0.04 0.07 0.05 0.05 0.07 0.09 0.07 0.07 0.06 0.03 0.05 0.10 0.10 0.15 0.06 0.00 0.00 0.01 0.02 0.14 0.25 0.28 0.07 0.11 0.17 0.04 0.04 0.11 0.22 0.20 0.37 0.52 0.27 0.13 0.17 0.11 0.01 0.00 0.00 0.00 0.00 0.00 0.00
0.02 0.02 0.01 0.03 0.04 0.06 0.04 0.04 0.09 0.06 0.06 0.06 0.05 0.08 0.15 0.20 0.28 0.17 0.05 0.01 0.01 0.01 0.03 0.11 0.29 0.31 0.15 0.13 0.12 0.02 0.03 0.08 0.14 0.22 0.28 0.52 0.18 0.17 0.16 0.25 0.08 0.00 0.00 0.00 0.00 0.00 0.00
0.02 0.01 0.01 0.03 0.05 0.05 0.04 0.05 0.08 0.04 0.07 0.05 0.07 0.14 0.20 0.33 0.32 0.10 0.02 0.01 0.00 0.01 0.07 0.26 0.30 0.28 0.19 0.19 0.09 0.00 0.02 0.09 0.13 0.31 0.23 0.29 0.25 0.19 0.19 0.19 0.13 0.02 0.00 0.00 0.00 0.00 0.00
0.01 0.00 0.01 0.03 0.05 0.05 0.03 0.05 0.04 0.03 0.07 0.05 0.08 0.12 0.18 0.29 0.19 0.11 0.06 0.03 0.00 0.04 0.18 0.24 0.34 0.32 0.31 0.16 0.04 0.03 0.03 0.02 0.04 0.15 0.10 0.17 0.15 0.14 0.23 0.17 0.09 0.05 0.00 0.00 0.00 0.00 0.00
0.00 0.00 0.02 0.03 0.03 0.04 0.03 0.05 0.02 0.02 0.06 0.06 0.07 0.08 0.13 0.12 0.11 0.05 0.01 0.02 0.01 0.09 0.53 0.58 0.50 0.35 0.26 0.05 0.00 0.02 0.04 0.01 0.01 0.12 0.02 0.03 0.04 0.02 0.04 0.03 0.03 0.02 0.00 0.00 0.00 0.00 0.00
0.00 0.00 0.02 0.04 0.03 0.02 0.03 0.04 0.01 0.02 0.06 0.07 0.08 0.06 0.08 0.07 0.03 0.01 0.05 0.02 0.04 0.20 0.43 0.57 0.44 0.12 0.09 0.04 0.03 0.06 0.08 0.01 0.01 0.07 0.04 0.01 0.00 0.00 0.00 0.00 0.00 0.00 0.00 0.00 0.00 0.00 0.00
0.00 0.00 0.02 0.02 0.02 0.02 0.04 0.02 0.01 0.01 0.03 0.06 0.07 0.01 0.03 0.06 0.02 0.01 0.02 0.03 0.13 0.14 0.41 0.44 0.07 0.05 0.06 0.03 0.07 0.05 0.04 0.00 0.00 0.00 0.00 0.00 0.00 0.00 0.00 0.00 0.00 0.00 0.00 0.00 0.00 0.00 0.00
0.00 0.01 0.02 0.02 0.02 0.01 0.03 0.01 0.00 0.01 0.04 0.06 0.02 0.00 0.02 0.02 0.01 0.00 0.01 0.12 0.20 0.43 0.63 0.23 0.07 0.04 0.08 0.04 0.08 0.03 0.02 0.00 0.00 0.00 0.00 0.00 0.00 0.00 0.00 0.00 0.00 0.00 0.00 0.00 0.00 0.00 0.00
0.00 0.00 0.01 0.01 0.01 0.01 0.02 0.01 0.00 0.01 0.04 0.04 0.00 0.00 0.01 0.00 0.00 0.01 0.09 0.25 0.30 0.22 0.07 0.00 0.09 0.05 0.03 0.03 0.02 0.01 0.00 0.00 0.00 0.00 0.00 0.00 0.00 0.00 0.00 0.00 0.00 0.00 0.00 0.00 0.00 0.00 0.00
0.00 0.00 0.01 0.01 0.01 0.01 0.01 0.00 0.00 0.01 0.02 0.02 0.00 0.01 0.01 0.00 0.00 0.01 0.12 0.23 0.23 0.04 0.01 0.00 0.00 0.00 0.00 0.00 0.00 0.00 0.00 0.00 0.00 0.00 0.00 0.00 0.00 0.00 0.00 0.00 0.00 0.00 0.00 0.00 0.00 0.00 0.00
0.00 0.01 0.01 0.00 0.01 0.00 0.00 0.00 0.00 0.01 0.02 0.00 0.00 0.00 0.00 0.00 0.01 0.04 0.21 0.24 0.18 0.06 0.00 0.00 0.00 0.00 0.00 0.00 0.00 0.00 0.00 0.00 0.00 0.00 0.00 0.00 0.00 0.00 0.00 0.00 0.00 0.00 0.00 0.00 0.00 0.00 0.00
0.00 0.00 0.00 0.01 0.00 0.00 0.00 0.00 0.00 0.00 0.01 0.00 0.00 0.00 0.00 0.00 0.01 0.11 0.22 0.12 0.07 0.02 0.01 0.00 0.00 0.00 0.00 0.00 0.00 0.00 0.00 0.00 0.00 0.00 0.00 0.00 0.00 0.00 0.00 0.00 0.00 0.00 0.00 0.00 0.00 0.00 0.00
0.00 0.01 0.00 0.00 0.00 0.00 0.00 0.00 0.00 0.00 0.00 0.00 0.00 0.00 0.00 0.00 0.00 0.06 0.17 0.15 0.07 0.01 0.00 0.00 0.00 0.00 0.00 0.00 0.00 0.00 0.00 0.00 0.00 0.00 0.00 0.00 0.00 0.00 0.00 0.00 0.00 0.00 0.00 0.00 0.00 0.01 0.00
0.00 0.00 0.01 0.00 0.00 0.00 0.00 0.00 0.00 0.00 0.00 0.00 0.00 0.00 0.00 0.01 0.01 0.00 0.01 0.00 0.00 0.00 0.00 0.00 0.00 0.00 0.00 0.00 0.00 0.00 0.00 0.00 0.00 0.00 0.00 0.00 0.00 0.00 0.00 0.00 0.00 0.00 0.00 0.00 0.00 0.00 0.02
0.00 0.00 0.00 0.00 0.00 0.00 0.00 0.00 0.00 0.00 0.00 0.00 0.00 0.00 0.00 0.00 0.00 0.00 0.00 0.00 0.00 0.00 0.00 0.00 0.00 0.00 0.00 0.00 0.00 0.00 0.00 0.00 0.00 0.00 0.00 0.00 0.00 0.00 0.00 0.00 0.00 0.00 0.00 0.00 0.00 0.00 0.00
0.00 0.00 0.00 0.00 0.00 0.00 0.00 0.00 0.00 0.00 0.00 0.00 0.00 0.00 0.01 0.00 0.00 0.00 0.00 0.00 0.00 0.00 0.00 0.00 0.00 0.00 0.00 0.00 0.00 0.00 0.00 0.00 0.00 0.00 0.00 0.00 0.00 0.00 0.00 0.00 0.00 0.00 0.00 0.00 0.00 0.00 0.00
0.00 0.00 0.01 0.00 0.00 0.00 0.00 0.00 0.00 0.00 0.00 0.00 0.01 0.02 0.00 0.00 0.00 0.00 0.00 0.00 0.00 0.00 0.00 0.00 0.00 0.00 0.00 0.00 0.00 0.00 0.00 0.00 0.00 0.00 0.00 0.00 0.00 0.00 0.00 0.00 0.00 0.00 0.00 0.00 0.00 0.00 0.00
0.00 0.01 0.01 0.00 0.00 0.00 0.00 0.00 0.00 0.00 0.00 0.00 0.01 0.02 0.01 0.00 0.00 0.00 0.00 0.00 0.00 0.00 0.00 0.00 0.00 0.00 0.00 0.00 0.00 0.00 0.00 0.00 0.00 0.00 0.00 0.00 0.00 0.00 0.00 0.00 0.00 0.00 0.00 0.00 0.00 0.00 0.00
0.00 0.00 0.01 0.01 0.01 0.00 0.00 0.00 0.00 0.00 0.00 0.00 0.00 0.00 0.00 0.01 0.00 0.00 0.00 0.00 0.00 0.00 0.00 0.00 0.00 0.00 0.00 0.00 0.00 0.00 0.00 0.00 0.00 0.00 0.00 0.00 0.00 0.01 0.02 0.01 0.00 0.00 0.00 0.00 0.00 0.00 0.00
0.00 0.01 0.01 0.01 0.01 0.00 0.00 0.00 0.00 0.00 0.00 0.00 0.00 0.00 0.01 0.01 0.00 0.00 0.00 0.00 0.00 0.00 0.00 0.01 0.00 0.00 0.00 0.00 0.00 0.00 0.00 0.00 0.00 0.00 0.01 0.03 0.03 0.02 0.01 0.02 0.00 0.00 0.00 0.00 0.00 0.00 0.00
0.00 0.01 0.01 0.00 0.00 0.01 0.01 0.00 0.00 0.00 0.00 0.00 0.00 0.00 0.01 0.01 0.00 0.00 0.00 0.00 0.00 0.00 0.00 0.00 0.00 0.00 0.00 0.00 0.00 0.00 0.00 0.00 0.00 0.00 0.00 0.01 0.00 0.01 0.01 0.02 0.00 0.00 0.00 0.00 0.00 0.00 0.00
0.00 0.01 0.01 0.01 0.01 0.01 0.01 0.01 0.01 0.01 0.00 0.00 0.00 0.01 0.01 0.02 0.01 0.00 0.00 0.00 0.00 0.00 0.00 0.00 0.00 0.00 0.00 0.00 0.00 0.00 0.00 0.00 0.00 0.00 0.00 0.00 0.00 0.00 0.00 0.00 0.00 0.00 0.00 0.00 0.00 0.00 0.00

GFSGBSN_prec_precacc12_060.txt.gz
Total_Precipitation_Accumulation
0.03 0.02 0.02 0.03 0.03 0.03 0.02 0.03 0.06 0.05 0.04 0.05 0.07 0.09 0.09 0.06 0.04 0.03 0.06 0.05 0.01 0.04 0.04 0.02 0.06 0.39 0.52 0.24 0.06 0.10 0.07 0.03 0.04 0.04 0.01 0.04 0.02 0.02 0.01 0.00 0.00 0.00 0.00 0.00 0.00 0.00 0.00
0.02 0.01 0.02 0.03 0.03 0.02 0.02 0.06 0.08 0.05 0.03 0.05 0.08 0.12 0.09 0.07 0.04 0.05 0.06 0.05 0.06 0.08 0.05 0.03 0.08 0.48 0.48 0.17 0.01 0.04 0.10 0.05 0.03 0.06 0.01 0.04 0.02 0.01 0.01 0.00 0.00 0.00 0.00 0.00 0.00 0.00 0.00
0.01 0.02 0.02 0.03 0.03 0.01 0.04 0.09 0.08 0.04 0.05 0.08 0.09 0.09 0.04 0.09 0.09 0.07 0.09 0.05 0.03 0.04 0.04 0.06 0.14 0.55 0.36 0.07 0.02 0.05 0.09 0.14 0.13 0.07 0.01 0.04 0.03 0.01 0.00 0.00 0.00 0.00 0.00 0.00 0.00 0.00 0.00
0.01 0.02 0.02 0.03 0.02 0.02 0.07 0.08 0.06 0.05 0.07 0.08 0.11 0.08 0.09 0.12 0.09 0.06 0.06 0.03 0.02 0.09 0.18 0.24 0.27 0.49 0.22 0.01 0.02 0.03 0.07 0.19 0.17 0.22 0.16 0.20 0.11 0.03 0.00 0.00 0.00 0.00 0.00 0.00 0.00 0.00 0.00
0.02 0.01 0.02 0.03 0.01 0.04 0.08 0.05 0.06 0.06 0.08 0.10 0.11 0.08 0.08 0.04 0.04 0.03 0.03 0.03 0.01 0.03 0.04 0.23 0.25 0.27 0.10 0.04 0.06 0.02 0.06 0.17 0.11 0.19 0.34 0.58 0.47 0.14 0.01 0.00 0.00 0.00 0.00 0.00 0.00 0.00 0.00
0.01 0.01 0.02 0.01 0.02 0.06 0.07 0.05 0.05 0.07 0.09 0.09 0.10 0.08 0.04 0.02 0.04 0.06 0.05 0.01 0.00 0.00 0.01 0.10 0.20 0.35 0.07 0.03 0.10 0.04 0.03 0.18 0.24 0.24 0.46 0.59 0.65 0.26 0.05 0.01 0.00 0.00 0.00 0.00 0.00 0.00 0.00
0.01 0.02 0.02 0.01 0.03 0.06 0.06 0.06 0.04 0.10 0.07 0.10 0.11 0.09 0.07 0.10 0.16 0.15 0.05 0.00 0.01 0.03 0.06 0.05 0.11 0.24 0.09 0.11 0.14 0.08 0.05 0.34 0.54 0.30 0.35 0.41 0.48 0.38 0.04 0.00 0.00 0.00 0.00 0.00 0.00 0.00 0.00
0.01 0.02 0.01 0.01 0.03 0.07 0.05 0.05 0.07 0.08 0.07 0.11 0.10 0.09 0.11 0.18 0.32 0.21 0.04 0.00 0.00 0.00 0.00 0.05 0.16 0.25 0.08 0.16 0.20 0.16 0.08 0.49 0.32 0.21 0.40 0.55 0.29 0.14 0.17 0.11 0.01 0.00 0.00 0.00 0.00 0.00 0.00
0.01 0.01 0.00 0.02 0.04 0.06 0.04 0.04 0.08 0.05 0.08 0.08 0.08 0.11 0.16 0.20 0.33 0.32 0.01 0.00 0.00 0.00 0.01 0.08 0.16 0.31 0.19 0.19 0.17 0.13 0.14 0.23 0.18 0.27 0.47 0.60 0.20 0.19 0.16 0.26 0.08 0.00 0.00 0.00 0.00 0.00 0.00
0.02 0.00 0.00 0.02 0.05 0.05 0.04 0.04 0.07 0.04 0.08 0.06 0.08 0.15 0.20 0.33 0.31 0.10 0.01 0.01 0.00 0.00 0.04 0.23 0.22 0.31 0.25 0.24 0.18 0.03 0.28 0.17 0.18 0.50 0.45 0.49 0.36 0.23 0.21 0.20 0.13 0.03 0.00 0.00 0.00 0.00 0.00
0.01 0.00 0.00 0.03 0.04 0.04 0.02 0.05 0.04 0.02 0.07 0.06 0.08 0.12 0.17 0.25 0.18 0.11 0.04 0.02 0.00 0.01 0.13 0.21 0.31 0.36 0.35 0.21 0.19 0.09 0.22 0.16 0.15 0.31 0.29 0.41 0.42 0.21 0.30 0.22 0.10 0.06 0.00 0.00 0.00 0.00 0.00
0.00 0.00 0.01 0.02 0.02 0.03 0.02 0.05 0.01 0.02 0.07 0.06 0.07 0.07 0.08 0.10 0.10 0.06 0.01 0.01 0.01 0.06 0.34 0.35 0.47 0.37 0.27 0.16 0.05 0.08 0.09 0.17 0.10 0.17 0.10 0.31 0.37 0.21 0.16 0.20 0.14 0.03 0.00 0.00 0.00 0.00 0.00
0.00 0.00 0.01 0.02 0.01 0.01 0.02 0.03 0.00 0.02 0.06 0.06 0.06 0.04 0.02 0.02 0.02 0.00 0.03 0.01 0.03 0.16 0.24 0.44 0.47 0.14 0.10 0.08 0.04 0.07 0.09 0.04 0.04 0.14 0.15 0.30 0.14 0.11 0.08 0.07 0.09 0.03 0.00 0.00 0.00 0.00 0.00
0.00 0.00 0.01 0.01 0.01 0.01 0.02 0.01 0.00 0.01 0.03 0.05 0.03 0.00 0.00 0.02 0.00 0.00 0.01 0.03 0.12 0.13 0.32 0.41 0.09 0.08 0.08 0.04 0.07 0.09 0.05 0.00 0.00 0.00 0.04 0.05 0.04 0.04 0.04 0.00 0.00 0.00 0.00 0.00 0.00 0.00 0.00
0.00 0.00 0.01 0.01 0.01 0.01 0.01 0.00 0.00 0.01 0.04 0.04 0.00 0.00 0.00 0.00 0.00 0.00 0.01 0.08 0.17 0.35 0.51 0.19 0.04 0.04 0.06 0.04 0.08 0.05 0.02 0.00 0.00 0.00 0.00 0.00 0.00 0.00 0.00 0.00 0.00 0.00 0.00 0.00 0.00 0.00 0.00
0.00 0.00 0.01 0.00 0.01 0.00 0.01 0.00 0.00 0.01 0.03 0.01 0.00 0.00 0.00 0.00 0.00 0.00 0.03 0.19 0.25 0.17 0.06 0.00 0.06 0.04 0.02 0.03 0.01 0.01 0.00 0.00 0.00 0.00 0.00 0.00 0.00 0.00 0.00 0.00 0.00 0.00 0.00 0.00 0.00 0.00 0.00
0.00 0.00 0.01 0.00 0.00 0.00 0.00 0.00 0.00 0.01 0.01 0.00 0.00 0.00 0.00 0.00 0.00 0.00 0.03 0.14 0.09 0.01 0.00 0.00 0.00 0.00 0.00 0.00 0.00 0.00 0.00 0.00 0.00 0.00 0.00 0.00 0.00 0.00 0.00 0.00 0.00 0.00 0.00 0.00 0.00 0.00 0.00
0.00 0.00 0.00 0.00 0.00 0.00 0.00 0.00 0.00 0.00 0.00 0.00 0.00 0.00 0.00 0.00 0.00 0.01 0.06 0.06 0.06 0.02 0.00 0.00 0.00 0.00 0.00 0.00 0.00 0.00 0.00 0.00 0.00 0.00 0.00 0.00 0.00 0.00 0.00 0.00 0.00 0.00 0.00 0.00 0.00 0.00 0.00
0.00 0.00 0.00 0.00 0.00 0.00 0.00 0.00 0.00 0.00 0.00 0.00 0.00 0.00 0.00 0.00 0.00 0.04 0.06 0.01 0.01 0.00 0.00 0.00 0.00 0.00 0.00 0.00 0.00 0.00 0.00 0.00 0.00 0.00 0.00 0.00 0.00 0.00 0.00 0.00 0.00 0.00 0.00 0.00 0.00 0.00 0.00
0.00 0.00 0.01 0.00 0.00 0.00 0.00 0.00 0.00 0.00 0.00 0.00 0.00 0.00 0.00 0.00 0.00 0.03 0.06 0.01 0.00 0.00 0.00 0.00 0.00 0.00 0.00 0.00 0.00 0.00 0.00 0.00 0.00 0.00 0.00 0.00 0.00 0.00 0.00 0.00 0.00 0.00 0.00 0.00 0.00 0.00 0.00
0.00 0.00 0.00 0.00 0.00 0.00 0.00 0.00 0.00 0.00 0.00 0.00 0.00 0.00 0.00 0.00 0.00 0.00 0.00 0.00 0.00 0.00 0.00 0.00 0.00 0.00 0.00 0.00 0.00 0.00 0.00 0.00 0.00 0.00 0.00 0.00 0.00 0.00 0.00 0.00 0.00 0.00 0.00 0.00 0.00 0.00 0.00
0.00 0.00 0.00 0.00 0.00 0.00 0.00 0.00 0.00 0.00 0.00 0.00 0.00 0.00 0.00 0.00 0.00 0.00 0.00 0.00 0.00 0.00 0.00 0.00 0.00 0.00 0.00 0.00 0.00 0.00 0.00 0.00 0.00 0.00 0.00 0.00 0.00 0.00 0.00 0.00 0.00 0.00 0.00 0.00 0.00 0.00 0.00
0.00 0.00 0.00 0.00 0.00 0.00 0.00 0.00 0.00 0.00 0.00 0.00 0.00 0.00 0.00 0.00 0.00 0.00 0.00 0.00 0.00 0.00 0.00 0.00 0.00 0.00 0.00 0.00 0.00 0.00 0.00 0.00 0.00 0.00 0.00 0.00 0.00 0.00 0.00 0.00 0.00 0.00 0.00 0.00 0.00 0.00 0.00
0.00 0.00 0.00 0.00 0.00 0.00 0.00 0.00 0.00 0.00 0.00 0.00 0.01 0.02 0.00 0.00 0.00 0.00 0.00 0.00 0.00 0.00 0.00 0.00 0.00 0.00 0.00 0.00 0.00 0.00 0.00 0.00 0.00 0.00 0.00 0.00 0.00 0.00 0.00 0.00 0.00 0.00 0.00 0.00 0.00 0.00 0.00
0.00 0.00 0.00 0.00 0.00 0.00 0.00 0.00 0.00 0.00 0.00 0.00 0.00 0.01 0.01 0.00 0.00 0.00 0.00 0.00 0.00 0.00 0.00 0.00 0.00 0.00 0.00 0.00 0.00 0.00 0.00 0.00 0.00 0.00 0.00 0.00 0.00 0.00 0.00 0.00 0.00 0.00 0.00 0.00 0.00 0.00 0.00
0.00 0.00 0.01 0.01 0.01 0.01 0.00 0.00 0.00 0.00 0.00 0.00 0.00 0.00 0.00 0.01 0.00 0.00 0.00 0.00 0.00 0.00 0.00 0.00 0.00 0.00 0.00 0.00 0.00 0.00 0.00 0.00 0.00 0.00 0.00 0.00 0.00 0.00 0.01 0.00 0.00 0.00 0.00 0.00 0.00 0.00 0.00
0.00 0.00 0.01 0.01 0.01 0.00 0.00 0.00 0.00 0.00 0.00 0.00 0.00 0.00 0.00 0.01 0.00 0.00 0.00 0.00 0.00 0.00 0.00 0.00 0.00 0.00 0.00 0.00 0.00 0.00 0.00 0.00 0.00 0.00 0.01 0.02 0.02 0.01 0.01 0.01 0.00 0.00 0.00 0.00 0.01 0.00 0.00
0.00 0.00 0.00 0.00 0.01 0.01 0.01 0.01 0.00 0.00 0.00 0.00 0.00 0.00 0.01 0.01 0.00 0.00 0.00 0.00 0.00 0.00 0.00 0.00 0.00 0.00 0.00 0.00 0.00 0.00 0.00 0.00 0.00 0.00 0.00 0.01 0.01 0.01 0.01 0.01 0.00 0.00 0.00 0.00 0.00 0.00 0.00
0.00 0.00 0.00 0.01 0.01 0.01 0.01 0.01 0.01 0.01 0.01 0.00 0.00 0.01 0.01 0.02 0.00 0.00 0.00 0.00 0.00 0.00 0.00 0.00 0.00 0.00 0.00 0.00 0.00 0.00 0.00 0.00 0.00 0.00 0.00 0.00 0.00 0.00 0.00 0.00 0.00 0.00 0.00 0.00 0.00 0.00 0.00

GFSGBSN_prec_precacc12_063.txt.gz
Total_Precipitation_Accumulation
0.02 0.01 0.02 0.03 0.03 0.03 0.01 0.04 0.09 0.07 0.04 0.03 0.07 0.10 0.09 0.08 0.08 0.08 0.08 0.06 0.02 0.06 0.06 0.03 0.03 0.06 0.33 0.25 0.06 0.16 0.08 0.06 0.11 0.09 0.01 0.04 0.03 0.04 0.02 0.00 0.00 0.00 0.00 0.00 0.00 0.00 0.00
0.01 0.01 0.02 0.02 0.03 0.02 0.02 0.07 0.08 0.06 0.04 0.07 0.11 0.12 0.08 0.07 0.08 0.12 0.08 0.04 0.06 0.09 0.08 0.05 0.10 0.22 0.31 0.18 0.01 0.04 0.11 0.06 0.13 0.10 0.01 0.04 0.02 0.02 0.02 0.01 0.00 0.00 0.00 0.00 0.00 0.00 0.00
0.01 0.01 0.01 0.02 0.03 0.01 0.04 0.09 0.06 0.04 0.06 0.10 0.11 0.09 0.04 0.08 0.10 0.08 0.07 0.04 0.04 0.05 0.06 0.10 0.19 0.29 0.22 0.07 0.02 0.06 0.11 0.11 0.11 0.10 0.00 0.04 0.03 0.04 0.02 0.01 0.00 0.00 0.00 0.00 0.00 0.00 0.00
0.01 0.01 0.01 0.02 0.01 0.02 0.06 0.08 0.05 0.04 0.08 0.09 0.11 0.10 0.10 0.11 0.08 0.04 0.04 0.02 0.02 0.08 0.18 0.28 0.35 0.22 0.10 0.01 0.02 0.03 0.11 0.18 0.13 0.23 0.10 0.17 0.12 0.06 0.04 0.01 0.00 0.00 0.00 0.00 0.00 0.00 0.00
0.00 0.01 0.01 0.02 0.01 0.03 0.07 0.05 0.05 0.05 0.09 0.12 0.13 0.12 0.10 0.04 0.02 0.02 0.02 0.02 0.02 0.02 0.03 0.25 0.26 0.13 0.07 0.04 0.06 0.03 0.13 0.18 0.12 0.28 0.28 0.51 0.48 0.19 0.05 0.02 0.01 0.00 0.00 0.00 0.00 0.00 0.00
0.00 0.01 0.01 0.01 0.01 0.05 0.07 0.05 0.05 0.07 0.10 0.12 0.12 0.11 0.07 0.05 0.05 0.05 0.04 0.00 0.00 0.00 0.01 0.09 0.11 0.15 0.03 0.03 0.13 0.08 0.14 0.23 0.23 0.32 0.45 0.63 0.53 0.26 0.10 0.02 0.01 0.00 0.00 0.00 0.00 0.00 0.00
0.00 0.01 0.01 0.00 0.02 0.05 0.05 0.05 0.05 0.09 0.09 0.12 0.11 0.10 0.09 0.14 0.22 0.17 0.05 0.00 0.01 0.04 0.05 0.06 0.07 0.12 0.10 0.18 0.31 0.19 0.16 0.41 0.53 0.26 0.33 0.44 0.52 0.21 0.02 0.00 0.00 0.00 0.00 0.00 0.00 0.00 0.00
0.00 0.01 0.00 0.01 0.02 0.05 0.04 0.04 0.06 0.07 0.08 0.10 0.09 0.09 0.12 0.18 0.32 0.22 0.04 0.00 0.00 0.01 0.02 0.03 0.11 0.16 0.07 0.36 0.56 0.29 0.16 0.65 0.43 0.19 0.40 0.60 0.38 0.16 0.10 0.03 0.00 0.00 0.00 0.00 0.00 0.00 0.00
0.01 0.00 0.00 0.01 0.02 0.04 0.03 0.03 0.08 0.05 0.07 0.07 0.08 0.10 0.16 0.20 0.33 0.32 0.01 0.00 0.00 0.00 0.03 0.05 0.13 0.20 0.19 0.29 0.30 0.20 0.23 0.63 0.31 0.27 0.48 0.61 0.22 0.25 0.20 0.16 0.05 0.00 0.00 0.00 0.00 0.00 0.00
0.01 0.00 0.00 0.01 0.03 0.03 0.02 0.03 0.06 0.02 0.07 0.06 0.07 0.14 0.17 0.30 0.31 0.10 0.00 0.00 0.00 0.00 0.09 0.16 0.17 0.22 0.26 0.27 0.26 0.13 0.69 0.67 0.28 0.52 0.48 0.52 0.37 0.34 0.26 0.22 0.14 0.03 0.00 0.00 0.00 0.00 0.00
0.00 0.00 0.00 0.01 0.02 0.02 0.01 0.03 0.02 0.02 0.07 0.05 0.06 0.09 0.10 0.14 0.11 0.09 0.02 0.00 0.00 0.01 0.21 0.26 0.24 0.29 0.39 0.29 0.31 0.31 0.54 0.36 0.17 0.35 0.32 0.47 0.45 0.26 0.35 0.24 0.11 0.06 0.00 0.00 0.00 0.00 0.00
0.00 0.00 0.00 0.01 0.01 0.01 0.01 0.02 0.01 0.01 0.06 0.05 0.04 0.03 0.03 0.01 0.04 0.04 0.00 0.00 0.00 0.04 0.26 0.19 0.28 0.32 0.32 0.26 0.22 0.34 0.19 0.20 0.12 0.27 0.18 0.44 0.47 0.30 0.27 0.22 0.15 0.03 0.00 0.00 0.00 0.00 0.00
0.00 0.00 0.00 0.01 0.00 0.01 0.00 0.01 0.00 0.01 0.05 0.05 0.02 0.01 0.00 0.00 0.00 0.00 0.00 0.00 0.03 0.12 0.16 0.27 0.37 0.16 0.14 0.15 0.14 0.15 0.15 0.14 0.14 0.26 0.29 0.56 0.40 0.31 0.22 0.19 0.15 0.04 0.00 0.01 0.01 0.00 0.00
0.00 0.00 0.01 0.01 0.00 0.01 0.01 0.00 0.00 0.01 0.03 0.03 0.00 0.00 0.00 0.00 0.00 0.00 0.00 0.02 0.09 0.10 0.21 0.32 0.10 0.08 0.09 0.04 0.05 0.09 0.06 0.03 0.01 0.02 0.13 0.20 0.27 0.30 0.23 0.12 0.12 0.05 0.01 0.01 0.00 0.00 0.00
0.00 0.00 0.01 0.00 0.00 0.00 0.00 0.00 0.00 0.01 0.02 0.01 0.00 0.00 0.00 0.00 0.00 0.00 0.00 0.03 0.12 0.20 0.31 0.15 0.03 0.03 0.04 0.03 0.06 0.05 0.01 0.00 0.00 0.01 0.03 0.01 0.03 0.08 0.05 0.02 0.04 0.05 0.01 0.00 0.00 0.00 0.00
0.00 0.00 0.00 0.00 0.00 0.00 0.00 0.00 0.00 0.00 0.01 0.00 0.00 0.00 0.00 0.00 0.00 0.00 0.01 0.11 0.13 0.07 0.03 0.00 0.03 0.02 0.01 0.02 0.01 0.00 0.00 0.00 0.00 0.00 0.00 0.00 0.00 0.01 0.00 0.00 0.00 0.00 0.00 0.00 0.00 0.00 0.00
0.00 0.00 0.00 0.00 0.00 0.00 0.00 0.00 0.00 0.00 0.00 0.00 0.00 0.00 0.00 0.00 0.00 0.00 0.01 0.06 0.04 0.00 0.00 0.00 0.00 0.00 0.00 0.00 0.00 0.00 0.00 0.00 0.00 0.00 0.00 0.00 0.00 0.00 0.00 0.00 0.00 0.00 0.00 0.00 0.00 0.00 0.00
0.00 0.00 0.00 0.00 0.00 0.00 0.00 0.00 0.00 0.00 0.00 0.00 0.00 0.00 0.00 0.00 0.00 0.00 0.00 0.00 0.00 0.00 0.00 0.00 0.00 0.00 0.00 0.00 0.00 0.00 0.00 0.00 0.00 0.00 0.00 0.00 0.00 0.00 0.00 0.00 0.00 0.00 0.00 0.00 0.00 0.00 0.00
0.00 0.00 0.00 0.00 0.00 0.00 0.00 0.00 0.00 0.00 0.00 0.00 0.00 0.00 0.00 0.00 0.00 0.00 0.00 0.00 0.00 0.00 0.00 0.00 0.00 0.00 0.00 0.00 0.00 0.00 0.00 0.00 0.00 0.00 0.00 0.00 0.00 0.00 0.00 0.00 0.00 0.00 0.00 0.00 0.00 0.00 0.00
0.00 0.00 0.01 0.00 0.00 0.00 0.00 0.00 0.00 0.00 0.00 0.00 0.00 0.00 0.00 0.00 0.00 0.00 0.00 0.00 0.00 0.00 0.00 0.00 0.00 0.00 0.00 0.00 0.00 0.00 0.00 0.00 0.00 0.00 0.00 0.00 0.00 0.00 0.00 0.00 0.00 0.00 0.00 0.00 0.00 0.00 0.00
0.00 0.00 0.00 0.00 0.00 0.00 0.00 0.00 0.00 0.00 0.00 0.00 0.00 0.00 0.00 0.00 0.00 0.00 0.00 0.00 0.00 0.00 0.00 0.00 0.00 0.00 0.00 0.00 0.00 0.00 0.00 0.00 0.00 0.00 0.00 0.00 0.00 0.00 0.00 0.00 0.00 0.00 0.00 0.00 0.00 0.00 0.00
0.00 0.00 0.00 0.00 0.00 0.00 0.00 0.00 0.00 0.00 0.00 0.00 0.00 0.00 0.00 0.00 0.00 0.00 0.00 0.00 0.00 0.00 0.00 0.00 0.00 0.00 0.00 0.00 0.00 0.00 0.00 0.00 0.00 0.00 0.00 0.00 0.00 0.00 0.00 0.00 0.00 0.00 0.00 0.00 0.00 0.00 0.00
0.00 0.00 0.00 0.00 0.00 0.00 0.00 0.00 0.00 0.00 0.00 0.00 0.00 0.00 0.00 0.00 0.00 0.00 0.00 0.00 0.00 0.00 0.00 0.00 0.00 0.00 0.00 0.00 0.00 0.00 0.00 0.00 0.00 0.00 0.00 0.00 0.00 0.00 0.00 0.00 0.00 0.00 0.00 0.00 0.00 0.00 0.00
0.00 0.00 0.00 0.00 0.00 0.00 0.00 0.00 0.00 0.00 0.00 0.00 0.01 0.01 0.00 0.00 0.00 0.00 0.00 0.00 0.00 0.00 0.00 0.00 0.00 0.00 0.00 0.00 0.00 0.00 0.00 0.00 0.00 0.00 0.00 0.00 0.00 0.00 0.00 0.00 0.00 0.00 0.00 0.00 0.00 0.00 0.00
0.00 0.00 0.00 0.00 0.00 0.00 0.00 0.00 0.00 0.00 0.00 0.00 0.01 0.01 0.01 0.00 0.00 0.00 0.00 0.00 0.00 0.00 0.00 0.00 0.00 0.00 0.00 0.00 0.00 0.00 0.00 0.00 0.00 0.00 0.00 0.00 0.00 0.00 0.00 0.00 0.00 0.00 0.00 0.00 0.00 0.00 0.00
0.00 0.00 0.00 0.00 0.01 0.01 0.00 0.00 0.00 0.00 0.00 0.00 0.00 0.00 0.00 0.01 0.00 0.00 0.00 0.00 0.00 0.00 0.00 0.00 0.00 0.00 0.00 0.00 0.00 0.00 0.00 0.00 0.00 0.00 0.00 0.00 0.00 0.00 0.00 0.00 0.00 0.00 0.00 0.00 0.00 0.00 0.00
0.00 0.00 0.00 0.00 0.01 0.00 0.00 0.00 0.00 0.00 0.00 0.00 0.00 0.00 0.00 0.01 0.00 0.00 0.00 0.00 0.00 0.00 0.00 0.00 0.00 0.00 0.00 0.01 0.01 0.00 0.00 0.00 0.00 0.01 0.01 0.01 0.01 0.01 0.01 0.01 0.00 0.00 0.00 0.00 0.02 0.01 0.00
0.00 0.00 0.00 0.00 0.01 0.01 0.01 0.01 0.00 0.00 0.00 0.00 0.00 0.00 0.00 0.01 0.00 0.00 0.00 0.00 0.00 0.00 0.00 0.00 0.00 0.00 0.00 0.01 0.00 0.00 0.00 0.00 0.00 0.00 0.00 0.00 0.01 0.01 0.01 0.01 0.00 0.00 0.00 0.01 0.01 0.00 0.00
0.00 0.00 0.00 0.00 0.00 0.01 0.01 0.01 0.02 0.02 0.01 0.00 0.00 0.00 0.01 0.01 0.00 0.00 0.00 0.00 0.00 0.00 0.01 0.00 0.00 0.00 0.00 0.00 0.00 0.00 0.00 0.00 0.00 0.00 0.00 0.00 0.00 0.00 0.00 0.00 0.00 0.00 0.00 0.00 0.00 0.00 0.00

GFSGBSN_prec_precacc12_066.txt.gz
Total_Precipitation_Accumulation
0.01 0.01 0.02 0.02 0.01 0.03 0.01 0.04 0.08 0.05 0.03 0.04 0.07 0.11 0.10 0.08 0.09 0.14 0.12 0.05 0.03 0.07 0.08 0.08 0.06 0.07 0.07 0.07 0.05 0.15 0.11 0.09 0.16 0.17 0.02 0.02 0.02 0.04 0.02 0.00 0.00 0.00 0.00 0.00 0.00 0.00 0.00
0.01 0.01 0.01 0.01 0.02 0.01 0.02 0.08 0.08 0.04 0.03 0.07 0.11 0.14 0.11 0.09 0.08 0.13 0.11 0.07 0.06 0.10 0.09 0.10 0.11 0.21 0.15 0.08 0.00 0.04 0.11 0.05 0.24 0.20 0.05 0.03 0.01 0.02 0.03 0.02 0.01 0.00 0.00 0.00 0.00 0.00 0.00
0.01 0.01 0.01 0.01 0.02 0.01 0.03 0.09 0.06 0.03 0.05 0.10 0.13 0.12 0.08 0.12 0.11 0.07 0.04 0.02 0.04 0.04 0.06 0.12 0.21 0.28 0.10 0.03 0.02 0.07 0.12 0.05 0.18 0.23 0.05 0.04 0.03 0.04 0.03 0.04 0.01 0.00 0.00 0.00 0.00 0.00 0.00
0.01 0.00 0.01 0.01 0.01 0.02 0.05 0.08 0.05 0.03 0.07 0.11 0.12 0.12 0.13 0.14 0.10 0.04 0.01 0.01 0.01 0.04 0.15 0.23 0.37 0.20 0.05 0.00 0.01 0.03 0.09 0.12 0.10 0.21 0.08 0.12 0.12 0.08 0.05 0.04 0.02 0.02 0.00 0.00 0.00 0.00 0.00
0.00 0.01 0.01 0.01 0.01 0.02 0.06 0.05 0.04 0.04 0.09 0.13 0.12 0.14 0.10 0.05 0.05 0.05 0.01 0.00 0.00 0.01 0.02 0.20 0.23 0.12 0.05 0.03 0.03 0.02 0.12 0.15 0.11 0.31 0.22 0.39 0.40 0.22 0.09 0.07 0.06 0.03 0.01 0.00 0.00 0.00 0.00
0.00 0.00 0.01 0.00 0.01 0.03 0.05 0.04 0.03 0.06 0.10 0.13 0.11 0.11 0.07 0.05 0.07 0.09 0.03 0.00 0.00 0.01 0.00 0.05 0.11 0.12 0.04 0.02 0.11 0.08 0.21 0.26 0.22 0.49 0.53 0.61 0.52 0.30 0.15 0.07 0.03 0.00 0.00 0.00 0.00 0.00 0.00
0.00 0.01 0.00 0.00 0.01 0.03 0.03 0.03 0.04 0.08 0.08 0.11 0.09 0.10 0.09 0.14 0.22 0.16 0.04 0.00 0.03 0.06 0.04 0.08 0.09 0.09 0.13 0.20 0.34 0.25 0.34 0.46 0.48 0.68 0.39 0.27 0.45 0.17 0.02 0.00 0.00 0.00 0.00 0.00 0.00 0.00 0.00
0.00 0.00 0.00 0.00 0.01 0.02 0.02 0.02 0.05 0.05 0.07 0.09 0.09 0.10 0.11 0.17 0.31 0.20 0.03 0.00 0.00 0.02 0.04 0.02 0.05 0.08 0.07 0.35 0.62 0.47 0.35 0.77 0.54 0.58 0.36 0.39 0.18 0.08 0.05 0.01 0.00 0.00 0.00 0.00 0.00 0.00 0.00
0.00 0.00 0.00 0.01 0.01 0.02 0.01 0.02 0.05 0.03 0.07 0.08 0.08 0.10 0.12 0.14 0.29 0.32 0.01 0.00 0.00 0.00 0.07 0.05 0.05 0.18 0.25 0.67 0.54 0.39 0.42 0.83 0.43 0.34 0.42 0.52 0.16 0.16 0.15 0.07 0.02 0.00 0.00 0.00 0.00 0.00 0.00
0.00 0.00 0.00 0.00 0.01 0.01 0.01 0.02 0.03 0.02 0.05 0.04 0.04 0.09 0.09 0.06 0.17 0.07 0.00 0.00 0.00 0.00 0.14 0.12 0.14 0.24 0.39 0.60 0.41 0.26 0.79 0.81 0.35 0.47 0.47 0.52 0.39 0.33 0.37 0.17 0.04 0.01 0.00 0.00 0.00 0.00 0.00
0.00 0.00 0.00 0.01 0.01 0.01 0.01 0.01 0.01 0.01 0.05 0.03 0.01 0.04 0.05 0.01 0.00 0.01 0.01 0.00 0.00 0.02 0.22 0.25 0.21 0.25 0.32 0.35 0.37 0.45 0.62 0.60 0.24 0.30 0.32 0.47 0.49 0.34 0.61 0.39 0.09 0.06 0.00 0.00 0.00 0.00 0.00
0.00 0.00 0.00 0.01 0.00 0.01 0.01 0.01 0.01 0.01 0.04 0.02 0.00 0.00 0.02 0.00 0.00 0.00 0.00 0.00 0.00 0.02 0.18 0.16 0.23 0.26 0.31 0.29 0.30 0.55 0.31 0.37 0.14 0.27 0.19 0.44 0.49 0.34 0.46 0.49 0.26 0.05 0.00 0.00 0.00 0.00 0.00
0.00 0.00 0.00 0.00 0.00 0.00 0.00 0.00 0.00 0.01 0.02 0.02 0.00 0.00 0.00 0.00 0.00 0.00 0.00 0.00 0.01 0.05 0.09 0.16 0.29 0.22 0.29 0.34 0.36 0.29 0.26 0.20 0.16 0.29 0.30 0.59 0.44 0.32 0.27 0.33 0.21 0.05 0.01 0.02 0.02 0.01 0.00
0.00 0.00 0.00 0.00 0.00 0.00 0.00 0.00 0.00 0.00 0.01 0.01 0.00 0.00 0.00 0.00 0.00 0.00 0.00 0.01 0.03 0.07 0.10 0.15 0.08 0.08 0.08 0.04 0.06 0.10 0.13 0.08 0.05 0.04 0.17 0.27 0.37 0.37 0.28 0.18 0.14 0.06 0.02 0.02 0.01 0.00 0.00
0.00 0.00 0.00 0.00 0.00 0.00 0.00 0.00 0.00 0.00 0.00 0.00 0.00 0.00 0.00 0.00 0.00 0.00 0.00 0.01 0.06 0.09 0.10 0.06 0.02 0.02 0.02 0.01 0.02 0.04 0.02 0.01 0.03 0.04 0.08 0.07 0.11 0.21 0.21 0.08 0.09 0.08 0.02 0.00 0.00 0.00 0.00
0.00 0.00 0.00 0.00 0.00 0.00 0.00 0.00 0.00 0.00 0.00 0.00 0.00 0.00 0.00 0.00 0.00 0.00 0.00 0.02 0.03 0.02 0.00 0.00 0.01 0.01 0.01 0.01 0.01 0.00 0.00 0.00 0.00 0.00 0.00 0.01 0.05 0.09 0.14 0.08 0.05 0.05 0.01 0.00 0.00 0.00 0.00
0.00 0.00 0.00 0.00 0.00 0.00 0.00 0.00 0.00 0.00 0.00 0.00 0.00 0.00 0.00 0.00 0.00 0.00 0.00 0.01 0.00 0.00 0.00 0.00 0.00 0.00 0.00 0.00 0.00 0.00 0.00 0.00 0.00 0.00 0.00 0.00 0.00 0.01 0.01 0.02 0.01 0.02 0.01 0.00 0.00 0.00 0.00
0.00 0.00 0.00 0.00 0.00 0.00 0.00 0.00 0.00 0.00 0.00 0.00 0.00 0.00 0.00 0.00 0.00 0.00 0.00 0.00 0.00 0.00 0.00 0.00 0.00 0.00 0.00 0.00 0.00 0.00 0.00 0.00 0.00 0.00 0.00 0.00 0.00 0.00 0.00 0.00 0.00 0.00 0.00 0.00 0.00 0.00 0.00
0.00 0.00 0.00 0.00 0.00 0.00 0.00 0.00 0.00 0.00 0.00 0.00 0.00 0.00 0.00 0.00 0.00 0.00 0.00 0.00 0.00 0.00 0.00 0.00 0.00 0.00 0.00 0.00 0.00 0.00 0.00 0.00 0.00 0.00 0.00 0.00 0.00 0.00 0.00 0.00 0.00 0.00 0.00 0.00 0.00 0.00 0.00
0.00 0.00 0.00 0.00 0.00 0.00 0.00 0.00 0.00 0.00 0.00 0.00 0.00 0.00 0.00 0.00 0.00 0.00 0.00 0.00 0.00 0.00 0.00 0.00 0.00 0.00 0.00 0.00 0.00 0.00 0.00 0.00 0.00 0.00 0.00 0.00 0.00 0.00 0.00 0.00 0.00 0.00 0.00 0.00 0.00 0.00 0.00
0.00 0.00 0.00 0.00 0.00 0.00 0.00 0.00 0.00 0.00 0.00 0.00 0.00 0.00 0.00 0.00 0.00 0.00 0.00 0.00 0.00 0.00 0.00 0.00 0.00 0.00 0.00 0.00 0.00 0.00 0.00 0.00 0.00 0.00 0.00 0.00 0.00 0.00 0.00 0.00 0.00 0.00 0.00 0.00 0.00 0.00 0.00
0.00 0.00 0.00 0.00 0.00 0.00 0.00 0.00 0.00 0.00 0.00 0.00 0.00 0.00 0.00 0.00 0.00 0.00 0.00 0.00 0.00 0.00 0.00 0.00 0.00 0.00 0.00 0.00 0.00 0.00 0.00 0.00 0.00 0.00 0.00 0.00 0.00 0.00 0.00 0.00 0.00 0.00 0.00 0.00 0.00 0.00 0.00
0.00 0.00 0.00 0.00 0.00 0.00 0.00 0.00 0.00 0.00 0.00 0.00 0.00 0.00 0.00 0.00 0.00 0.00 0.00 0.00 0.00 0.00 0.00 0.00 0.00 0.00 0.00 0.00 0.00 0.00 0.00 0.00 0.00 0.00 0.00 0.00 0.00 0.00 0.00 0.00 0.00 0.00 0.00 0.00 0.00 0.00 0.00
0.00 0.00 0.00 0.00 0.00 0.00 0.00 0.00 0.00 0.00 0.00 0.00 0.00 0.01 0.00 0.00 0.00 0.00 0.00 0.00 0.00 0.00 0.00 0.00 0.00 0.00 0.00 0.00 0.00 0.00 0.00 0.00 0.00 0.00 0.00 0.00 0.00 0.00 0.00 0.00 0.00 0.00 0.00 0.00 0.00 0.00 0.00
0.00 0.00 0.00 0.00 0.00 0.00 0.00 0.00 0.00 0.00 0.00 0.00 0.00 0.01 0.01 0.00 0.00 0.00 0.00 0.00 0.00 0.00 0.00 0.00 0.00 0.00 0.00 0.00 0.00 0.00 0.00 0.00 0.00 0.00 0.00 0.00 0.00 0.00 0.00 0.00 0.00 0.00 0.00 0.00 0.00 0.00 0.00
0.00 0.00 0.00 0.00 0.00 0.01 0.00 0.00 0.00 0.00 0.00 0.00 0.00 0.00 0.01 0.01 0.00 0.00 0.00 0.00 0.00 0.01 0.01 0.00 0.00 0.00 0.00 0.01 0.01 0.00 0.00 0.00 0.00 0.00 0.00 0.00 0.00 0.00 0.00 0.00 0.00 0.00 0.00 0.00 0.00 0.00 0.00
0.00 0.00 0.00 0.00 0.00 0.00 0.00 0.00 0.00 0.00 0.00 0.00 0.00 0.00 0.00 0.01 0.00 0.00 0.00 0.00 0.00 0.00 0.01 0.02 0.00 0.00 0.00 0.02 0.02 0.01 0.00 0.00 0.00 0.00 0.00 0.01 0.01 0.01 0.01 0.00 0.00 0.00 0.00 0.00 0.02 0.01 0.00
0.00 0.00 0.00 0.00 0.00 0.00 0.00 0.00 0.00 0.00 0.00 0.00 0.00 0.00 0.00 0.00 0.00 0.00 0.00 0.00 0.00 0.00 0.02 0.03 0.02 0.01 0.02 0.02 0.01 0.00 0.00 0.00 0.00 0.00 0.00 0.00 0.00 0.01 0.00 0.00 0.00 0.00 0.00 0.01 0.01 0.00 0.00
0.00 0.00 0.00 0.00 0.00 0.00 0.01 0.01 0.01 0.02 0.02 0.01 0.01 0.00 0.00 0.01 0.00 0.00 0.00 0.00 0.00 0.01 0.03 0.04 0.04 0.00 0.01 0.01 0.01 0.00 0.00 0.00 0.00 0.00 0.00 0.00 0.00 0.00 0.00 0.00 0.00 0.00 0.00 0.00 0.00 0.00 0.00

GFSGBSN_prec_precacc12_069.txt.gz
Total_Precipitation_Accumulation
0.01 0.01 0.01 0.02 0.01 0.01 0.01 0.04 0.07 0.05 0.03 0.03 0.07 0.12 0.12 0.12 0.14 0.17 0.14 0.08 0.08 0.06 0.08 0.09 0.07 0.07 0.04 0.02 0.01 0.10 0.10 0.09 0.17 0.37 0.10 0.01 0.02 0.03 0.02 0.00 0.00 0.00 0.00 0.00 0.00 0.00 0.00
0.00 0.00 0.01 0.01 0.01 0.01 0.01 0.06 0.07 0.04 0.03 0.06 0.10 0.12 0.12 0.11 0.13 0.15 0.11 0.07 0.06 0.10 0.12 0.11 0.10 0.17 0.08 0.02 0.00 0.02 0.10 0.04 0.26 0.36 0.21 0.03 0.01 0.02 0.03 0.03 0.01 0.00 0.00 0.00 0.00 0.00 0.00
0.00 0.00 0.01 0.01 0.01 0.01 0.02 0.07 0.05 0.03 0.05 0.09 0.11 0.11 0.09 0.12 0.14 0.10 0.03 0.02 0.03 0.03 0.04 0.10 0.16 0.22 0.06 0.00 0.01 0.06 0.11 0.03 0.17 0.30 0.17 0.04 0.02 0.04 0.03 0.05 0.02 0.01 0.00 0.00 0.00 0.00 0.00
0.00 0.00 0.01 0.01 0.00 0.01 0.03 0.07 0.03 0.03 0.06 0.11 0.10 0.11 0.12 0.12 0.11 0.07 0.01 0.01 0.01 0.01 0.07 0.16 0.27 0.15 0.04 0.00 0.01 0.01 0.08 0.05 0.07 0.24 0.18 0.11 0.09 0.07 0.06 0.04 0.03 0.05 0.01 0.01 0.00 0.00 0.00
0.00 0.00 0.01 0.00 0.01 0.01 0.03 0.03 0.02 0.04 0.08 0.11 0.10 0.11 0.08 0.05 0.05 0.08 0.01 0.00 0.00 0.00 0.01 0.12 0.16 0.09 0.03 0.02 0.02 0.00 0.09 0.06 0.06 0.30 0.20 0.27 0.28 0.19 0.10 0.09 0.09 0.08 0.02 0.00 0.00 0.00 0.00
0.00 0.00 0.00 0.00 0.00 0.01 0.02 0.02 0.02 0.05 0.07 0.11 0.09 0.10 0.07 0.06 0.06 0.10 0.01 0.00 0.00 0.01 0.00 0.02 0.07 0.10 0.04 0.01 0.07 0.05 0.19 0.16 0.15 0.52 0.53 0.62 0.48 0.29 0.16 0.09 0.05 0.01 0.00 0.00 0.00 0.00 0.00
0.00 0.00 0.00 0.00 0.01 0.01 0.02 0.02 0.03 0.04 0.07 0.10 0.09 0.10 0.09 0.13 0.20 0.15 0.03 0.00 0.03 0.07 0.04 0.07 0.09 0.06 0.11 0.19 0.29 0.23 0.32 0.40 0.40 0.75 0.43 0.24 0.44 0.16 0.02 0.00 0.00 0.00 0.00 0.00 0.00 0.00 0.00
0.00 0.00 0.00 0.00 0.00 0.01 0.01 0.01 0.02 0.02 0.06 0.08 0.07 0.08 0.08 0.10 0.27 0.14 0.03 0.00 0.00 0.02 0.04 0.02 0.05 0.06 0.10 0.34 0.53 0.50 0.35 0.79 0.52 0.65 0.35 0.21 0.16 0.08 0.04 0.01 0.01 0.01 0.00 0.00 0.00 0.00 0.00
0.00 0.00 0.00 0.00 0.00 0.00 0.01 0.01 0.02 0.02 0.05 0.05 0.04 0.04 0.02 0.01 0.07 0.18 0.01 0.00 0.00 0.00 0.08 0.07 0.09 0.13 0.21 0.61 0.59 0.60 0.45 0.88 0.48 0.38 0.37 0.15 0.06 0.11 0.10 0.04 0.01 0.00 0.00 0.00 0.00 0.00 0.00
0.00 0.00 0.00 0.00 0.00 0.00 0.00 0.01 0.01 0.01 0.03 0.02 0.02 0.02 0.00 0.00 0.00 0.00 0.00 0.00 0.00 0.00 0.15 0.14 0.17 0.21 0.36 0.46 0.55 0.46 0.88 1.03 0.41 0.38 0.34 0.28 0.15 0.20 0.24 0.06 0.02 0.01 0.00 0.00 0.00 0.00 0.00
0.00 0.00 0.00 0.00 0.00 0.00 0.00 0.00 0.01 0.01 0.01 0.02 0.01 0.01 0.00 0.00 0.00 0.00 0.00 0.00 0.00 0.02 0.26 0.28 0.25 0.30 0.28 0.23 0.35 0.53 0.79 0.83 0.28 0.28 0.26 0.31 0.35 0.20 0.39 0.23 0.04 0.01 0.00 0.00 0.00 0.00 0.00
0.00 0.00 0.00 0.00 0.00 0.00 0.00 0.00 0.00 0.00 0.01 0.01 0.00 0.00 0.00 0.00 0.00 0.00 0.00 0.00 0.00 0.02 0.19 0.22 0.30 0.19 0.15 0.27 0.32 0.60 0.37 0.50 0.15 0.16 0.16 0.41 0.46 0.33 0.43 0.53 0.26 0.05 0.02 0.00 0.00 0.00 0.00
0.00 0.00 0.00 0.00 0.00 0.00 0.00 0.00 0.00 0.00 0.01 0.01 0.00 0.00 0.00 0.00 0.00 0.00 0.00 0.00 0.00 0.04 0.07 0.12 0.19 0.24 0.29 0.40 0.41 0.30 0.25 0.22 0.15 0.24 0.27 0.58 0.45 0.34 0.29 0.50 0.43 0.10 0.03 0.03 0.03 0.01 0.00
0.00 0.00 0.00 0.00 0.00 0.00 0.00 0.00 0.00 0.00 0.01 0.01 0.00 0.00 0.00 0.00 0.00 0.00 0.00 0.00 0.02 0.06 0.07 0.09 0.05 0.06 0.07 0.06 0.12 0.17 0.14 0.09 0.05 0.04 0.17 0.27 0.37 0.37 0.28 0.26 0.45 0.19 0.02 0.03 0.01 0.00 0.00
0.00 0.00 0.00 0.00 0.00 0.00 0.00 0.00 0.00 0.00 0.00 0.00 0.00 0.00 0.00 0.00 0.00 0.00 0.00 0.00 0.02 0.03 0.02 0.03 0.01 0.02 0.01 0.00 0.01 0.05 0.04 0.02 0.03 0.04 0.08 0.07 0.11 0.21 0.22 0.08 0.22 0.23 0.02 0.00 0.00 0.00 0.00
0.00 0.00 0.00 0.00 0.00 0.00 0.00 0.00 0.00 0.00 0.00 0.00 0.00 0.00 0.00 0.00 0.00 0.00 0.00 0.01 0.01 0.00 0.00 0.00 0.00 0.00 0.00 0.00 0.00 0.00 0.00 0.00 0.00 0.00 0.00 0.01 0.07 0.12 0.16 0.10 0.11 0.09 0.02 0.01 0.00 0.00 0.00
0.00 0.00 0.00 0.00 0.00 0.00 0.00 0.00 0.00 0.00 0.00 0.00 0.00 0.00 0.00 0.00 0.00 0.00 0.00 0.01 0.00 0.00 0.00 0.00 0.00 0.00 0.00 0.00 0.00 0.00 0.00 0.00 0.00 0.00 0.00 0.00 0.01 0.05 0.05 0.09 0.05 0.05 0.05 0.00 0.00 0.00 0.00
0.00 0.00 0.00 0.00 0.00 0.00 0.00 0.00 0.00 0.00 0.00 0.00 0.00 0.00 0.00 0.00 0.00 0.00 0.00 0.00 0.00 0.00 0.00 0.00 0.00 0.00 0.00 0.00 0.00 0.00 0.00 0.00 0.00 0.00 0.00 0.00 0.00 0.00 0.00 0.00 0.00 0.00 0.01 0.01 0.00 0.00 0.00
0.00 0.00 0.00 0.00 0.00 0.00 0.00 0.00 0.00 0.00 0.00 0.00 0.00 0.00 0.00 0.00 0.00 0.00 0.00 0.00 0.00 0.00 0.00 0.00 0.00 0.00 0.00 0.00 0.00 0.00 0.00 0.00 0.00 0.00 0.00 0.00 0.00 0.00 0.00 0.00 0.00 0.00 0.00 0.00 0.00 0.00 0.00
0.00 0.00 0.00 0.00 0.00 0.00 0.00 0.00 0.00 0.00 0.00 0.00 0.00 0.00 0.00 0.00 0.00 0.00 0.00 0.00 0.00 0.00 0.00 0.00 0.00 0.00 0.00 0.00 0.00 0.00 0.00 0.00 0.00 0.00 0.00 0.00 0.00 0.00 0.00 0.00 0.00 0.00 0.00 0.00 0.00 0.00 0.00
0.00 0.00 0.00 0.00 0.00 0.00 0.00 0.00 0.00 0.00 0.00 0.00 0.00 0.00 0.00 0.00 0.00 0.00 0.00 0.00 0.00 0.00 0.00 0.00 0.00 0.00 0.00 0.00 0.00 0.00 0.00 0.00 0.00 0.00 0.00 0.00 0.00 0.00 0.00 0.00 0.00 0.00 0.00 0.00 0.00 0.00 0.00
0.00 0.00 0.00 0.00 0.00 0.00 0.00 0.00 0.00 0.00 0.00 0.00 0.00 0.00 0.00 0.00 0.00 0.00 0.00 0.00 0.00 0.00 0.00 0.00 0.00 0.00 0.00 0.00 0.00 0.00 0.00 0.00 0.00 0.00 0.00 0.00 0.00 0.00 0.00 0.00 0.00 0.00 0.00 0.00 0.00 0.00 0.00
0.00 0.00 0.00 0.00 0.00 0.00 0.00 0.00 0.00 0.00 0.00 0.00 0.00 0.00 0.00 0.00 0.00 0.00 0.00 0.00 0.00 0.00 0.00 0.00 0.00 0.00 0.00 0.00 0.00 0.00 0.00 0.00 0.00 0.00 0.00 0.00 0.00 0.00 0.00 0.00 0.00 0.00 0.00 0.00 0.00 0.00 0.00
0.00 0.00 0.00 0.00 0.00 0.00 0.00 0.00 0.00 0.00 0.00 0.00 0.00 0.01 0.00 0.00 0.00 0.00 0.00 0.00 0.00 0.00 0.00 0.00 0.00 0.00 0.00 0.00 0.00 0.00 0.00 0.00 0.00 0.00 0.00 0.00 0.00 0.00 0.00 0.00 0.00 0.00 0.00 0.00 0.00 0.00 0.00
0.00 0.00 0.00 0.00 0.00 0.00 0.00 0.00 0.00 0.00 0.00 0.00 0.00 0.00 0.01 0.00 0.00 0.00 0.00 0.00 0.00 0.00 0.00 0.00 0.00 0.00 0.00 0.00 0.00 0.00 0.00 0.00 0.00 0.00 0.00 0.00 0.00 0.00 0.00 0.00 0.00 0.00 0.00 0.00 0.00 0.00 0.00
0.00 0.00 0.00 0.00 0.00 0.00 0.00 0.00 0.00 0.00 0.00 0.00 0.00 0.00 0.01 0.01 0.00 0.00 0.00 0.00 0.00 0.01 0.01 0.01 0.00 0.00 0.00 0.01 0.02 0.00 0.00 0.00 0.00 0.00 0.00 0.00 0.00 0.00 0.00 0.00 0.00 0.00 0.00 0.00 0.00 0.00 0.00
0.00 0.00 0.00 0.00 0.00 0.00 0.00 0.00 0.00 0.00 0.00 0.00 0.00 0.00 0.00 0.01 0.00 0.00 0.00 0.00 0.00 0.01 0.02 0.03 0.02 0.00 0.00 0.02 0.04 0.01 0.00 0.00 0.00 0.00 0.00 0.01 0.00 0.01 0.01 0.00 0.00 0.00 0.00 0.00 0.02 0.01 0.00
0.00 0.00 0.00 0.00 0.00 0.00 0.00 0.00 0.00 0.00 0.00 0.00 0.00 0.00 0.00 0.00 0.00 0.00 0.00 0.00 0.00 0.00 0.03 0.05 0.10 0.11 0.03 0.02 0.02 0.00 0.00 0.00 0.00 0.00 0.00 0.00 0.00 0.00 0.00 0.00 0.00 0.00 0.00 0.01 0.01 0.00 0.00
0.01 0.01 0.00 0.00 0.00 0.00 0.00 0.00 0.01 0.01 0.02 0.02 0.01 0.00 0.00 0.01 0.00 0.00 0.00 0.00 0.00 0.01 0.03 0.05 0.09 0.08 0.07 0.03 0.01 0.00 0.00 0.00 0.00 0.00 0.00 0.00 0.00 0.00 0.00 0.00 0.00 0.00 0.00 0.00 0.00 0.00 0.00

GFSGBSN_prec_precacc12_072.txt.gz
Total_Precipitation_Accumulation
0.00 0.00 0.01 0.01 0.01 0.01 0.01 0.03 0.06 0.04 0.03 0.04 0.08 0.10 0.10 0.12 0.15 0.18 0.13 0.06 0.10 0.08 0.09 0.09 0.06 0.05 0.01 0.01 0.01 0.07 0.05 0.06 0.13 0.38 0.21 0.03 0.00 0.02 0.02 0.01 0.01 0.00 0.00 0.00 0.00 0.00 0.01
0.00 0.00 0.00 0.01 0.01 0.00 0.01 0.05 0.04 0.03 0.03 0.06 0.10 0.09 0.08 0.10 0.14 0.15 0.10 0.06 0.05 0.08 0.12 0.10 0.08 0.09 0.02 0.01 0.00 0.01 0.03 0.03 0.25 0.40 0.28 0.08 0.00 0.01 0.02 0.03 0.03 0.01 0.00 0.00 0.00 0.00 0.00
0.00 0.00 0.00 0.00 0.00 0.01 0.02 0.04 0.02 0.02 0.04 0.08 0.09 0.07 0.08 0.10 0.10 0.09 0.03 0.01 0.02 0.01 0.03 0.07 0.11 0.11 0.03 0.00 0.01 0.04 0.05 0.03 0.14 0.34 0.25 0.10 0.02 0.03 0.02 0.04 0.03 0.04 0.02 0.02 0.00 0.00 0.00
0.00 0.00 0.00 0.00 0.00 0.01 0.01 0.04 0.01 0.02 0.05 0.08 0.07 0.07 0.08 0.06 0.07 0.06 0.01 0.01 0.01 0.00 0.02 0.05 0.15 0.08 0.03 0.00 0.00 0.00 0.05 0.03 0.04 0.24 0.21 0.09 0.09 0.06 0.05 0.04 0.04 0.10 0.03 0.02 0.00 0.00 0.00
0.00 0.00 0.00 0.00 0.00 0.01 0.01 0.02 0.01 0.02 0.05 0.09 0.08 0.09 0.06 0.04 0.05 0.08 0.01 0.00 0.00 0.00 0.00 0.02 0.06 0.05 0.02 0.00 0.00 0.00 0.08 0.04 0.03 0.28 0.24 0.19 0.26 0.15 0.10 0.10 0.10 0.11 0.02 0.00 0.00 0.00 0.00
0.00 0.00 0.00 0.00 0.00 0.00 0.01 0.02 0.02 0.02 0.05 0.09 0.06 0.07 0.05 0.05 0.05 0.08 0.01 0.00 0.00 0.01 0.00 0.01 0.05 0.06 0.04 0.01 0.03 0.04 0.18 0.10 0.08 0.48 0.61 0.53 0.35 0.20 0.13 0.10 0.05 0.01 0.00 0.00 0.00 0.00 0.00
0.00 0.00 0.00 0.00 0.00 0.00 0.00 0.01 0.02 0.02 0.05 0.06 0.04 0.03 0.03 0.05 0.07 0.07 0.02 0.00 0.03 0.07 0.03 0.07 0.08 0.04 0.07 0.14 0.25 0.19 0.30 0.19 0.24 0.79 0.57 0.30 0.28 0.10 0.01 0.00 0.00 0.00 0.00 0.00 0.00 0.00 0.00
0.00 0.00 0.00 0.00 0.00 0.00 0.00 0.01 0.01 0.01 0.03 0.03 0.02 0.03 0.01 0.00 0.01 0.02 0.00 0.00 0.00 0.02 0.04 0.02 0.04 0.06 0.09 0.28 0.51 0.38 0.31 0.42 0.44 0.77 0.50 0.21 0.15 0.07 0.03 0.01 0.01 0.01 0.00 0.00 0.00 0.00 0.00
0.00 0.00 0.00 0.00 0.00 0.00 0.00 0.00 0.01 0.01 0.02 0.02 0.02 0.01 0.00 0.00 0.00 0.00 0.00 0.00 0.00 0.00 0.09 0.13 0.10 0.09 0.17 0.56 0.55 0.49 0.34 0.78 0.47 0.52 0.39 0.10 0.03 0.09 0.09 0.04 0.01 0.00 0.00 0.00 0.00 0.00 0.00
0.00 0.00 0.00 0.00 0.00 0.00 0.00 0.00 0.00 0.01 0.01 0.01 0.01 0.01 0.00 0.00 0.00 0.00 0.00 0.00 0.00 0.00 0.15 0.20 0.17 0.15 0.32 0.48 0.61 0.45 0.64 0.99 0.40 0.33 0.28 0.13 0.04 0.16 0.22 0.05 0.02 0.01 0.00 0.00 0.00 0.00 0.00
0.00 0.00 0.00 0.00 0.00 0.00 0.00 0.00 0.00 0.00 0.01 0.01 0.01 0.00 0.00 0.00 0.00 0.00 0.00 0.00 0.00 0.01 0.27 0.35 0.22 0.24 0.25 0.22 0.23 0.49 0.64 0.75 0.19 0.24 0.18 0.13 0.08 0.14 0.32 0.18 0.03 0.01 0.00 0.00 0.00 0.00 0.00
0.00 0.00 0.00 0.00 0.00 0.00 0.00 0.00 0.00 0.00 0.00 0.01 0.00 0.00 0.00 0.00 0.00 0.00 0.00 0.00 0.00 0.01 0.15 0.25 0.39 0.17 0.13 0.16 0.29 0.60 0.55 0.43 0.11 0.14 0.10 0.13 0.13 0.14 0.31 0.36 0.16 0.04 0.02 0.00 0.00 0.00 0.01
0.00 0.00 0.00 0.00 0.00 0.00 0.00 0.00 0.00 0.00 0.00 0.01 0.00 0.00 0.00 0.00 0.00 0.00 0.00 0.00 0.00 0.02 0.03 0.04 0.15 0.26 0.28 0.37 0.41 0.40 0.41 0.22 0.16 0.17 0.17 0.30 0.31 0.22 0.22 0.44 0.34 0.08 0.04 0.05 0.07 0.05 0.01
0.00 0.00 0.00 0.00 0.00 0.00 0.00 0.00 0.00 0.00 0.00 0.00 0.00 0.00 0.00 0.00 0.00 0.00 0.00 0.00 0.01 0.04 0.02 0.02 0.02 0.03 0.05 0.06 0.12 0.15 0.13 0.09 0.05 0.03 0.13 0.22 0.33 0.33 0.23 0.25 0.44 0.21 0.04 0.03 0.02 0.00 0.00
0.00 0.00 0.00 0.00 0.00 0.00 0.00 0.00 0.00 0.00 0.00 0.00 0.00 0.00 0.00 0.00 0.00 0.00 0.00 0.00 0.01 0.01 0.01 0.01 0.01 0.01 0.01 0.01 0.02 0.04 0.04 0.02 0.03 0.04 0.08 0.07 0.11 0.21 0.21 0.08 0.24 0.35 0.10 0.00 0.00 0.00 0.00
0.00 0.00 0.00 0.00 0.00 0.00 0.00 0.00 0.00 0.00 0.00 0.00 0.00 0.00 0.00 0.00 0.00 0.00 0.00 0.00 0.01 0.00 0.00 0.00 0.00 0.00 0.00 0.00 0.00 0.00 0.00 0.00 0.00 0.00 0.00 0.01 0.07 0.12 0.16 0.10 0.12 0.22 0.08 0.03 0.00 0.00 0.00
0.00 0.00 0.00 0.00 0.00 0.00 0.00 0.00 0.00 0.00 0.00 0.00 0.00 0.00 0.00 0.00 0.00 0.00 0.00 0.00 0.00 0.00 0.00 0.00 0.00 0.00 0.00 0.00 0.00 0.00 0.00 0.00 0.00 0.00 0.00 0.00 0.01 0.06 0.07 0.10 0.05 0.09 0.13 0.01 0.00 0.00 0.00
0.00 0.00 0.00 0.00 0.00 0.00 0.00 0.00 0.00 0.00 0.00 0.00 0.00 0.00 0.00 0.00 0.00 0.00 0.00 0.00 0.00 0.00 0.00 0.00 0.00 0.00 0.00 0.00 0.00 0.00 0.00 0.00 0.00 0.00 0.00 0.00 0.00 0.01 0.01 0.00 0.00 0.00 0.01 0.01 0.00 0.00 0.00
0.00 0.00 0.00 0.00 0.00 0.00 0.00 0.00 0.00 0.00 0.00 0.00 0.00 0.00 0.00 0.00 0.00 0.00 0.00 0.00 0.00 0.00 0.00 0.00 0.00 0.00 0.00 0.00 0.00 0.00 0.00 0.00 0.00 0.00 0.00 0.00 0.00 0.00 0.00 0.00 0.00 0.00 0.00 0.00 0.00 0.00 0.00
0.00 0.00 0.00 0.00 0.00 0.00 0.00 0.00 0.00 0.00 0.00 0.00 0.00 0.00 0.00 0.00 0.00 0.00 0.00 0.00 0.00 0.00 0.00 0.00 0.00 0.00 0.00 0.00 0.00 0.00 0.00 0.00 0.00 0.00 0.00 0.00 0.00 0.00 0.00 0.00 0.00 0.00 0.00 0.00 0.01 0.01 0.00
0.00 0.00 0.00 0.00 0.00 0.00 0.00 0.00 0.00 0.00 0.00 0.00 0.00 0.00 0.00 0.00 0.00 0.00 0.00 0.00 0.00 0.00 0.00 0.00 0.00 0.00 0.00 0.00 0.00 0.00 0.00 0.00 0.00 0.00 0.00 0.00 0.00 0.00 0.00 0.00 0.00 0.00 0.00 0.00 0.00 0.00 0.00
0.00 0.00 0.00 0.00 0.00 0.00 0.00 0.00 0.00 0.00 0.00 0.00 0.00 0.00 0.00 0.00 0.00 0.00 0.00 0.00 0.00 0.00 0.00 0.00 0.00 0.00 0.00 0.00 0.00 0.00 0.00 0.00 0.00 0.00 0.00 0.00 0.00 0.00 0.00 0.00 0.00 0.00 0.00 0.00 0.00 0.00 0.00
0.00 0.00 0.00 0.00 0.00 0.00 0.00 0.00 0.00 0.00 0.00 0.00 0.00 0.00 0.00 0.00 0.00 0.00 0.00 0.00 0.00 0.00 0.00 0.00 0.00 0.00 0.00 0.00 0.00 0.00 0.00 0.00 0.00 0.00 0.00 0.00 0.00 0.00 0.00 0.00 0.00 0.00 0.00 0.00 0.00 0.00 0.00
0.00 0.00 0.00 0.00 0.00 0.00 0.00 0.00 0.00 0.00 0.00 0.00 0.00 0.00 0.00 0.00 0.00 0.00 0.00 0.00 0.00 0.00 0.00 0.00 0.00 0.00 0.00 0.00 0.00 0.00 0.00 0.00 0.00 0.00 0.00 0.00 0.00 0.00 0.00 0.00 0.00 0.00 0.00 0.00 0.00 0.00 0.00
0.00 0.00 0.00 0.00 0.00 0.00 0.00 0.00 0.00 0.00 0.00 0.00 0.00 0.00 0.01 0.00 0.00 0.00 0.00 0.00 0.00 0.00 0.00 0.00 0.00 0.00 0.00 0.00 0.00 0.00 0.00 0.00 0.00 0.00 0.00 0.00 0.00 0.00 0.00 0.00 0.00 0.00 0.00 0.00 0.00 0.00 0.00
0.00 0.00 0.00 0.00 0.00 0.00 0.00 0.00 0.00 0.00 0.00 0.00 0.00 0.00 0.00 0.00 0.00 0.00 0.00 0.00 0.00 0.01 0.01 0.01 0.01 0.02 0.01 0.01 0.02 0.01 0.01 0.00 0.01 0.00 0.00 0.00 0.00 0.00 0.00 0.00 0.00 0.00 0.00 0.00 0.00 0.00 0.00
0.00 0.00 0.00 0.00 0.00 0.00 0.00 0.00 0.00 0.00 0.00 0.00 0.00 0.00 0.00 0.00 0.00 0.00 0.00 0.00 0.00 0.01 0.02 0.04 0.03 0.03 0.02 0.03 0.06 0.02 0.00 0.00 0.00 0.00 0.00 0.00 0.01 0.01 0.00 0.00 0.00 0.00 0.00 0.00 0.01 0.01 0.00
0.01 0.01 0.00 0.00 0.00 0.00 0.00 0.00 0.00 0.00 0.00 0.00 0.00 0.00 0.00 0.00 0.00 0.00 0.00 0.00 0.00 0.00 0.03 0.05 0.11 0.13 0.09 0.07 0.03 0.01 0.00 0.00 0.00 0.00 0.00 0.00 0.00 0.01 0.01 0.01 0.00 0.00 0.00 0.00 0.00 0.00 0.00
0.02 0.02 0.01 0.00 0.00 0.00 0.00 0.00 0.00 0.01 0.01 0.02 0.01 0.00 0.00 0.02 0.00 0.00 0.00 0.00 0.00 0.01 0.03 0.05 0.10 0.14 0.25 0.19 0.05 0.00 0.00 0.00 0.00 0.00 0.00 0.00 0.00 0.00 0.00 0.00 0.00 0.00 0.00 0.00 0.00 0.00 0.00

GFSGBSN_prec_precacc12_075.txt.gz
Total_Precipitation_Accumulation
0.00 0.00 0.00 0.01 0.00 0.00 0.01 0.03 0.03 0.02 0.03 0.04 0.07 0.07 0.08 0.09 0.11 0.14 0.11 0.05 0.09 0.06 0.07 0.08 0.05 0.03 0.01 0.00 0.01 0.02 0.04 0.03 0.06 0.31 0.23 0.04 0.00 0.01 0.01 0.01 0.02 0.00 0.00 0.01 0.09 0.05 0.04
0.00 0.00 0.00 0.00 0.00 0.00 0.01 0.03 0.03 0.02 0.03 0.04 0.07 0.06 0.06 0.08 0.08 0.07 0.07 0.05 0.04 0.06 0.08 0.08 0.04 0.02 0.00 0.00 0.00 0.02 0.00 0.01 0.14 0.33 0.31 0.14 0.00 0.00 0.01 0.03 0.06 0.01 0.00 0.01 0.02 0.01 0.01
0.00 0.00 0.00 0.00 0.01 0.01 0.01 0.03 0.02 0.01 0.02 0.05 0.06 0.05 0.06 0.07 0.07 0.05 0.00 0.00 0.00 0.00 0.01 0.03 0.03 0.02 0.01 0.00 0.01 0.03 0.00 0.01 0.10 0.26 0.29 0.17 0.03 0.01 0.01 0.04 0.06 0.05 0.03 0.02 0.00 0.00 0.01
0.00 0.00 0.00 0.00 0.00 0.00 0.00 0.01 0.01 0.02 0.03 0.06 0.05 0.04 0.05 0.05 0.05 0.05 0.01 0.00 0.00 0.00 0.00 0.01 0.04 0.02 0.01 0.00 0.00 0.00 0.00 0.01 0.01 0.12 0.25 0.15 0.09 0.02 0.02 0.03 0.07 0.14 0.04 0.02 0.00 0.00 0.00
0.00 0.00 0.00 0.00 0.00 0.00 0.00 0.01 0.01 0.01 0.03 0.05 0.04 0.03 0.02 0.03 0.04 0.08 0.01 0.00 0.00 0.00 0.00 0.00 0.00 0.02 0.00 0.00 0.00 0.00 0.01 0.02 0.01 0.17 0.29 0.25 0.21 0.07 0.06 0.09 0.10 0.12 0.02 0.00 0.00 0.00 0.00
0.00 0.00 0.00 0.00 0.00 0.00 0.00 0.01 0.01 0.01 0.02 0.04 0.03 0.02 0.01 0.00 0.02 0.07 0.00 0.00 0.00 0.01 0.00 0.00 0.02 0.03 0.02 0.00 0.00 0.00 0.08 0.05 0.03 0.34 0.67 0.51 0.26 0.11 0.08 0.08 0.04 0.01 0.00 0.00 0.00 0.00 0.00
0.00 0.00 0.00 0.00 0.00 0.00 0.00 0.00 0.00 0.01 0.01 0.03 0.03 0.02 0.00 0.00 0.00 0.01 0.00 0.00 0.03 0.05 0.02 0.04 0.05 0.02 0.04 0.07 0.08 0.08 0.20 0.11 0.14 0.82 0.80 0.40 0.13 0.03 0.01 0.00 0.00 0.00 0.00 0.00 0.00 0.00 0.00
0.00 0.00 0.00 0.00 0.00 0.00 0.00 0.00 0.00 0.00 0.01 0.02 0.02 0.02 0.00 0.00 0.00 0.00 0.00 0.00 0.00 0.01 0.02 0.02 0.02 0.05 0.08 0.09 0.14 0.25 0.22 0.24 0.29 0.82 0.72 0.34 0.06 0.00 0.00 0.00 0.01 0.01 0.00 0.00 0.00 0.00 0.00
0.00 0.00 0.00 0.00 0.00 0.00 0.00 0.00 0.00 0.00 0.00 0.01 0.01 0.01 0.00 0.00 0.00 0.00 0.00 0.00 0.00 0.00 0.07 0.13 0.12 0.09 0.15 0.45 0.42 0.42 0.25 0.36 0.32 0.57 0.56 0.18 0.03 0.01 0.04 0.02 0.01 0.00 0.00 0.00 0.00 0.00 0.00
0.00 0.00 0.00 0.00 0.00 0.00 0.00 0.00 0.00 0.00 0.00 0.01 0.01 0.01 0.00 0.00 0.00 0.00 0.00 0.00 0.00 0.00 0.11 0.19 0.17 0.15 0.30 0.45 0.54 0.35 0.23 0.49 0.30 0.36 0.41 0.16 0.02 0.05 0.17 0.03 0.01 0.00 0.00 0.00 0.00 0.00 0.00
0.00 0.00 0.00 0.00 0.00 0.00 0.00 0.00 0.00 0.00 0.00 0.01 0.01 0.00 0.00 0.00 0.00 0.00 0.00 0.00 0.00 0.00 0.17 0.36 0.20 0.24 0.22 0.15 0.11 0.27 0.32 0.59 0.19 0.26 0.31 0.15 0.05 0.08 0.27 0.16 0.02 0.01 0.00 0.00 0.00 0.00 0.00
0.00 0.00 0.00 0.00 0.00 0.00 0.00 0.00 0.00 0.00 0.00 0.00 0.00 0.00 0.00 0.00 0.00 0.00 0.00 0.00 0.00 0.00 0.10 0.25 0.42 0.18 0.08 0.07 0.14 0.32 0.46 0.44 0.14 0.13 0.09 0.03 0.02 0.05 0.20 0.35 0.15 0.04 0.02 0.00 0.00 0.00 0.01
0.00 0.00 0.00 0.00 0.00 0.00 0.00 0.00 0.00 0.00 0.00 0.00 0.00 0.00 0.00 0.00 0.00 0.00 0.00 0.00 0.00 0.01 0.01 0.02 0.17 0.25 0.25 0.31 0.31 0.31 0.35 0.16 0.11 0.12 0.12 0.07 0.06 0.02 0.07 0.31 0.28 0.06 0.04 0.07 0.07 0.07 0.01
0.00 0.00 0.00 0.00 0.00 0.00 0.00 0.00 0.00 0.00 0.00 0.00 0.00 0.00 0.00 0.00 0.00 0.00 0.00 0.00 0.00 0.02 0.01 0.00 0.00 0.03 0.05 0.06 0.12 0.18 0.13 0.07 0.03 0.02 0.05 0.09 0.11 0.08 0.05 0.13 0.33 0.16 0.03 0.03 0.02 0.00 0.00
0.00 0.00 0.00 0.00 0.00 0.00 0.00 0.00 0.00 0.00 0.00 0.00 0.00 0.00 0.00 0.00 0.00 0.00 0.00 0.00 0.00 0.00 0.00 0.00 0.00 0.01 0.01 0.01 0.02 0.04 0.05 0.02 0.03 0.03 0.05 0.06 0.09 0.14 0.17 0.06 0.21 0.30 0.10 0.00 0.00 0.00 0.00
0.00 0.00 0.00 0.00 0.00 0.00 0.00 0.00 0.00 0.00 0.00 0.00 0.00 0.00 0.00 0.00 0.00 0.00 0.00 0.00 0.00 0.00 0.00 0.00 0.00 0.00 0.00 0.00 0.01 0.00 0.00 0.00 0.00 0.00 0.00 0.01 0.07 0.11 0.16 0.10 0.12 0.22 0.08 0.06 0.02 0.00 0.00
0.00 0.00 0.00 0.00 0.00 0.00 0.00 0.00 0.00 0.00 0.00 0.00 0.00 0.00 0.00 0.00 0.00 0.00 0.00 0.00 0.00 0.00 0.00 0.00 0.00 0.00 0.00 0.00 0.00 0.00 0.00 0.00 0.00 0.00 0.00 0.00 0.01 0.06 0.07 0.10 0.06 0.09 0.14 0.04 0.01 0.00 0.00
0.00 0.00 0.00 0.00 0.00 0.00 0.00 0.00 0.00 0.00 0.00 0.00 0.00 0.00 0.00 0.00 0.00 0.00 0.00 0.00 0.00 0.00 0.00 0.00 0.00 0.00 0.00 0.00 0.00 0.00 0.00 0.00 0.00 0.00 0.00 0.00 0.00 0.01 0.01 0.01 0.00 0.00 0.02 0.02 0.01 0.00 0.00
0.00 0.00 0.00 0.00 0.00 0.00 0.00 0.00 0.00 0.00 0.00 0.00 0.00 0.00 0.00 0.00 0.00 0.00 0.00 0.00 0.00 0.00 0.00 0.00 0.00 0.00 0.00 0.00 0.00 0.00 0.00 0.00 0.00 0.00 0.00 0.00 0.00 0.01 0.02 0.01 0.01 0.02 0.01 0.01 0.02 0.00 0.00
0.00 0.00 0.00 0.00 0.00 0.00 0.00 0.00 0.00 0.00 0.00 0.00 0.00 0.00 0.00 0.00 0.00 0.00 0.00 0.00 0.00 0.00 0.00 0.00 0.00 0.00 0.00 0.00 0.00 0.00 0.00 0.00 0.00 0.00 0.00 0.00 0.00 0.00 0.00 0.00 0.00 0.00 0.00 0.00 0.02 0.02 0.00
0.00 0.00 0.00 0.00 0.00 0.00 0.00 0.00 0.00 0.00 0.00 0.00 0.00 0.00 0.00 0.00 0.00 0.00 0.00 0.00 0.00 0.00 0.00 0.00 0.00 0.00 0.00 0.00 0.00 0.00 0.00 0.00 0.00 0.00 0.00 0.00 0.00 0.00 0.00 0.00 0.00 0.00 0.00 0.00 0.00 0.00 0.00
0.00 0.00 0.00 0.00 0.00 0.00 0.00 0.00 0.00 0.00 0.00 0.00 0.00 0.00 0.00 0.00 0.00 0.00 0.00 0.00 0.00 0.00 0.00 0.00 0.00 0.00 0.00 0.00 0.00 0.00 0.00 0.00 0.00 0.00 0.00 0.00 0.00 0.00 0.00 0.00 0.00 0.00 0.00 0.00 0.00 0.00 0.00
0.00 0.00 0.00 0.00 0.00 0.00 0.00 0.00 0.00 0.00 0.00 0.00 0.00 0.00 0.00 0.00 0.00 0.00 0.00 0.00 0.00 0.00 0.00 0.00 0.00 0.00 0.00 0.00 0.00 0.00 0.00 0.00 0.00 0.00 0.00 0.00 0.00 0.00 0.00 0.00 0.00 0.00 0.00 0.00 0.00 0.00 0.00
0.00 0.00 0.00 0.00 0.00 0.00 0.00 0.00 0.00 0.00 0.00 0.00 0.00 0.00 0.00 0.00 0.00 0.00 0.00 0.00 0.00 0.00 0.00 0.00 0.00 0.00 0.00 0.00 0.00 0.00 0.00 0.00 0.00 0.00 0.00 0.00 0.00 0.00 0.00 0.00 0.00 0.00 0.00 0.00 0.00 0.00 0.00
0.00 0.00 0.00 0.00 0.00 0.00 0.00 0.00 0.00 0.00 0.00 0.00 0.00 0.00 0.00 0.00 0.00 0.00 0.00 0.00 0.00 0.00 0.00 0.00 0.00 0.00 0.00 0.01 0.01 0.00 0.00 0.01 0.00 0.00 0.00 0.00 0.00 0.00 0.00 0.00 0.00 0.00 0.00 0.00 0.00 0.00 0.00
0.00 0.00 0.00 0.00 0.00 0.00 0.00 0.00 0.00 0.00 0.00 0.00 0.00 0.00 0.00 0.00 0.00 0.00 0.00 0.00 0.00 0.01 0.01 0.01 0.01 0.02 0.03 0.04 0.04 0.01 0.00 0.01 0.00 0.00 0.00 0.00 0.00 0.00 0.00 0.00 0.00 0.00 0.00 0.00 0.00 0.00 0.00
0.00 0.00 0.00 0.00 0.00 0.00 0.00 0.00 0.00 0.00 0.00 0.00 0.00 0.00 0.00 0.00 0.00 0.00 0.00 0.00 0.00 0.01 0.01 0.03 0.03 0.04 0.06 0.12 0.16 0.03 0.00 0.00 0.00 0.00 0.00 0.00 0.01 0.01 0.00 0.00 0.00 0.00 0.00 0.00 0.00 0.00 0.00
0.01 0.01 0.01 0.00 0.00 0.00 0.00 0.00 0.00 0.00 0.00 0.00 0.00 0.00 0.00 0.00 0.00 0.00 0.00 0.00 0.00 0.00 0.03 0.05 0.11 0.14 0.15 0.24 0.17 0.06 0.00 0.00 0.00 0.00 0.00 0.01 0.01 0.01 0.01 0.02 0.00 0.00 0.00 0.00 0.00 0.00 0.00
0.03 0.03 0.01 0.01 0.00 0.00 0.00 0.00 0.00 0.00 0.01 0.02 0.01 0.00 0.00 0.01 0.00 0.00 0.00 0.00 0.00 0.00 0.02 0.05 0.09 0.15 0.30 0.28 0.18 0.13 0.03 0.00 0.00 0.00 0.00 0.00 0.00 0.00 0.00 0.00 0.00 0.00 0.00 0.00 0.00 0.00 0.00